[[{"header":{"parameterUnit":"m.s-1","parameterCategory":1,"la1":30.6,"la2":29.2853,"lo1":-89.7004,"lo2":-87.6739,"dy":0.0162,"dx":0.0183,"nx":112,"ny":82,"refTime":"2024-05-14T06:00:00:Z","depth":0,"parameterNumber":2,"parameterNumberName":"U-component_of_WINDS"},"data":[0.0,0.0,0.0,0.0,0.0,0.0,0.0,0.0,0.0,0.0,0.0,0.0,0.0,0.0,0.0,0.0,0.0,0.0,0.0,0.0,0.0,0.0,0.0,0.0,0.0,0.0,0.0,0.0,0.0,0.0,0.0,0.0,0.0,0.0,0.0,0.0,0.0,0.0,0.0,0.0,0.0,0.0,0.0,0.0,0.0,0.0,0.0,0.0,0.0,0.0,0.0,0.0,0.0,0.0,0.0,0.0,0.0,0.0,0.0,0.0,0.0,0.0,0.0,0.0,0.0,0.0,0.0,0.0,0.0,0.0,0.0,0.0,0.0,0.0,0.0,0.0,0.0,0.0,0.0,0.0,0.0,0.0,0.0,0.0,0.0,0.0,0.0,0.0,0.0,0.0,-3.6358,-3.6358,-3.6358,-3.6358,-3.6358,-3.6358,-3.6358,-3.6358,0.0,0.0,0.0,0.0,0.0,0.0,0.0,0.0,0.0,0.0,0.0,0.0,0.0,0.0,0.0,0.0,0.0,0.0,0.0,0.0,0.0,0.0,0.0,0.0,0.0,0.0,0.0,0.0,0.0,0.0,0.0,0.0,0.0,0.0,0.0,0.0,0.0,0.0,0.0,0.0,0.0,0.0,0.0,0.0,0.0,0.0,0.0,0.0,0.0,0.0,0.0,0.0,0.0,0.0,0.0,0.0,0.0,0.0,0.0,0.0,0.0,0.0,0.0,0.0,0.0,0.0,0.0,0.0,0.0,0.0,0.0,0.0,0.0,0.0,0.0,0.0,0.0,0.0,0.0,0.0,0.0,0.0,0.0,0.0,0.0,0.0,0.0,0.0,0.0,0.0,0.0,0.0,0.0,0.0,0.0,0.0,0.0,0.0,0.0,0.0,0.0,0.0,0.0,0.0,-3.6358,-3.6358,-3.6358,-3.6358,-3.6358,-3.6358,-3.6358,-3.6358,0.0,0.0,0.0,0.0,0.0,0.0,0.0,0.0,0.0,0.0,0.0,0.0,0.0,0.0,0.0,0.0,0.0,0.0,0.0,0.0,0.0,0.0,0.0,0.0,0.0,0.0,0.0,0.0,0.0,0.0,0.0,0.0,0.0,0.0,0.0,0.0,0.0,0.0,0.0,0.0,0.0,0.0,0.0,0.0,0.0,0.0,0.0,0.0,0.0,0.0,0.0,0.0,0.0,0.0,0.0,0.0,0.0,0.0,0.0,0.0,0.0,0.0,0.0,0.0,0.0,0.0,0.0,0.0,0.0,0.0,0.0,0.0,0.0,0.0,0.0,0.0,0.0,0.0,0.0,0.0,0.0,0.0,0.0,0.0,0.0,0.0,0.0,0.0,0.0,0.0,0.0,0.0,0.0,0.0,0.0,0.0,0.0,0.0,0.0,0.0,0.0,0.0,0.0,-3.6358,-3.6358,-3.6358,-3.6358,-3.6358,-3.6358,-3.6358,-3.6358,-3.6358,-3.6358,0.0,0.0,0.0,0.0,0.0,0.0,0.0,0.0,0.0,0.0,0.0,0.0,0.0,0.0,0.0,0.0,0.0,0.0,0.0,0.0,0.0,0.0,0.0,0.0,0.0,0.0,0.0,0.0,0.0,0.0,0.0,0.0,0.0,0.0,0.0,0.0,0.0,0.0,0.0,0.0,0.0,0.0,0.0,0.0,0.0,0.0,0.0,0.0,0.0,0.0,0.0,0.0,0.0,0.0,0.0,0.0,0.0,0.0,0.0,0.0,0.0,0.0,0.0,0.0,0.0,0.0,0.0,0.0,0.0,0.0,0.0,0.0,0.0,0.0,0.0,0.0,0.0,0.0,0.0,0.0,0.0,0.0,0.0,0.0,0.0,0.0,0.0,0.0,0.0,0.0,0.0,0.0,0.0,0.0,0.0,0.0,0.0,0.0,0.0,0.0,0.0,0.0,-3.6358,-3.6358,-3.6358,-3.6358,-3.6358,-3.6358,-3.6358,-3.6358,-3.6358,-3.6358,0.0,0.0,0.0,0.0,0.0,0.0,0.0,0.0,0.0,0.0,0.0,0.0,0.0,0.0,0.0,0.0,0.0,0.0,0.0,0.0,0.0,0.0,0.0,0.0,0.0,0.0,0.0,0.0,0.0,0.0,0.0,0.0,0.0,0.0,0.0,0.0,0.0,0.0,0.0,0.0,0.0,0.0,0.0,0.0,0.0,0.0,0.0,0.0,0.0,0.0,0.0,0.0,0.0,0.0,0.0,0.0,0.0,0.0,0.0,0.0,0.0,0.0,0.0,0.0,0.0,0.0,0.0,0.0,0.0,0.0,0.0,0.0,0.0,0.0,0.0,0.0,0.0,0.0,0.0,0.0,0.0,0.0,0.0,0.0,0.0,0.0,0.0,0.0,0.0,0.0,0.0,0.0,0.0,0.0,0.0,0.0,0.0,0.0,0.0,0.0,0.0,0.0,-3.6358,-3.6358,-3.6358,-3.6358,-3.6358,-3.6358,-3.6358,-3.6358,-3.6358,-3.6358,0.0,0.0,0.0,0.0,0.0,0.0,0.0,0.0,0.0,0.0,0.0,0.0,0.0,0.0,0.0,0.0,0.0,0.0,0.0,0.0,0.0,0.0,0.0,0.0,0.0,0.0,0.0,0.0,0.0,0.0,0.0,0.0,0.0,0.0,0.0,0.0,0.0,0.0,0.0,0.0,0.0,0.0,0.0,0.0,0.0,0.0,0.0,0.0,0.0,0.0,0.0,0.0,0.0,0.0,0.0,0.0,0.0,0.0,0.0,0.0,0.0,0.0,0.0,0.0,0.0,0.0,0.0,0.0,0.0,0.0,0.0,0.0,0.0,0.0,0.0,0.0,0.0,0.0,0.0,0.0,0.0,0.0,0.0,0.0,0.0,0.0,0.0,0.0,0.0,0.0,0.0,0.0,0.0,0.0,0.0,0.0,0.0,0.0,0.0,0.0,0.0,0.0,-3.6358,-3.6358,-3.6358,-3.6358,-3.6358,-3.6358,-3.6358,-3.6358,-3.6358,0.0,0.0,0.0,0.0,0.0,0.0,0.0,0.0,0.0,0.0,0.0,0.0,0.0,0.0,0.0,0.0,0.0,0.0,0.0,0.0,0.0,0.0,0.0,0.0,0.0,0.0,0.0,0.0,0.0,0.0,0.0,0.0,0.0,0.0,0.0,0.0,0.0,0.0,0.0,0.0,0.0,0.0,0.0,0.0,0.0,0.0,0.0,0.0,0.0,0.0,0.0,0.0,0.0,0.0,0.0,0.0,0.0,0.0,0.0,0.0,0.0,0.0,0.0,0.0,0.0,0.0,0.0,0.0,0.0,0.0,0.0,0.0,0.0,0.0,0.0,0.0,0.0,0.0,0.0,0.0,0.0,0.0,0.0,0.0,0.0,0.0,0.0,0.0,0.0,0.0,0.0,0.0,0.0,0.0,0.0,0.0,0.0,0.0,0.0,0.0,0.0,0.0,-3.6358,-3.6358,-3.6358,-3.6358,-3.6358,-3.6358,-3.6358,-3.6358,-3.6358,-3.6358,0.0,0.0,0.0,0.0,0.0,0.0,0.0,0.0,0.0,0.0,0.0,0.0,0.0,0.0,0.0,0.0,0.0,0.0,0.0,0.0,0.0,0.0,0.0,0.0,0.0,0.0,0.0,0.0,0.0,0.0,0.0,0.0,0.0,0.0,0.0,0.0,0.0,0.0,0.0,0.0,0.0,0.0,0.0,0.0,0.0,0.0,0.0,0.0,0.0,0.0,0.0,0.0,0.0,0.0,0.0,0.0,0.0,0.0,0.0,0.0,0.0,0.0,0.0,0.0,0.0,0.0,0.0,0.0,0.0,0.0,0.0,0.0,0.0,0.0,0.0,0.0,0.0,0.0,0.0,0.0,0.0,0.0,0.0,0.0,0.0,0.0,0.0,0.0,0.0,0.0,0.0,0.0,0.0,0.0,0.0,0.0,0.0,0.0,0.0,0.0,0.0,0.0,-3.6358,-3.6358,-3.6358,-3.6358,-3.6358,-3.6358,-3.6358,-3.6358,-3.6358,0.0,0.0,0.0,0.0,0.0,0.0,0.0,0.0,0.0,0.0,0.0,0.0,0.0,0.0,0.0,0.0,0.0,0.0,0.0,0.0,0.0,0.0,0.0,0.0,0.0,0.0,0.0,0.0,0.0,0.0,0.0,0.0,0.0,0.0,0.0,0.0,0.0,0.0,0.0,0.0,0.0,0.0,0.0,0.0,0.0,0.0,0.0,0.0,0.0,0.0,0.0,0.0,0.0,0.0,0.0,0.0,0.0,0.0,0.0,0.0,0.0,0.0,0.0,0.0,0.0,0.0,0.0,0.0,0.0,0.0,0.0,0.0,0.0,0.0,0.0,0.0,0.0,0.0,0.0,0.0,0.0,0.0,0.0,0.0,0.0,0.0,0.0,0.0,0.0,0.0,0.0,0.0,0.0,0.0,0.0,0.0,0.0,0.0,0.0,0.0,0.0,0.0,0.0,-3.6358,-3.6358,-3.6358,-3.6358,-3.6358,-3.6358,-3.6358,-3.6358,-3.6358,-3.6358,0.0,0.0,0.0,0.0,0.0,0.0,0.0,0.0,0.0,0.0,0.0,0.0,0.0,0.0,0.0,0.0,0.0,0.0,0.0,0.0,0.0,0.0,0.0,0.0,0.0,0.0,0.0,0.0,0.0,0.0,0.0,0.0,0.0,0.0,0.0,0.0,0.0,0.0,0.0,0.0,0.0,0.0,0.0,0.0,0.0,0.0,0.0,0.0,0.0,0.0,0.0,0.0,0.0,0.0,0.0,0.0,0.0,0.0,0.0,0.0,0.0,0.0,0.0,0.0,0.0,0.0,0.0,0.0,0.0,0.0,0.0,0.0,0.0,0.0,0.0,0.0,0.0,0.0,0.0,0.0,0.0,0.0,0.0,0.0,0.0,0.0,0.0,0.0,0.0,0.0,0.0,0.0,0.0,0.0,0.0,0.0,0.0,0.0,0.0,0.0,0.0,0.0,-3.6358,-3.6358,-3.6358,-3.6358,-3.6358,-3.6358,-3.6358,-3.6358,-3.6358,-3.6358,0.0,0.0,0.0,0.0,0.0,0.0,0.0,0.0,0.0,0.0,0.0,0.0,0.0,0.0,0.0,0.0,0.0,0.0,0.0,0.0,0.0,0.0,0.0,0.0,0.0,0.0,0.0,0.0,0.0,0.0,0.0,0.0,0.0,0.0,0.0,0.0,0.0,0.0,0.0,0.0,0.0,0.0,0.0,0.0,0.0,0.0,0.0,0.0,0.0,0.0,0.0,0.0,0.0,0.0,0.0,0.0,0.0,0.0,0.0,0.0,0.0,0.0,0.0,0.0,0.0,0.0,0.0,0.0,0.0,0.0,0.0,0.0,0.0,0.0,0.0,0.0,0.0,0.0,0.0,0.0,0.0,0.0,0.0,0.0,0.0,0.0,0.0,0.0,0.0,0.0,0.0,0.0,0.0,0.0,0.0,0.0,0.0,0.0,0.0,0.0,0.0,0.0,-3.6358,-3.6358,-3.6358,-3.6358,-3.6358,-3.6358,-3.6358,-3.6358,-3.6358,-3.6358,0.0,0.0,0.0,0.0,0.0,0.0,0.0,0.0,0.0,0.0,0.0,0.0,0.0,0.0,0.0,0.0,0.0,0.0,0.0,0.0,0.0,0.0,0.0,0.0,0.0,0.0,0.0,0.0,0.0,0.0,0.0,0.0,0.0,0.0,0.0,0.0,0.0,0.0,0.0,0.0,0.0,0.0,0.0,0.0,0.0,0.0,0.0,0.0,0.0,0.0,0.0,0.0,0.0,0.0,0.0,0.0,0.0,0.0,0.0,0.0,-3.3721,-3.3721,0.0,0.0,0.0,0.0,0.0,0.0,0.0,0.0,0.0,0.0,0.0,0.0,0.0,0.0,0.0,0.0,0.0,0.0,0.0,0.0,0.0,0.0,0.0,0.0,0.0,0.0,0.0,0.0,0.0,0.0,0.0,0.0,0.0,0.0,0.0,0.0,0.0,0.0,0.0,0.0,-3.6358,-3.6358,-3.6358,-3.6358,-3.6358,-3.6358,-3.6358,-3.6358,-3.6358,-3.6358,-3.6358,0.0,0.0,0.0,0.0,0.0,0.0,0.0,0.0,0.0,0.0,0.0,0.0,0.0,0.0,0.0,0.0,0.0,0.0,0.0,0.0,0.0,0.0,0.0,0.0,0.0,0.0,0.0,0.0,0.0,0.0,0.0,0.0,0.0,0.0,0.0,0.0,0.0,0.0,0.0,0.0,0.0,0.0,0.0,0.0,0.0,0.0,0.0,0.0,0.0,0.0,0.0,0.0,0.0,0.0,0.0,0.0,0.0,0.0,0.0,-3.4299,-3.4299,0.0,0.0,0.0,0.0,0.0,0.0,0.0,0.0,0.0,0.0,0.0,0.0,0.0,0.0,0.0,0.0,0.0,0.0,0.0,0.0,0.0,0.0,0.0,0.0,0.0,0.0,0.0,0.0,0.0,0.0,0.0,0.0,0.0,0.0,0.0,0.0,0.0,0.0,0.0,0.0,-3.6358,-3.6358,-3.6358,-3.6358,-3.6358,-3.6358,-3.6358,-3.6358,-3.6358,-3.6358,-3.6358,0.0,0.0,0.0,0.0,0.0,0.0,0.0,0.0,0.0,0.0,0.0,0.0,0.0,0.0,0.0,0.0,0.0,0.0,0.0,0.0,0.0,0.0,0.0,0.0,0.0,0.0,0.0,0.0,0.0,0.0,0.0,0.0,0.0,0.0,0.0,0.0,0.0,0.0,0.0,0.0,0.0,0.0,0.0,0.0,0.0,0.0,0.0,0.0,0.0,0.0,0.0,0.0,0.0,-3.3684,-3.3947,-3.406,-3.4613,-3.4864,-3.4876,-3.4964,-3.4951,-3.4914,-3.5466,0.0,0.0,0.0,0.0,0.0,0.0,0.0,0.0,0.0,0.0,0.0,0.0,0.0,0.0,0.0,0.0,0.0,0.0,0.0,0.0,0.0,0.0,-3.6358,-3.6358,-3.6358,-3.6358,-3.6358,0.0,0.0,0.0,0.0,0.0,0.0,0.0,0.0,0.0,0.0,0.0,-3.6358,-3.6358,-3.6395,-3.6496,-3.6508,-3.6546,-3.6634,-3.6646,-3.6646,-3.6646,-3.6558,-3.6508,0.0,0.0,0.0,0.0,0.0,0.0,0.0,0.0,0.0,0.0,0.0,0.0,0.0,0.0,0.0,0.0,0.0,0.0,0.0,0.0,0.0,0.0,0.0,0.0,0.0,0.0,0.0,0.0,0.0,0.0,0.0,0.0,-2.9967,-3.0457,0.0,0.0,0.0,0.0,0.0,0.0,0.0,0.0,0.0,0.0,0.0,0.0,0.0,-3.3081,-3.3081,-3.3081,-3.3319,-3.3796,-3.3872,-3.4148,-3.4625,-3.519,-3.5349,-3.5466,-3.5943,0.0,-3.5479,-3.6031,0.0,0.0,0.0,0.0,0.0,0.0,0.0,0.0,0.0,0.0,0.0,0.0,0.0,0.0,0.0,0.0,0.0,0.0,0.0,0.0,0.0,0.0,-3.6358,-3.6358,-3.6358,-3.6358,-3.6358,-3.6358,-3.6358,-3.6358,-3.6358,-3.6358,0.0,0.0,0.0,0.0,0.0,0.0,-3.6358,-3.6358,-3.6546,-3.7023,-3.7073,-3.7262,-3.7751,-3.7789,-3.7789,-3.7789,-3.7337,-3.7073,-3.7073,-3.6621,0.0,0.0,0.0,0.0,0.0,0.0,0.0,0.0,0.0,0.0,0.0,0.0,0.0,0.0,0.0,0.0,0.0,0.0,0.0,0.0,0.0,0.0,0.0,0.0,0.0,0.0,0.0,0.0,0.0,-3.0325,-3.0745,-3.075,-3.0896,-3.126,0.0,0.0,0.0,0.0,0.0,0.0,0.0,0.0,0.0,-3.3953,-3.3398,-3.3219,-3.3533,-3.3533,-3.3822,-3.4361,-3.4675,-3.4951,-3.5203,-3.5755,-3.6006,-3.6019,-3.6257,-3.6219,-3.6031,-3.6257,-3.6358,-3.6358,0.0,0.0,0.0,0.0,-3.6358,-3.6358,-3.6358,-3.6358,-3.6358,-3.6358,0.0,0.0,0.0,0.0,0.0,0.0,0.0,-3.6358,-3.6358,-3.6358,-3.6358,-3.6358,-3.6358,-3.6358,-3.6358,-3.6358,-3.6358,-3.6358,-3.6358,-3.6358,-3.6358,-3.6358,0.0,0.0,0.0,-3.6822,-3.6822,-3.7098,-3.7374,-3.7613,-3.7651,-3.7739,-3.799,-3.8002,-3.8002,-3.8002,-3.7776,-3.7651,-3.7651,-3.7412,-3.7287,0.0,0.0,0.0,0.0,0.0,0.0,0.0,0.0,0.0,0.0,0.0,0.0,0.0,0.0,0.0,0.0,0.0,0.0,0.0,0.0,0.0,0.0,0.0,0.0,0.0,0.0,0.0,0.0,-3.0899,-3.1385,-3.1271,-3.148,-3.1813,0.0,0.0,0.0,0.0,0.0,0.0,-3.4275,-3.3797,-3.3713,-3.4275,-3.3611,-3.3483,-3.3897,-3.4035,-3.4387,-3.4939,-3.5353,-3.5617,-3.5768,-3.6182,-3.6358,-3.6358,-3.6358,-3.6358,-3.6358,-3.6358,-3.6358,-3.6358,-3.6358,-3.6358,-3.6358,-3.6358,-3.6358,-3.6358,-3.6358,-3.6358,-3.6358,-3.6358,-3.6358,-3.6358,-3.6358,0.0,0.0,0.0,0.0,-3.6358,-3.6358,-3.6358,-3.6358,-3.6358,-3.6358,-3.6358,-3.6358,-3.6358,-3.6358,-3.6358,-3.6358,-3.6358,-3.6358,-3.6471,0.0,-3.6571,-3.7048,-3.74,-3.74,-3.7751,-3.8065,-3.8216,-3.8228,-3.8291,-3.8429,-3.8429,-3.8429,-3.8429,-3.8304,-3.8228,-3.8228,-3.809,-3.8002,-3.8002,0.0,0.0,0.0,0.0,0.0,0.0,0.0,0.0,0.0,0.0,0.0,0.0,0.0,0.0,0.0,0.0,0.0,0.0,0.0,0.0,0.0,0.0,0.0,0.0,0.0,0.0,0.0,0.0,0.0,-3.2039,-3.2152,0.0,0.0,0.0,0.0,-3.3081,-3.4037,-3.4191,-3.324,-3.4108,-3.4191,-3.324,-3.3583,-3.3872,-3.3897,-3.4424,-3.4964,-3.5504,-3.5529,-3.5818,-3.632,-3.6358,-3.6358,-3.6358,-3.6358,-3.6358,-3.6358,-3.6358,-3.6358,-3.6358,-3.6358,-3.6358,-3.6358,-3.6358,-3.6358,-3.6358,-3.6358,-3.6358,-3.6358,-3.6358,-3.6358,-3.6358,-3.6358,-3.6358,0.0,0.0,-3.6358,-3.6358,-3.6358,-3.6358,-3.6358,-3.6358,-3.6358,-3.6358,-3.6358,-3.6358,-3.6358,-3.6358,-3.6358,-3.6358,-3.6358,0.0,-3.7149,-3.7149,-3.7613,-3.7965,-3.7965,-3.799,-3.8216,-3.8768,-3.8831,-3.9044,-3.9572,-3.9609,-3.9609,-3.9609,-3.912,-3.8831,-3.8831,-3.8304,-3.8002,-3.8002,-3.7977,0.0,0.0,0.0,0.0,0.0,0.0,0.0,0.0,0.0,0.0,0.0,0.0,0.0,0.0,0.0,0.0,0.0,0.0,0.0,0.0,0.0,0.0,0.0,0.0,0.0,0.0,0.0,0.0,-3.2751,-3.2811,0.0,-3.3056,-3.3081,-3.3081,-3.3081,-3.3484,-3.4108,-3.5034,-3.4178,-3.4276,-3.5608,-3.4529,-3.4236,-3.4951,-3.5152,-3.5529,-3.6069,-3.6069,-3.6169,-3.6358,-3.6358,-3.6358,-3.6358,-3.6358,-3.6358,-3.6358,-3.6358,-3.6358,-3.6358,-3.6358,-3.6358,-3.6358,-3.6358,-3.6358,-3.6358,-3.6358,-3.6358,-3.6358,-3.6358,-3.6358,-3.6358,-3.6358,-3.6358,-3.6358,-3.6358,-3.6358,-3.6358,-3.6358,-3.6358,-3.6358,-3.6358,-3.6358,-3.6358,-3.6358,-3.6358,-3.6471,-3.6822,-3.6885,-3.6885,-3.6885,-3.7349,-3.7713,-3.7713,-3.8191,-3.8567,-3.8567,-3.8868,-3.917,-3.9383,-3.9396,-3.9484,-3.9672,-3.9697,-3.9697,-3.9697,-3.9509,-3.9396,-3.9396,-3.9195,-3.9094,-3.9094,-3.8743,-3.8567,0.0,0.0,0.0,0.0,0.0,0.0,0.0,0.0,0.0,0.0,0.0,0.0,0.0,0.0,0.0,0.0,0.0,0.0,0.0,0.0,0.0,0.0,0.0,0.0,0.0,-3.2625,-3.3135,-3.3081,-3.3114,-3.3081,-3.3081,-3.3081,-3.3081,-3.3081,-3.3484,-3.4186,-3.5397,-3.4464,-3.4653,-3.6209,-3.5107,-3.4801,-3.5449,-3.573,-3.5994,-3.6358,-3.6358,-3.6358,-3.6358,-3.6358,-3.6358,-3.6358,-3.6358,-3.6358,-3.6358,-3.6358,-3.6358,-3.6358,-3.6358,-3.6358,-3.6358,-3.6358,-3.6358,-3.6358,-3.6358,-3.6358,-3.6358,-3.6358,-3.6358,-3.6358,-3.6358,-3.6358,-3.6358,-3.6358,-3.6358,-3.6358,-3.6358,-3.6358,-3.6358,-3.6358,-3.6358,-3.6408,-3.6596,-3.6634,-3.681,-3.7362,-3.7312,-3.7249,-3.7425,-3.7927,-3.8304,-3.8304,-3.8781,-3.9145,-3.9145,-3.9471,-3.9697,-3.9697,-3.9697,-3.9697,-3.9697,-3.9697,-3.9697,-3.9697,-3.9697,-3.9697,-3.9697,-3.9697,-3.9697,-3.9697,-3.9333,-3.9057,-3.8868,0.0,0.0,0.0,0.0,0.0,0.0,0.0,0.0,0.0,0.0,0.0,0.0,0.0,0.0,0.0,0.0,0.0,0.0,0.0,0.0,0.0,0.0,0.0,-3.3084,-3.3097,-3.3056,-3.3129,-3.3081,-3.3081,-3.3081,-3.3081,-3.3081,-3.3081,-3.405,-3.4451,-3.3947,-3.4891,-3.5249,-3.4816,-3.5265,-3.5554,-3.5567,-3.6094,-3.6358,-3.6358,-3.6358,-3.6358,-3.6358,-3.6358,-3.6358,-3.6358,-3.6358,-3.6358,-3.6358,-3.6358,-3.6358,-3.6358,-3.6358,-3.6358,-3.6358,-3.6358,-3.6358,-3.6358,-3.6358,-3.6358,-3.6358,-3.6358,-3.6358,-3.6358,-3.6358,-3.6358,-3.6358,-3.6358,-3.6358,-3.6358,-3.6358,-3.6358,-3.637,-3.6383,-3.6383,-3.6533,-3.7098,-3.7211,-3.7374,-3.7927,-3.76,-3.7412,-3.7939,-3.8517,-3.8894,-3.8894,-3.9346,0.0,-3.9697,-3.9697,-3.9697,-3.9697,-3.9697,-3.9697,-3.9697,-3.9697,-3.9697,-3.9697,-3.9697,-3.9697,-3.9697,-3.9697,-3.9697,-3.9697,-3.9697,-3.9433,-3.8894,0.0,0.0,0.0,0.0,0.0,0.0,0.0,0.0,0.0,0.0,0.0,0.0,0.0,0.0,0.0,0.0,0.0,0.0,0.0,0.0,0.0,-3.2933,-3.2962,-3.2546,-3.2849,-3.3054,-3.3068,-3.3081,-3.3081,-3.3081,-3.3081,-3.3081,-3.3081,-3.3779,-3.4392,-3.5037,-3.493,-3.5417,-3.6404,-3.5808,-3.573,-3.6132,-3.6282,-3.6358,-3.6358,-3.6358,-3.6358,-3.6358,-3.6358,-3.6358,-3.6358,-3.6358,-3.6358,-3.6358,-3.6358,-3.6358,-3.6358,-3.6358,-3.6358,-3.6358,-3.6358,-3.6358,-3.6358,-3.6358,-3.6358,-3.6358,-3.6358,-3.6358,-3.6358,-3.6358,-3.6358,-3.6358,-3.6358,-3.6358,-3.6358,-3.6358,-3.6358,-3.6458,-3.686,-3.696,-3.7111,-3.7663,-3.7789,-3.7952,-3.8517,-3.8517,-3.8454,-3.8605,-3.9094,-3.9471,-3.9471,-3.9597,-3.9697,-3.9697,-3.9697,-3.9697,-3.9697,-3.9697,-3.9697,-3.9697,-3.9697,-3.9697,-3.9697,-3.9697,-3.9697,-3.9697,-3.9697,-3.9697,-3.9697,-3.9697,-3.9622,0.0,0.0,0.0,0.0,0.0,0.0,0.0,0.0,0.0,0.0,0.0,0.0,0.0,0.0,0.0,0.0,0.0,0.0,0.0,0.0,0.0,0.0,-3.3126,-3.2955,-3.2616,-3.2867,-3.3081,-3.3081,-3.3081,-3.3081,-3.3081,-3.3081,-3.3169,-3.3407,-3.3721,-3.435,-3.5476,-3.5225,-3.5578,-3.6728,-3.6227,-3.6044,-3.6358,-3.6358,-3.6358,-3.6358,-3.6358,-3.6358,-3.6358,-3.6358,-3.6358,-3.6358,-3.6358,-3.6358,-3.6358,-3.6358,-3.6358,-3.6358,0.0,0.0,0.0,0.0,-3.6358,-3.6358,-3.6358,-3.6358,-3.6358,-3.6358,-3.6358,-3.6358,-3.6358,-3.6358,-3.6358,-3.6358,-3.6358,-3.6358,-3.6358,-3.6533,-3.6784,-3.7111,-3.7362,-3.7676,-3.8241,-3.8366,-3.8542,-3.9107,-3.922,0.0,-3.922,-3.9484,-3.9697,-3.9697,-3.9697,-3.9697,-3.9697,-3.9697,-3.9697,-3.9697,-3.9697,-3.9697,-3.9697,-3.9697,0.0,0.0,0.0,-3.9697,-3.9697,-3.9697,0.0,0.0,0.0,-3.9697,-3.9697,-3.9697,0.0,0.0,-3.9624,-3.9599,0.0,0.0,0.0,0.0,0.0,0.0,0.0,0.0,0.0,0.0,0.0,0.0,0.0,0.0,0.0,0.0,-3.3081,-3.3081,-3.3081,-3.3081,-3.3081,-3.3081,-3.3081,-3.3106,-3.3169,-3.3169,-3.3395,-3.3947,-3.4048,-3.4512,-3.5491,-3.5604,0.0,0.0,0.0,-3.6358,-3.6358,-3.6358,-3.6358,-3.6358,-3.6358,-3.6358,-3.6358,-3.6358,-3.6358,-3.6358,-3.6358,-3.6358,-3.6358,-3.6358,-3.6358,-3.6358,-3.6358,-3.6358,-3.6358,-3.6358,-3.6358,-3.6358,-3.6358,0.0,0.0,-3.6358,-3.6358,-3.6358,-3.6358,-3.6358,-3.6358,-3.6358,-3.6408,-3.6458,-3.6458,-3.686,-3.7299,-3.7362,-3.7751,-3.8266,-3.8843,-3.8956,-3.9107,-3.9597,-3.9697,-3.9697,-3.9697,-3.9697,-3.9697,-3.9697,-3.9697,-3.9697,-3.9697,-3.9697,-3.9697,-3.9697,-3.9697,0.0,-3.9697,-3.9697,-3.9697,-3.9697,-3.9697,-3.9697,-3.9697,-3.9697,-3.9697,-3.9697,-3.9697,-3.9697,-3.9697,-3.9697,-3.9697,-3.9697,-4.0844,-4.0743,0.0,0.0,0.0,0.0,0.0,0.0,0.0,0.0,0.0,0.0,0.0,0.0,0.0,0.0,0.0,-3.3068,-3.3081,-3.3081,-3.3081,-3.3081,-3.3081,-3.3081,-3.3081,-3.3257,-3.3696,-3.3746,-3.3972,-3.4525,-3.4977,-3.5316,-3.5449,-3.5968,-3.6257,-3.6358,-3.6358,-3.6358,-3.6358,-3.6358,-3.6358,-3.6358,-3.6358,0.0,-3.6358,-3.6358,-3.6358,-3.6358,-3.6358,-3.6358,-3.6358,-3.6358,-3.6358,-3.6358,-3.6358,-3.6358,-3.6358,-3.6358,-3.6358,-3.6358,-3.6358,-3.6358,-3.6358,-3.6358,-3.6358,-3.6358,-3.6358,-3.6358,0.0,-3.6358,-3.6684,-3.7023,-3.7023,-3.7425,-3.7965,-3.8429,-3.863,-3.8856,-3.9421,-3.9534,-3.9572,-3.9672,-3.9697,-3.9697,-3.9697,-3.9697,-3.9697,-3.9697,-3.9697,-3.9697,-3.9697,-3.9697,-3.9697,-3.9697,-3.9697,-3.9697,-3.9697,-3.9697,-3.9697,-3.9697,-3.9697,-3.9697,-3.9697,-3.9697,-3.9697,-3.9697,-3.9697,-3.9697,-3.9697,-3.9697,-3.9697,-3.9697,-3.9981,-3.9981,0.0,0.0,0.0,0.0,0.0,0.0,0.0,0.0,0.0,0.0,0.0,-3.3136,-3.3129,0.0,-3.3081,-3.3081,-3.3081,-3.3081,-3.3081,-3.3081,-3.3081,-3.3081,-3.3319,-3.3596,-3.3872,-3.4148,-3.4537,-3.509,-3.5391,-3.5667,-3.5931,-3.6219,-3.6358,-3.6358,-3.6358,-3.6358,-3.6358,-3.6358,-3.6358,-3.6358,-3.6358,-3.6358,-3.6358,-3.6358,-3.6358,-3.6358,-3.6358,-3.6358,-3.6358,-3.6358,-3.6358,-3.6358,-3.6358,-3.6358,-3.6358,-3.6358,-3.6358,-3.6358,-3.6358,-3.6358,-3.6358,-3.6358,-3.6358,-3.6358,-3.6358,-3.6558,-3.6772,-3.6772,-3.7174,-3.76,-3.76,-3.8015,-3.8517,-3.8806,-3.9082,-3.9358,-3.9634,-3.9697,-3.9697,-3.9697,-3.9697,-3.9697,-3.9697,-3.9697,-3.9697,-3.9697,-3.9697,-3.9697,-3.9697,-3.9697,-3.9697,-3.9697,-3.9936,-4.0111,-4.0111,-4.0362,-4.0513,-4.0513,-4.0513,-4.0513,-4.0513,-4.0513,-4.0513,-4.0513,-4.0513,-4.0513,-4.0513,-4.0513,-4.0513,-4.0513,-4.1195,-4.1441,0.0,0.0,0.0,0.0,0.0,0.0,0.0,-3.3102,-3.3094,-3.3104,-3.3081,-3.3081,-3.3081,-3.3081,-3.3081,-3.3081,-3.3081,-3.3081,-3.3081,-3.3169,-3.3232,-3.3232,-3.3633,-3.3985,-3.4198,-3.4625,-3.5115,-3.5667,-3.5705,-3.5893,-3.6332,-3.6358,-3.6358,-3.6358,-3.6358,-3.6358,-3.6358,-3.6358,-3.6358,-3.6358,-3.6358,-3.6358,-3.6358,-3.6358,-3.6358,-3.6358,-3.6358,-3.6358,-3.6358,-3.6358,-3.6358,-3.6358,-3.6358,-3.6358,-3.6358,-3.6358,-3.6358,-3.6358,-3.6358,-3.6358,-3.6358,-3.6358,-3.6433,-3.6521,-3.6521,-3.691,-3.7349,-3.7349,-3.7751,-3.8165,-3.8165,-3.8592,-3.9032,-3.9032,-3.9371,-3.9697,-3.9697,-3.9697,-3.9697,-3.9697,-3.9697,-3.9697,-3.9697,-3.9697,-3.9697,-3.9697,-3.9697,-3.9697,-3.9697,-3.9785,-3.9848,-3.9848,-4.035,-4.0676,-4.0676,-4.1078,-4.1342,-4.1342,-4.1342,-4.1342,-4.1342,-4.1342,-4.1342,-4.1342,-4.1342,-4.1342,-4.1342,-4.1342,-4.1342,-4.1342,-4.2435,-4.2876,-2.7424,-2.9462,-3.1499,-3.2453,-3.2873,-3.3122,0.0,-3.3104,-3.3116,-3.3068,-3.3081,-3.3081,-3.3081,-3.3081,-3.3081,-3.3081,-3.3081,-3.3081,-3.3081,-3.3495,-3.3809,-3.3809,-3.3859,-3.4286,-3.5265,-3.5416,-3.568,-3.6219,-3.627,-3.6295,-3.6358,-3.6358,-3.6358,-3.6358,-3.6358,-3.6358,-3.6358,-3.6358,-3.6358,-3.6358,-3.6358,-3.6358,-3.6358,-3.6358,-3.6358,-3.6358,-3.6358,-3.6358,-3.6358,-3.6358,-3.6358,-3.6358,-3.6358,-3.6358,-3.6358,-3.6358,-3.6358,-3.6358,-3.6358,-3.6358,-3.6358,-3.6358,-3.6684,-3.7098,-3.7098,-3.7475,-3.7914,-3.7914,-3.8329,-3.8781,-3.8781,-3.9182,-3.9597,-3.9597,-3.9647,-3.9697,-3.9697,-3.9697,-3.9697,-3.9697,-3.9697,-3.9697,-3.9697,-3.9697,-3.9697,-3.9697,-3.9697,-3.9697,-3.9697,-4.0124,-4.0425,-4.0425,-4.0915,-4.1254,-4.1254,-4.1304,-4.1342,-4.1342,-4.1342,-4.1342,-4.1342,-4.1342,-4.1342,-4.1342,-4.1342,-4.1342,-4.1342,-4.1342,-4.1342,-4.1342,-4.1436,-4.2198,-2.772,-2.8745,-3.0097,-3.2506,-3.3123,-3.3076,-3.3129,-3.3081,-3.3081,-3.3081,-3.3081,-3.3081,-3.3081,-3.3081,-3.3081,-3.3081,-3.3345,-3.3558,-3.3558,-3.4035,-3.45,-3.4813,-3.4851,-3.5039,-3.5504,-3.583,-3.6119,-3.6345,-3.6358,-3.6358,-3.6358,-3.6358,-3.6358,-3.6358,-3.6358,-3.6358,-3.6358,-3.6358,-3.6358,-3.6358,-3.6358,-3.6358,-3.6358,-3.6358,-3.6358,-3.6358,-3.6358,-3.6358,-3.6358,-3.6358,-3.6358,-3.6358,-3.6358,-3.6358,-3.6358,-3.6358,-3.6358,-3.6358,-3.6358,-3.6358,-3.6408,-3.6734,-3.6998,-3.7249,-3.7563,-3.8065,-3.8504,-3.8504,-3.8919,-3.9346,-3.9346,-3.9521,-3.9697,-3.9697,-3.9697,-3.9697,-3.9697,-3.9697,-3.9697,-3.9697,-3.9697,-3.9697,-3.9697,-3.9697,-3.9798,-4.0124,-4.0174,-4.0174,-4.0174,-4.0651,-4.1116,-4.1442,-4.1681,-4.1944,-4.2258,-4.2296,-4.2296,-4.2296,-4.2296,-4.2296,-4.2296,-4.2296,-4.2296,-4.2296,-4.2296,-4.2296,-4.2296,-4.2296,-4.2296,-4.2296,-4.3105,-4.423,-2.7436,-2.8464,-3.0052,-3.2487,-3.3082,-3.3133,-3.3106,-3.3082,-3.3133,-3.3106,-3.3081,-3.3081,-3.3081,-3.3081,-3.3131,-3.3282,-3.3633,-3.3947,-3.411,-3.46,-3.5102,-3.5491,-3.568,-3.5768,-3.5768,-3.6119,-3.6358,-3.6358,-3.6358,-3.6358,-3.6358,-3.6358,-3.6358,-3.6358,-3.6358,-3.6358,-3.6358,-3.6358,-3.6358,-3.6358,-3.6358,-3.6358,-3.6358,-3.6358,-3.6358,-3.6358,-3.6358,-3.6358,-3.6358,-3.6358,-3.6358,-3.6358,-3.6358,-3.6358,-3.6358,-3.6358,-3.6358,-3.6383,-3.6533,-3.6584,-3.6684,-3.7236,-3.7513,-3.7726,-3.8128,-3.8642,-3.9094,-3.9094,-3.9383,-3.9697,-3.9697,-3.9697,-3.9697,-3.9697,-3.9697,-3.9697,-3.9697,-3.9697,-3.9697,-3.9697,-3.9697,-3.9697,-3.9697,-3.9823,-4.0061,-4.0463,-4.0777,-4.0915,-4.0764,-4.1229,-4.1781,-4.2321,-4.2384,-4.2547,-4.2949,-4.2974,-4.2974,-4.2974,-4.2974,-4.2974,-4.2974,-4.2974,-4.2974,-4.2974,-4.2974,-4.2974,-4.2974,-4.2974,-4.2974,-4.2974,-4.4016,-4.5356,-2.6654,-2.9247,-3.2945,-3.3068,-3.3134,-3.3069,-3.3082,-3.3134,-3.3144,-3.307,-3.3081,-3.3081,-3.3081,-3.3081,-3.3257,-3.3784,-3.3884,-3.4085,-3.4625,-3.5177,-3.5437,-3.5542,-3.6019,-3.6332,-3.6332,-3.6358,-3.6358,-3.6358,-3.6358,-3.6358,-3.6358,-3.6358,-3.6358,-3.6358,-3.6358,-3.6358,-3.6358,-3.6358,-3.6358,-3.6358,-3.6358,-3.6358,-3.6358,-3.6358,-3.6358,-3.6358,-3.6358,-3.6358,-3.6358,-3.6358,-3.6358,-3.6358,-3.6358,-3.6358,-3.6358,-3.6358,-3.6358,-3.6433,-3.6973,-3.7161,-3.7249,-3.7801,-3.8366,-3.8818,-3.8843,-3.9233,-3.9672,-3.9672,-3.9685,-3.9697,-3.9697,-3.9697,-3.9697,-3.9697,-3.9697,-3.9697,-3.9697,-3.9697,-3.9697,-3.9697,-3.9697,-3.9697,-3.9697,-4.0136,-4.0501,-4.0513,-4.1417,-4.1919,-4.1379,-4.1794,-4.2346,-4.2898,-4.2949,-4.2961,-4.2974,-4.2974,-4.2974,-4.2974,-4.2974,-4.2974,-4.2974,-4.2974,-4.2974,-4.2974,-4.2974,-4.2974,-4.2974,-4.2974,-4.2974,-4.2974,-4.3085,-4.4535,-3.0944,-3.1855,-3.3057,-3.3083,-3.3134,-3.3083,-3.3106,-3.3107,-3.3071,-3.3106,-3.3081,-3.3081,-3.3081,-3.337,-3.3684,-3.3872,-3.4512,-3.5052,-3.524,-3.5742,-3.6094,-3.6094,-3.6257,-3.6358,-3.6358,-3.6358,-3.6358,-3.6358,-3.6358,-3.6358,-3.6358,-3.6358,-3.6358,-3.6358,-3.6358,-3.6358,-3.6358,-3.6358,-3.6358,-3.6358,-3.6358,-3.6358,-3.6358,-3.6358,-3.6358,-3.6358,-3.6358,-3.6358,-3.6358,-3.6358,-3.6358,-3.6358,-3.6358,-3.6358,-3.6408,-3.6772,-3.691,-3.6935,-3.7123,-3.7425,-3.7826,-3.8391,-3.8718,-3.8944,-3.9308,-3.9546,-3.9697,-3.9697,-3.9697,-3.9697,-3.9697,-3.9697,-3.9697,-3.9697,-3.9697,-3.9697,-3.9697,-3.9697,-3.9697,-3.9697,-3.9986,-4.0237,-4.0237,-4.0701,-4.1191,-4.1555,-4.1919,-4.2221,-4.2409,-4.2585,-4.2773,-4.2961,-4.2974,-4.2974,-4.2974,-4.2974,-4.2974,-4.2974,-4.2974,-4.2974,-4.2974,-4.2974,-4.2974,-4.2974,-4.2974,-4.2974,-4.2974,-4.2974,-4.2974,-4.2974,-4.2974,-4.4427,-3.3125,-3.1829,-3.0479,-3.0481,-3.1817,-3.3058,-3.3084,-3.3133,-3.3096,-3.3106,-3.3081,-3.3131,-3.3332,-3.3658,-3.4035,-3.4424,-3.509,-3.5617,-3.5805,-3.6144,-3.6358,-3.6358,-3.6358,-3.6358,-3.6358,-3.6358,-3.6358,-3.6358,-3.6358,-3.6358,-3.6358,-3.6358,-3.6358,-3.6358,-3.6358,-3.6358,-3.6358,-3.6358,-3.6358,-3.6358,-3.6358,-3.6358,-3.6358,-3.6358,-3.6358,-3.6358,-3.6358,-3.6358,-3.6358,-3.6358,-3.6358,-3.6358,-3.6358,-3.6483,-3.6697,-3.7048,-3.7437,-3.7789,-3.7789,-3.8015,-3.8417,-3.8981,-3.917,-3.9233,-3.9584,-3.9697,-3.9697,-3.9697,-3.9697,-3.9697,-3.9697,-3.9697,-3.9697,-3.9697,-3.9697,-3.9697,-3.9697,-3.9697,-3.9747,-3.9948,-4.0275,-4.0576,-4.0777,-4.1266,-4.1819,-4.2371,-4.2446,-4.2572,-4.2936,-4.2974,-4.2974,-4.2974,-4.2974,-4.2974,-4.2974,-4.2974,-4.2974,-4.2974,-4.2974,-4.2974,-4.2974,-4.2974,-4.2974,-4.2974,-4.2974,-4.2974,-4.2974,-4.2974,-4.2974,-4.2974,-4.2974,-4.4427,-3.2695,-2.9271,-2.5717,-2.5992,-2.9624,-3.312,-3.2975,-3.3067,-3.3044,-3.2983,-3.3068,-3.3244,-3.3796,-3.3922,-3.4299,-3.5366,-3.5567,-3.5768,-3.6282,-3.6358,-3.6358,-3.6358,-3.6358,-3.6358,-3.6358,-3.6358,-3.6358,-3.6358,-3.6358,-3.6358,-3.6358,-3.6358,-3.6358,-3.6358,-3.6358,-3.6358,-3.6358,-3.6358,-3.6358,-3.6358,-3.6358,-3.6358,-3.6358,-3.6358,-3.6358,-3.6358,-3.6358,-3.6358,-3.6263,-3.6358,-3.6358,-3.6263,-3.6395,-3.6722,-3.7199,-3.7249,-3.7952,-3.8868,-3.8906,-3.8906,-3.8994,-3.9521,-3.9697,-3.9697,-3.9697,-3.9697,-3.9697,-3.9697,-3.9697,-3.9697,-3.9697,-3.9697,-3.9697,-3.9697,-3.9697,-3.9697,-3.9697,-3.9722,-3.9885,-4.0413,-4.0563,-4.0777,-4.1329,-4.1856,-4.2371,-4.2898,-4.2974,-4.2974,-4.2974,-4.2974,-4.2974,-4.2974,-4.2974,-4.2974,-4.2974,-4.2974,-4.2974,-4.2974,-4.2974,-4.2974,-4.2974,-4.2974,-4.2974,-4.2974,-4.2974,-4.2974,-4.2974,-4.2974,-4.2974,-4.2974,-4.2974,-4.4427,-2.7607,-2.6647,-2.661,-3.0274,-3.2183,-3.2797,-3.156,-3.2237,-3.2847,-3.1889,-3.2426,-3.3244,-3.3796,-3.4236,-3.4738,-3.5429,-3.5893,-3.6194,-3.6345,-3.6358,-3.6358,-3.6358,-3.6358,-3.6358,-3.6358,-3.6358,-3.6358,-3.6358,-3.6358,-3.6358,-3.6358,-3.6358,-3.6358,-3.6358,-3.6358,-3.6358,-3.6358,-3.6358,-3.6358,-3.6358,-3.6358,-3.6358,-3.6358,-3.6358,-3.6358,-3.6358,-3.6358,-3.587,-3.4981,-3.5966,-3.5763,-3.5017,-3.6413,-3.7061,-3.7287,-3.8128,-3.863,-3.8931,-3.9346,-3.9484,-3.9509,-3.9647,-3.9697,-3.9697,-3.9697,-3.9697,-3.9697,-3.9697,-3.9697,-3.9697,-3.9697,-3.9697,-3.9697,-3.9697,-3.9697,-3.9697,-3.9697,-4.0011,-4.035,-4.0488,-4.1178,-4.1919,-4.2459,-4.2672,-4.2811,-4.2949,-4.2974,-4.2974,-4.2974,-4.2974,-4.2974,-4.2974,-4.2974,-4.2974,-4.2974,-4.2974,-4.2974,-4.2974,-4.2974,-4.2974,-4.2974,-4.2974,-4.2974,-4.2974,-4.2974,-4.2974,-4.2974,-4.2974,-4.2974,-4.2974,-4.2974,-4.4427,-2.5704,-2.5684,-2.6331,-2.9157,-3.0308,-3.0586,-3.0134,-3.1175,-3.2239,-3.2052,-3.2798,-3.3608,-3.4161,-3.4713,-3.5265,-3.5818,-3.6157,-3.6358,-3.6358,-3.6358,-3.6358,-3.6358,-3.6358,-3.6358,-3.6358,-3.6358,-3.6358,-3.6358,-3.6358,-3.6358,-3.6358,-3.6358,-3.6358,-3.6358,-3.6358,-3.6358,-3.6358,-3.6358,-3.6358,-3.6358,-3.6358,-3.6358,-3.6358,-3.5763,-3.5571,-3.5463,-3.4848,-3.4142,-3.3563,-3.4252,-3.4284,-3.3923,-3.5634,-3.6542,-3.7145,-3.8416,-3.9032,-3.927,-3.9584,-3.9697,-3.9697,-3.9697,-3.9697,-3.9697,-3.9697,-3.9697,-3.9697,-3.9697,-3.9697,-3.9697,-3.9697,-3.9697,-3.9697,-3.9697,-3.9697,-3.976,-4.0011,-4.03,-4.0664,-4.1141,-4.1932,-4.2622,-4.2924,-4.2974,-4.2974,-4.2974,-4.2974,-4.2974,-4.2974,-4.2974,-4.2974,-4.2974,-4.2974,-4.2974,-4.2974,-4.2974,-4.2974,-4.2974,-4.2974,-4.2974,-4.2974,-4.2974,-4.2974,-4.2974,-4.2974,-4.2974,-4.2974,-4.2974,-4.3099,-4.3338,-4.3338,-4.4616,-2.5741,-2.5703,-2.5771,-2.6024,-2.703,-2.8204,-2.9223,-3.0496,-3.1701,-3.2798,-3.3471,-3.4085,-3.4713,-3.5228,-3.573,-3.627,-3.6358,-3.6358,-3.6358,-3.6358,-3.6358,-3.6358,-3.6358,-3.6358,-3.6358,-3.6358,-3.6358,-3.6358,-3.6358,-3.6358,-3.6358,-3.6358,-3.6358,-3.6358,-3.6358,-3.6358,-3.6358,-3.6358,-3.6358,-3.6358,-3.6358,-3.6358,-3.6358,-3.4981,-3.4385,-3.4288,-3.2944,-3.223,-3.2028,-3.223,-3.243,-3.2886,-3.4579,-3.5926,-3.6912,-3.841,-3.9283,-3.9697,-3.9697,-3.9697,-3.9697,-3.9697,-3.9697,-3.9697,-3.9697,-3.9697,-3.9697,-3.9697,-3.9697,-3.9697,-3.9697,-3.9697,-3.9697,-3.9697,-3.9747,-3.9936,-4.0413,-4.0626,-4.104,-4.207,-4.2647,-4.2974,-4.2974,-4.2974,-4.2974,-4.2974,-4.2974,-4.2974,-4.2974,-4.2974,-4.2974,-4.2974,-4.2974,-4.2974,-4.2974,-4.2974,-4.2974,-4.2974,-4.2974,-4.2974,-4.2974,-4.3049,-4.3087,-4.3087,-4.3162,-4.32,-4.32,-4.32,-4.3438,-4.3915,-4.3915,-4.4914,-2.5723,-2.57,-2.6029,-2.7452,-2.8947,-2.9986,-2.9465,-3.1146,-3.2649,-3.2357,-3.3177,-3.4211,-3.5215,-3.5479,-3.573,-3.627,-3.6358,-3.6358,-3.6358,-3.6358,-3.6358,-3.6358,-3.6358,-3.6358,-3.6358,-3.6358,-3.6358,-3.6358,-3.6358,-3.6358,-3.6358,-3.6358,-3.6358,-3.6358,-3.6358,-3.6358,-3.6358,-3.6358,-3.6358,-3.6358,-3.6358,-3.6358,-3.6358,-3.4981,-3.4385,-3.4288,-3.2944,-3.1622,-3.0721,-3.1825,-3.1918,-3.1677,-3.4657,-3.6236,-3.696,-3.8832,-3.9609,-3.9697,-3.9697,-3.9697,-3.9697,-3.9697,-3.9697,-3.9697,-3.9697,-3.9697,-3.9697,-3.9697,-3.9697,-3.9697,-3.9697,-3.9697,-3.9697,-3.9697,-4.0036,-4.04,-4.0488,-4.1229,-4.2057,-4.271,-4.2911,-4.2974,-4.2974,-4.2974,-4.2974,-4.2974,-4.2974,-4.2974,-4.2974,-4.2974,-4.2974,-4.2974,-4.2974,-4.2974,-4.2974,-4.2974,-4.2974,-4.2974,-4.2974,-4.2974,-4.2974,-4.3413,-4.3664,-4.3664,-4.4104,-4.433,-4.433,-4.433,-4.438,-4.448,-4.448,-4.5285,-2.5742,-2.5702,-2.5902,-2.6688,-2.7484,-2.8315,-2.9201,-3.0316,-3.1567,-3.2759,-3.3754,-3.4575,-3.5391,-3.578,-3.6056,-3.632,-3.6358,-3.6358,-3.6358,-3.6358,-3.6358,-3.6358,-3.6358,-3.6358,-3.6358,-3.6358,-3.6358,-3.6358,-3.6358,-3.6358,-3.6358,-3.6358,-3.6358,-3.6358,-3.6358,-3.6358,-3.6358,-3.6358,-3.6358,-3.6358,-3.6358,-3.6358,-3.6358,-3.4252,-3.3353,-3.3155,-3.1133,-2.9807,-2.9323,-3.016,-3.0841,-3.1624,-3.4306,-3.5981,-3.7343,-3.9042,-3.9697,-3.9697,-3.9697,-3.9697,-3.9581,-3.8804,-3.9025,-3.9697,-3.9697,-3.9697,-3.9697,-3.9697,-3.9697,-3.9697,-3.9697,-3.9697,-3.9772,-4.0061,-4.0764,-4.1367,-4.1367,-4.2007,-4.266,-4.2924,-4.2974,-4.2974,-4.2974,-4.2974,-4.2974,-4.2974,-4.2974,-4.2974,-4.2974,-4.2974,-4.2974,-4.2974,-4.2974,-4.2974,-4.2974,-4.2974,-4.2974,-4.2974,-4.325,-4.3413,-4.3413,-4.3928,-4.4229,-4.4229,-4.4493,-4.4618,-4.4618,-4.4618,-4.4782,-4.507,-4.507,-4.5547,-2.5742,-2.5742,-2.5742,-2.5742,-2.5927,-2.6658,-2.8855,-2.9669,-3.0719,-3.3491,-3.4512,-3.5064,-3.5617,-3.6069,-3.6358,-3.6358,-3.6358,-3.6358,-3.6358,-3.6358,-3.6358,-3.6358,-3.6358,-3.6358,-3.6358,-3.6358,-3.6358,-3.6358,-3.6358,-3.6358,-3.6358,-3.6358,-3.6358,-3.6358,-3.6358,-3.6358,-3.6358,-3.6358,-3.6358,-3.6358,-3.6061,-3.5966,-3.587,-3.3132,-3.1825,-3.1724,-2.9303,-2.8291,-2.832,-2.9055,-3.0333,-3.207,-3.424,-3.6036,-3.769,-3.9141,-3.9697,-3.9697,-3.9697,-3.9465,-3.9129,-3.8243,-3.857,-3.9245,-3.9245,-3.9245,-3.9245,-3.9581,-3.9697,-3.9697,-3.9697,-3.9785,-4.0036,-4.0714,-4.153,-4.2183,-4.2308,-4.2672,-4.2974,-4.2974,-4.2974,-4.2974,-4.2974,-4.2974,-4.2974,-4.2974,-4.2974,-4.2974,-4.2974,-4.2974,-4.2974,-4.2974,-4.2974,-4.2974,-4.2974,-4.3087,-4.315,-4.315,-4.3664,-4.3978,-4.3978,-4.4518,-4.4807,-4.4807,-4.4932,-4.4982,-4.4982,-4.4982,-4.5221,-4.566,-4.566,-4.5899,-2.5742,-2.5742,-2.5742,-2.5742,-2.6572,-2.7767,-2.9131,-3.0686,-3.2388,-3.4255,-3.509,-3.5629,-3.6182,-3.632,-3.6358,-3.6358,-3.6358,-3.6358,-3.6358,-3.6358,-3.6358,-3.6358,-3.6358,-3.6358,-3.6358,-3.6358,-3.6358,-3.6358,-3.6358,-3.6358,-3.6358,-3.6358,-3.6358,-3.6358,-3.6358,-3.6358,-3.6358,-3.6358,-3.6358,-3.6358,-3.5174,-3.4581,-3.4483,-3.1735,-3.0514,-3.0421,-2.89,-2.8291,-2.8427,-3.0196,-3.1283,-3.207,-3.5292,-3.7001,-3.769,-3.9141,-3.9697,-3.9697,-3.9697,-3.8804,-3.7914,-3.9129,-3.8687,-3.769,-3.769,-3.769,-3.8019,-3.9362,-3.9697,-3.9697,-3.9697,-4.0061,-4.0701,-4.1756,-4.2082,-4.2296,-4.2798,-4.2949,-4.2974,-4.2974,-4.2974,-4.2974,-4.2974,-4.2974,-4.2974,-4.2974,-4.2974,-4.2974,-4.2974,-4.2974,-4.2974,-4.2974,-4.2974,-4.2974,-4.2974,-4.3438,-4.3727,-4.3727,-4.4242,-4.4556,-4.4556,-4.5095,-4.5409,-4.5409,-4.5899,-4.615,-4.615,-4.615,-4.6188,-4.6238,-4.6238,-4.6263,-2.5742,-2.5742,-2.5742,-2.5742,-2.6658,-2.7955,-2.9131,-3.0812,-3.2551,-3.4329,-3.5165,-3.5705,-3.6257,-3.6358,-3.6358,-3.6358,-3.6358,-3.6358,-3.6358,-3.6358,-3.6358,-3.6358,-3.6358,-3.6358,-3.6358,-3.6358,-3.6358,-3.6358,-3.6358,-3.6358,-3.6358,-3.6358,-3.6358,-3.6358,-3.6358,-3.6358,-3.6358,-3.6358,-3.6358,-3.6358,-3.5078,-3.4385,-3.4288,-3.1531,-3.0317,-3.0214,-2.89,-2.8291,-2.8447,-3.0601,-3.2159,-3.3453,-3.6168,-3.7392,-3.769,-3.9141,-3.9129,-3.8465,-3.9362,-3.9362,-3.8792,-3.8465,-3.8019,-3.769,-3.857,-3.8804,-3.8908,-3.9569,-3.9697,-3.9772,-4.0111,-4.084,-4.1618,-4.2045,-4.2409,-4.271,-4.2924,-4.2974,-4.2974,-4.2974,-4.2974,-4.2974,-4.2974,-4.2974,-4.2974,-4.2974,-4.2974,-4.2974,-4.2974,-4.2974,-4.2974,-4.2974,-4.2974,-4.3112,-4.3438,-4.3677,-4.394,-4.4279,-4.4832,-4.5146,-4.5146,-4.5686,-4.5987,-4.5987,-4.62,-4.6313,-4.6313,-4.6313,-4.6313,-4.6313,-4.6313,-4.6313,-2.6294,-2.6014,-2.5742,-2.5742,-2.6658,-2.7955,-2.9131,-3.0927,-3.2743,-3.4354,-3.529,-3.5906,-3.6282,-3.6358,-3.6358,-3.6358,-3.6358,-3.6358,-3.6358,-3.6358,-3.6358,-3.6358,-3.6358,-3.6358,-3.6358,-3.6358,-3.6358,-3.6358,-3.6358,-3.6358,-3.6358,-3.6358,-3.6358,-3.6358,-3.6358,-3.6358,-3.6358,-3.6358,-3.6358,-3.6358,-3.4666,-3.3773,-3.3674,-3.0927,-2.9713,-2.9713,-2.9102,-2.898,-2.9363,-3.1998,-3.3771,-3.505,-3.6791,-3.7796,-3.8243,-3.8804,-3.836,-3.769,-3.9141,-3.9141,-3.8372,-3.8243,-3.7914,-3.7796,-3.9245,-3.9362,-3.9129,-3.9581,-3.981,-4.0099,-4.0814,-4.158,-4.2195,-4.2359,-4.2698,-4.2974,-4.2974,-4.2974,-4.2974,-4.2974,-4.2974,-4.2974,-4.2974,-4.2974,-4.2974,-4.2974,-4.2974,-4.2974,-4.2974,-4.2974,-4.3037,-4.32,-4.3225,-4.3376,-4.3765,-4.4104,-4.4468,-4.4857,-4.5409,-4.5736,-4.5736,-4.61,-4.6313,-4.6313,-4.6313,-4.6313,-4.6313,-4.6313,-4.6313,-4.6313,-4.6313,-4.6313,-2.7589,-2.6658,-2.5742,-2.5742,-2.6658,-2.7955,-2.9131,-3.1205,-3.3281,-3.4441,-3.5592,-3.6358,-3.6358,-3.6358,-3.6358,-3.6358,-3.6358,-3.6358,-3.6358,-3.6358,-3.6358,-3.6358,-3.6358,-3.6358,-3.6358,-3.6358,-3.6358,-3.6358,-3.6358,-3.6358,-3.6358,-3.6358,-3.6358,-3.6358,-3.6358,-3.6358,-3.6358,-3.6358,-3.6358,-3.6358,-3.3639,-3.2331,-3.223,-2.9503,-2.8291,-2.8388,-2.9713,-3.058,-3.1339,-3.4635,-3.6307,-3.682,-3.7357,-3.836,-3.9465,-3.8019,-3.7465,-3.769,-3.9141,-3.782,-3.5836,-3.8699,-3.8687,-3.7796,-3.9245,-3.8687,-3.7796,-3.9245,-4.0086,-4.0752,-4.1856,-4.2145,-4.2296,-4.2836,-4.2974,-4.2974,-4.2974,-4.2974,-4.2974,-4.2974,-4.2974,-4.2974,-4.2974,-4.2974,-4.2974,-4.2974,-4.2974,-4.2974,-4.2974,-4.2974,-4.3187,-4.3727,-4.379,-4.379,-4.3802,-4.4832,-4.5472,-4.5485,-4.5999,-4.6301,-4.6301,-4.6313,-4.6313,-4.6313,-4.6313,-4.6313,-4.6313,-4.6313,-4.6313,-4.6313,-4.6313,-4.6313,-2.8866,-2.8588,-2.8215,-2.8215,-2.9131,-3.0135,-3.0586,-3.2418,-3.4247,-3.4623,-3.5592,-3.6358,-3.6358,-3.6358,-3.6358,-3.6358,-3.6358,-3.6358,-3.6358,-3.6358,-3.6358,-3.6358,-3.6358,-3.6358,-3.6358,-3.6358,-3.6358,-3.6358,-3.6358,-3.6358,-3.6358,-3.6358,-3.6358,-3.6358,-3.6358,-3.5966,-3.5078,-3.5078,-3.4569,-3.354,-3.1836,-3.0927,-3.0824,-2.9112,-2.8291,-2.8291,-2.8698,-2.9758,-3.1243,-3.369,-3.5457,-3.6936,-3.8479,-3.8687,-3.8243,-3.8804,-3.836,-3.769,-3.9141,-3.9141,-3.8477,-3.9362,-3.9362,-3.9129,-3.9581,-3.9362,-3.9203,-4.0032,-4.0915,-4.1718,-4.207,-4.2434,-4.276,-4.2936,-4.2974,-4.2974,-4.2974,-4.2974,-4.2974,-4.2974,-4.2974,-4.2974,-4.2974,-4.2974,-4.2974,-4.2974,-4.2974,-4.2974,-4.2974,-4.3313,-4.3601,-4.3777,-4.4493,-4.4957,-4.4957,-4.5284,-4.5648,-4.6024,-4.6213,-4.6313,-4.6313,-4.6313,-4.6313,-4.6313,-4.6313,-4.6313,-4.6313,-4.6313,-4.6313,-4.6313,-4.6313,-4.6313,-3.0226,-2.9772,-2.9407,-2.9407,-3.0316,-3.1223,-3.1223,-3.2983,-3.4726,-3.4726,-3.5592,-3.6358,-3.6358,-3.6358,-3.6358,-3.6358,-3.6358,-3.6358,-3.6358,-3.6358,-3.6358,-3.6358,-3.6358,-3.6358,-3.6358,-3.6358,-3.6358,-3.6358,-3.6358,-3.6358,-3.6358,-3.6358,-3.6156,-3.5667,-3.5667,-3.5271,-3.4385,-3.3871,-3.3155,-3.223,-3.0916,-3.0317,-3.0214,-2.89,-2.8291,-2.8398,-2.9408,-3.0674,0.0,-3.3989,-3.5909,-3.7886,-3.8016,-3.7808,-3.7571,-3.7926,-3.7489,-3.693,-3.836,-3.8908,-3.8908,-3.9478,-3.9697,-3.9735,-3.9936,-4.0011,-4.0124,-4.0676,-4.1467,-4.2208,-4.2409,-4.2723,-4.2974,-4.2974,-4.2974,-4.2974,-4.2974,-4.2974,-4.2974,-4.2974,-4.2974,-4.2974,-4.2974,-4.2974,-4.2974,-4.2974,-4.2974,-4.3049,-4.3263,-4.3589,-4.3966,-4.4392,-4.507,-4.5573,-4.5786,-4.5799,-4.5949,-4.6288,-4.6313,-4.6313,-4.6313,-4.6313,-4.6313,-4.6313,-4.6313,-4.6313,-4.6313,-4.6313,-4.6313,-4.6313,-4.6313,-4.6313,0.0,-3.0496,-2.9681,-2.9681,-3.0496,-3.1311,-3.1311,-3.3073,0.0,-3.4726,-3.5592,-3.6358,-3.6358,-3.6358,-3.6358,-3.6358,-3.6358,-3.6358,-3.6358,-3.6358,-3.6358,-3.6358,-3.6358,-3.6358,-3.6358,-3.6358,-3.6358,-3.6358,-3.6358,-3.6358,-3.6358,-3.6263,-3.5667,-3.4483,-3.4178,-3.408,-3.408,-3.2844,-3.2129,-3.2028,-3.0721,-3.011,-3.012,-2.9006,-2.8388,-2.8601,-3.1224,-3.2982,-3.4207,-3.5383,-3.7399,-3.9465,-3.6607,-3.6271,-3.7358,-3.5945,-3.5519,-3.5617,-3.7133,-3.769,-3.7902,-3.9245,-3.9722,-3.9848,-4.0362,-4.0538,-4.0689,-4.1241,-4.1794,-4.2333,-4.2848,-4.2974,-4.2974,-4.2974,-4.2974,-4.2974,-4.2974,-4.2974,-4.2974,-4.2974,-4.2974,-4.2974,-4.2974,-4.2974,-4.2974,-4.2974,-4.3011,-4.3225,-4.374,-4.3865,-4.433,-4.5384,-4.5522,-4.5748,-4.6276,-4.6313,-4.6313,-4.6313,-4.6313,-4.6313,-4.6313,-4.6313,-4.6313,-4.6313,-4.6313,-4.6313,-4.6313,-4.6313,-4.6313,-4.6313,-4.6313,-4.6313,-3.2698,0.0,-3.2239,-3.2239,-3.2426,-3.2612,0.0,-3.3733,-3.4726,-3.4726,-3.5592,-3.6358,-3.6358,-3.6358,-3.6358,-3.6358,-3.6358,-3.6358,-3.6358,-3.6358,-3.6358,-3.6358,-3.6358,-3.6358,-3.6358,-3.6358,-3.6358,-3.6358,-3.6358,-3.6358,-3.6358,-3.5475,-3.469,-3.4385,-3.2353,-3.1224,-3.1224,-3.0927,-3.0214,-2.9207,-2.89,-2.8804,-2.8794,-2.9513,-2.9807,-2.9911,-3.1622,-3.3503,-3.5577,-3.5793,-3.7387,-3.9478,-3.769,-3.7133,-3.7465,-3.7133,-3.7026,-3.7145,-3.8687,-3.9141,-3.9245,-3.9581,-3.9986,-4.035,-4.0475,-4.0814,-4.1254,-4.1806,-4.2359,-4.2811,-4.2949,-4.2974,-4.2974,-4.2974,-4.2974,-4.2974,-4.2974,-4.2974,-4.2974,-4.2974,-4.2974,-4.2974,-4.2974,-4.2974,-4.2974,-4.2974,-4.3338,-4.3652,-4.3777,-4.4556,-4.5196,-4.546,-4.5861,-4.6175,-4.6301,-4.6313,-4.6313,-4.6313,-4.6313,-4.6313,-4.6313,-4.6313,-4.6313,-4.6313,-4.6313,-4.6313,-4.6313,-4.6313,-4.6313,-4.6313,-4.6313,-4.6313,-3.3081,-3.3081,-3.3081,-3.3081,-3.3081,-3.3144,-3.3395,-3.411,-3.4801,-3.5052,-3.578,-3.6358,-3.6358,-3.6358,-3.6358,-3.6358,-3.6358,-3.6358,-3.6358,-3.6358,-3.6358,-3.6358,-3.6358,-3.6358,-3.6358,-3.6358,-3.6358,-3.6358,-3.6358,-3.6156,-3.5571,-3.4775,-3.3773,-3.2555,-3.103,-3.0317,-3.0317,-2.9713,-2.9006,-2.8291,-2.89,-2.9207,-2.9313,-3.0628,-3.1224,-3.1338,-3.2971,-3.4532,-3.6021,-3.626,-3.7606,-3.9581,-3.8137,-3.7465,-3.7465,-3.7465,-3.7465,-3.7571,-3.836,-3.9129,-3.9735,-3.9986,-4.0275,-4.0614,-4.1116,-4.148,-4.1769,-4.207,-4.2547,-4.2974,-4.2974,-4.2974,-4.2974,-4.2974,-4.2974,-4.2974,-4.2974,-4.2974,-4.2974,-4.2974,-4.2974,-4.2974,-4.2974,-4.2974,-4.2974,-4.2974,-4.3451,-4.389,-4.4154,-4.4945,-4.5585,-4.5836,-4.6137,-4.6313,-4.6313,-4.6313,-4.6313,-4.6313,-4.6313,-4.6313,-4.6313,-4.6313,-4.6313,-4.6313,-4.6313,-4.6313,-4.6313,-4.6313,-4.6313,-4.6313,-4.6313,-4.6313,-3.3081,-3.3081,-3.3081,-3.3081,-3.3081,-3.3219,-3.3771,-3.4324,-3.4876,-3.5429,-3.5981,-3.6358,-3.6358,-3.6358,-3.6358,-3.6358,-3.6358,-3.6358,-3.6358,-3.6358,-3.6358,-3.6358,-3.6358,-3.6358,-3.6358,-3.625,-3.6061,-3.6061,-3.5858,-3.5259,-3.4178,-3.3871,-3.2755,-3.0421,-3.012,-3.0016,-3.0016,-2.89,-2.8398,-2.8601,-2.9713,-3.0421,-3.0618,-3.2028,-3.2644,-3.2767,-3.4686,-3.5821,-3.635,-3.6788,-3.8093,-3.9581,-3.8137,-3.7465,-3.7465,-3.7465,-3.7465,-3.7571,-3.7796,-3.8687,-3.9785,-4.0337,-4.0576,-4.0827,-4.1844,-4.2208,-4.2283,-4.2283,-4.2622,-4.2974,-4.2974,-4.2974,-4.2974,-4.2974,-4.2974,-4.2974,-4.2974,-4.2974,-4.2974,-4.2974,-4.2974,-4.2974,-4.2974,-4.2974,-4.2999,-4.3087,-4.3576,-4.4129,-4.4681,-4.5259,-4.5799,-4.6263,-4.6313,-4.6313,-4.6313,-4.6313,-4.6313,-4.6313,-4.6313,-4.6313,-4.6313,-4.6313,-4.6313,-4.6313,-4.6313,-4.6313,-4.6313,-4.6313,-4.6313,-4.6313,-4.6313,-4.6313,-3.3081,-3.3081,-3.3081,-3.3081,-3.3081,-3.3219,-3.3771,-3.4324,-3.4876,-3.5429,-3.5981,-3.6358,-3.6358,-3.6358,-3.6358,-3.6358,-3.6358,-3.6358,-3.6358,-3.6358,-3.6358,-3.6358,-3.6358,-3.6358,-3.6358,-3.5367,-3.4678,-3.4678,-3.3552,-3.2833,-3.2644,-3.1531,-3.0721,-3.0317,-2.9207,-2.8601,-2.8601,-2.8398,-2.89,-3.0016,-3.0214,-3.0916,-3.2028,-3.3464,-3.408,-3.4201,-3.6027,-3.7182,-3.773,-3.8303,-3.8978,-3.9581,-3.8137,-3.7465,-3.7465,-3.7465,-3.7465,-3.769,-3.8921,-3.9478,-3.9785,-4.0337,-4.0827,-4.1329,-4.1969,-4.2484,-4.2848,-4.2848,-4.2911,-4.2974,-4.2974,-4.2974,-4.2974,-4.2974,-4.2974,-4.2974,-4.2974,-4.2974,-4.2974,-4.2974,-4.2974,-4.2974,-4.2974,-4.2974,-4.3137,-4.3601,-4.4141,-4.4706,-4.5284,-4.5836,-4.6225,-4.6301,-4.6313,-4.6313,-4.6313,-4.6313,-4.6313,-4.6313,-4.6313,-4.6313,-4.6313,-4.6313,-4.6313,-4.6313,-4.6313,-4.6313,-4.6313,-4.6313,-4.6313,-4.6313,-4.6313,-4.6313,-3.3081,-3.3081,-3.3081,-3.3081,-3.3307,-3.3671,-3.4223,-3.4776,-3.5316,-3.5881,-3.6194,-3.6358,-3.6358,-3.6358,-3.6358,-3.6358,-3.6358,-3.6358,-3.6358,-3.6358,-3.6358,-3.6358,-3.5763,-3.5271,-3.5271,-3.4056,-3.3254,-3.3254,-3.2644,-3.2028,-3.1224,-3.0618,-3.0016,-2.9207,-2.9303,-2.9408,-2.9408,-3.012,-3.0421,-3.0317,-3.1847,-3.2855,-3.3464,-3.486,-3.5475,-3.5512,-3.7055,-3.7776,-3.8078,-3.8944,-3.9471,-3.9581,-3.8908,-3.8687,-3.8687,-3.8687,-3.8687,-3.8804,-3.9465,-3.9885,-4.0224,-4.0777,-4.1329,-4.1882,-4.2434,-4.2773,-4.2974,-4.2974,-4.2974,-4.2974,-4.2974,-4.2974,-4.2974,-4.2974,-4.2974,-4.2974,-4.2974,-4.2974,-4.2974,-4.2974,-4.2974,-4.2974,-4.2974,-4.3225,-4.3514,-4.3765,-4.4531,-4.5183,-4.5447,-4.5974,-4.6313,-4.6313,-4.6313,-4.6313,-4.6313,-4.6313,-4.6313,-4.6313,-4.6313,-4.6313,-4.6313,-4.6313,-4.6313,-4.6313,-4.6313,-4.6313,-4.6313,-4.6313,-4.6313,-4.6313,-4.6313,-4.6313,-3.3081,-3.3081,-3.3081,-3.3081,-3.3395,-3.3884,-3.4562,-3.5052,-3.5542,-3.6219,-3.6358,-3.6358,-3.6358,-3.6358,-3.6358,-3.6358,-3.6358,-3.6358,-3.6358,-3.6156,-3.5966,-3.5966,-3.4763,-3.3871,-3.3871,-3.2644,-3.1825,-3.1825,-3.1531,-3.0927,-2.9911,-2.9807,-2.9513,-2.8804,-2.9513,-3.0016,-3.0317,-3.1327,-3.1633,-3.1338,-3.3365,-3.4581,-3.4872,-3.5966,-3.6358,-3.642,-3.7525,-3.8002,-3.809,-3.9233,-3.9697,-3.9697,-3.9697,-3.9697,-3.9697,-3.9697,-3.9697,-3.9697,-3.9697,-4.0061,-4.0614,-4.1166,-4.1706,-4.2258,-4.2811,-4.2974,-4.2974,-4.2974,-4.2974,-4.2974,-4.2974,-4.2974,-4.2974,-4.2974,-4.2974,-4.2974,-4.2974,-4.2974,-4.2974,-4.2974,-4.2974,-4.2974,-4.2974,-4.3438,-4.384,-4.3978,-4.4844,-4.5535,-4.566,-4.605,-4.6313,-4.6313,-4.6313,-4.6313,-4.6313,-4.6313,-4.6313,-4.6313,-4.6313,-4.6313,-4.6313,-4.6313,-4.6313,-4.6313,-4.6313,-4.6313,-4.6313,-4.6313,-4.6313,-4.6313,-4.6313,-4.6313,-3.3081,-3.3081,-3.3081,-3.3081,-3.3106,-3.342,-3.4474,-3.4751,-3.5077,-3.6144,-3.6358,-3.6358,-3.6358,-3.6358,-3.6358,-3.6358,-3.6358,-3.6358,-3.6358,-3.5367,-3.4581,-3.4581,-3.3353,-3.2431,-3.2431,-3.1224,-3.0421,-3.0421,-2.9313,-2.8601,-2.8504,-2.8388,-2.9006,-3.012,-2.8996,-2.8996,-3.0317,-3.0421,-3.1644,-3.408,-3.4288,-3.5078,-3.6263,-3.6358,-3.6358,-3.642,-3.7525,-3.8002,-3.809,-3.9233,-3.9697,-3.9697,-3.9697,-3.9697,-3.9697,-3.9697,-3.9697,-3.9697,-3.9697,-4.0061,-4.0614,-4.1166,-4.1706,-4.2258,-4.2811,-4.2974,-4.2974,-4.2974,-4.2974,-4.2974,-4.2974,-4.2974,-4.2974,-4.2974,-4.2974,-4.2974,-4.2974,-4.2974,-4.2974,-4.2974,-4.2974,-4.2974,-4.2974,-4.3438,-4.3978,-4.448,-4.5095,-4.5673,-4.6188,-4.6288,-4.6313,-4.6313,-4.6313,-4.6313,-4.6313,-4.6313,-4.6313,-4.6313,-4.6313,-4.6313,-4.6313,-4.6313,-4.6313,-4.6313,-4.6313,-4.6313,-4.6313,-4.6313,-4.6313,-4.6313,-4.6313,-4.6313,-3.3081,-3.3081,-3.3081,-3.3081,-3.3332,-3.3784,-3.455,-3.5253,-3.5855,-3.627,-3.6358,-3.6358,-3.6358,-3.6358,-3.6358,-3.6358,-3.5667,-3.5174,-3.5174,-3.4678,-3.4385,-3.4385,-3.3155,-3.2644,-3.3563,-3.0824,-2.9713,-3.1429,-2.9513,-2.9006,-3.0721,-2.9207,-2.89,-3.0214,-2.9807,-3.0214,-3.1531,-3.2443,-3.3761,-3.5667,-3.4775,-3.5078,-3.6358,-3.6358,-3.6546,-3.691,-3.7676,-3.8216,-3.8605,-3.9371,-3.9697,-3.9697,-3.9697,-3.9697,-3.9697,-3.9697,-3.9697,-3.9747,-4.0086,-4.0563,-4.1116,-4.1668,-4.2221,-4.271,-4.2911,-4.2974,-4.2974,-4.2974,-4.2974,-4.2974,-4.2974,-4.2974,-4.2974,-4.2974,-4.2974,-4.2974,-4.2974,-4.2974,-4.2974,-4.2974,-4.2974,-4.3087,-4.3426,-4.3953,-4.4505,-4.507,-4.5635,-4.6075,-4.6288,-4.6313,-4.6313,-4.6313,-4.6313,-4.6313,-4.6313,-4.6313,-4.6313,-4.6313,-4.6313,-4.6313,-4.6313,-4.6313,-4.6313,-4.6313,-4.6313,-4.6313,-4.6313,-4.6313,-4.6313,-4.6313,-4.6313,-4.6313,-3.3081,-3.3081,-3.3119,-3.3294,-3.3759,-3.4299,-3.4851,-3.5567,-3.6157,-3.632,-3.6061,-3.587,-3.6358,-3.6061,-3.587,-3.6358,-3.5667,-3.5078,-3.5078,-3.4678,-3.4385,-3.4385,-3.3155,-3.2543,-3.3055,-3.0525,-2.9513,-3.0927,-2.9303,-2.9102,-3.0916,-2.9713,-2.9513,-3.0927,-3.0927,-3.1633,-3.2955,-3.3464,-3.4471,-3.5763,-3.4872,-3.5078,-3.6358,-3.6358,-3.6659,-3.7211,-3.7764,-3.8329,-3.8906,-3.9471,-3.9697,-3.9697,-3.9697,-3.9697,-3.9697,-3.9697,-3.9798,-4.0011,-4.0388,-4.099,-4.1656,-4.2032,-4.2522,-4.2974,-4.2974,-4.2974,-4.2974,-4.2974,-4.2974,-4.2974,-4.2974,-4.2974,-4.2974,-4.2974,-4.2974,-4.2974,-4.2974,-4.2974,-4.2974,-4.2974,-4.3124,-4.3363,-4.374,-4.4405,-4.5033,-4.5434,-4.5962,-4.6313,-4.6313,-4.6313,-4.6313,-4.6313,-4.6313,-4.6313,-4.6313,-4.6313,-4.6313,-4.6313,-4.6313,-4.6313,-4.6313,-4.6313,-4.6313,-4.6313,-4.6313,-4.6313,-4.6313,-4.6313,-4.6313,-4.6313,-4.6313,-4.6313,-3.3081,-3.3081,-3.3206,-3.3759,-3.4311,-3.4864,-3.5416,-3.5542,-3.5705,-3.6257,-3.5367,-3.4775,-3.6156,-3.5271,-3.4872,-3.6156,-3.6358,-3.6358,-3.6358,-3.5271,-3.4385,-3.4385,-3.3155,-3.1825,-3.0525,-3.0317,-2.9713,-2.8388,-2.8291,-2.8291,-2.8398,-2.9608,-3.0927,-3.223,-3.2331,-3.2944,-3.4385,-3.3055,-3.3055,-3.4385,-3.4385,-3.5078,-3.6358,-3.6358,-3.6671,-3.7224,-3.7764,-3.8341,-3.8919,-3.9471,-3.9697,-3.9697,-3.9697,-3.9697,-3.9697,-3.9697,-4.0036,-4.0513,-4.0526,-4.1241,-4.2158,-4.2158,-4.2534,-4.2974,-4.2974,-4.2974,-4.2974,-4.2974,-4.2974,-4.2974,-4.2974,-4.2974,-4.2974,-4.2974,-4.2974,-4.2974,-4.2974,-4.2974,-4.2974,-4.2986,-4.3426,-4.3802,-4.3815,-4.4744,-4.5485,-4.5497,-4.5962,-4.6313,-4.6313,-4.6313,-4.6313,-4.6313,-4.6313,-4.6313,-4.6313,-4.6313,-4.6313,-4.6313,-4.6313,-4.6313,-4.6313,-4.6313,-4.6313,-4.6313,-4.6313,-4.6313,-4.6313,-4.6313,-4.6313,-4.6313,-4.6313,-4.6313,-3.3081,-3.3081,-3.3206,-3.3759,-3.4311,-3.4864,-3.5416,-3.5843,-3.6157,-3.632,-3.6061,-3.5966,-3.6358,-3.6061,-3.5966,-3.6358,-3.5571,-3.4981,-3.4981,-3.4678,-3.4385,-3.4385,-3.3155,-3.2543,-3.3166,-3.0628,-2.9503,-3.1019,-3.0214,-3.0525,-3.2454,-3.1133,-3.1338,-3.3674,-3.1938,-3.2039,-3.4385,-3.3981,-3.4471,-3.5763,-3.5763,-3.6061,-3.6358,-3.6358,-3.6872,-3.7764,-3.7939,-3.8555,-3.9471,-3.9622,-3.9697,-3.9697,-3.9697,-3.9697,-3.9697,-3.9697,-4.0036,-4.0576,-4.0965,-4.1555,-4.2221,-4.261,-4.2848,-4.2974,-4.2974,-4.2974,-4.2974,-4.2974,-4.2974,-4.2974,-4.2974,-4.2974,-4.2974,-4.2974,-4.2974,-4.2974,-4.2974,-4.2974,-4.3087,-4.3476,-4.3689,-4.4053,-4.4844,-4.5271,-4.5623,-4.6012,-4.62,-4.6313,-4.6313,-4.6313,-4.6313,-4.6313,-4.6313,-4.6313,-4.6313,-4.6313,-4.6313,-4.6313,-4.6313,-4.6313,-4.6313,-4.6313,-4.6313,-4.6313,-4.6313,-4.6313,-4.6313,-4.6313,-4.6313,-4.6313,-4.6313,-4.6313,-3.3081,-3.3081,-3.3257,-3.4035,-3.4474,-3.4926,-3.5692,-3.6119,-3.6358,-3.6358,-3.5966,-3.5763,-3.6263,-3.5966,-3.5775,-3.6358,-3.5763,-3.5174,-3.5174,-3.4775,-3.4581,-3.5174,-3.397,-3.3464,-3.4288,-3.1633,-3.0317,-3.1429,-3.0721,-3.103,-3.2655,-3.2252,-3.2655,-3.4385,-3.3353,-3.354,-3.5174,-3.5174,-3.5571,-3.6358,-3.6358,-3.6358,-3.6358,-3.6358,-3.696,-3.804,-3.8479,-3.9069,-3.9697,-3.9697,-3.9697,-3.9697,-3.9697,-3.9697,-3.9722,-3.9936,-4.0375,-4.0927,-4.1467,-4.202,-4.2534,-4.2873,-4.2974,-4.2974,-4.2974,-4.2974,-4.2974,-4.2974,-4.2974,-4.2974,-4.2974,-4.2974,-4.2974,-4.2974,-4.2974,-4.2974,-4.2974,-4.315,-4.3401,-4.374,-4.4166,-4.4681,-4.5372,-4.5673,-4.5924,-4.6263,-4.6313,-4.6313,-4.6313,-4.6313,-4.6313,-4.6313,-4.6313,-4.6313,-4.6313,-4.6313,-4.6313,-4.6313,-4.6313,-4.6313,-4.6313,-4.6313,-4.6313,-4.6313,-4.6313,-4.6313,-4.6313,-4.6313,-4.6313,-4.6313,-4.6313,-4.6313,-3.3081,-3.3081,-3.3345,-3.4449,-3.4801,-3.514,-3.6132,-3.6358,-3.6358,-3.6358,-3.5475,-3.4969,-3.6168,-3.5367,-3.4969,-3.6168,-3.6358,-3.6358,-3.6358,-3.5367,-3.5066,-3.6263,-3.5066,-3.4178,-3.4178,-3.2955,-3.1622,-3.0421,-3.0514,-3.0721,-3.0721,-3.3066,-3.4483,-3.4581,-3.5667,-3.6263,-3.6358,-3.6358,-3.6358,-3.6358,-3.6358,-3.6358,-3.6358,-3.6408,-3.7036,-3.814,-3.922,-3.9697,-3.9697,-3.9697,-3.9697,-3.9697,-3.9697,-3.9697,-3.976,-4.0312,-4.0865,-4.1417,-4.1969,-4.2522,-4.2974,-4.2974,-4.2974,-4.2974,-4.2974,-4.2974,-4.2974,-4.2974,-4.2974,-4.2974,-4.2974,-4.2974,-4.2974,-4.2974,-4.2974,-4.2986,-4.3037,-4.3451,-4.3827,-4.3928,-4.4782,-4.551,-4.5547,-4.5987,-4.6313,-4.6313,-4.6313,-4.6313,-4.6313,-4.6313,-4.6313,-4.6313,-4.6313,-4.6313,-4.6313,-4.6313,-4.6313,-4.6313,-4.6313,-4.6313,-4.6313,-4.6313,-4.6313,-4.6313,-4.6313,-4.6313,-4.6313,-4.6313,-4.6313,-4.6313,-4.6313,-4.6313,-3.3081,-3.3081,0.0,-3.4449,-3.5366,-3.6069,-3.6307,-3.6358,-3.6358,-3.6358,-3.6156,-3.6061,-3.6358,-3.6156,-3.6061,-3.6358,-3.6358,-3.6358,-3.6358,-3.6156,-3.6061,-3.6358,-3.4252,-3.2744,-3.2744,-3.1531,-3.0618,-3.0317,-3.2342,-3.3563,-3.3563,-3.408,-3.4872,-3.5966,-3.5271,-3.5367,-3.6358,-3.6358,-3.6358,-3.6358,-3.6358,-3.6358,-3.637,-3.681,-3.7626,-3.8718,-3.9396,-3.9697,-3.9697,-3.9697,-3.9697,-3.9697,-3.9697,-3.9697,-3.976,-4.0312,-4.0865,-4.1417,-4.1969,-4.2522,-4.2974,-4.2974,-4.2974,-4.2974,-4.2974,-4.2974,-4.2974,-4.2974,-4.2974,-4.2974,-4.2974,-4.2974,-4.2974,-4.2974,-4.2974,-4.3099,-4.3526,-4.3714,-4.4066,-4.4957,-4.5321,-4.5623,-4.6062,-4.6225,-4.6313,-4.6313,-4.6313,-4.6313,-4.6313,-4.6313,-4.6313,-4.6313,-4.6313,-4.6313,-4.6313,-4.6313,-4.6313,-4.6313,-4.6313,-4.6313,-4.6313,-4.6313,-4.6313,-4.6313,-4.6313,-4.6313,-4.6313,-4.6313,-4.6313,-4.6313,-4.6313,-4.6313,-3.3081,0.0,0.0,-3.3588,0.0,-3.6358,-3.6358,-3.6358,-3.6358,-3.6358,-3.6358,-3.6358,-3.6358,-3.6358,-3.6358,-3.6358,-3.6358,-3.6358,-3.6358,-3.5246,-3.4945,-3.625,-3.3946,-3.2833,-3.4142,-3.3044,-3.2252,-3.2252,-3.3563,-3.4385,-3.4385,-3.4981,-3.5667,-3.6358,-3.5763,-3.5667,-3.6358,-3.6358,-3.6358,-3.6358,-3.6358,-3.6634,-3.7161,-3.745,-3.8052,-3.8906,-3.9459,-3.9697,-3.9697,-3.9697,-3.9697,-3.9697,-3.9697,-3.986,-4.0162,-4.0714,-4.1254,-4.1806,-4.2359,-4.2735,-4.2974,-4.2974,-4.2974,-4.2974,-4.2974,-4.2974,-4.2974,-4.2974,-4.2974,-4.2974,-4.2974,-4.2974,-4.3037,-4.3313,-4.3376,-4.3451,-4.374,-4.4229,-4.4782,-4.5372,-4.5698,-4.5974,-4.6263,-4.6313,-4.6313,-4.6313,-4.6313,-4.6313,-4.6313,-4.6313,-4.6313,-4.6313,-4.6313,-4.6313,-4.6313,-4.6313,-4.6313,-4.6313,-4.6313,-4.6313,-4.6313,-4.6313,-4.6313,-4.6313,-4.6313,-4.6313,-4.6313,-4.6313,-4.6313,-4.6313,-4.6313,-4.6313,-3.2797,0.0,-3.18,-3.2879,-3.4866,0.0,-3.6358,-3.6358,-3.6358,-3.6358,-3.6358,-3.6358,-3.6358,-3.6358,-3.6358,-3.6358,-3.6358,-3.6358,-3.6358,-3.4447,-3.3836,-3.6156,-3.4142,-3.3552,-3.5858,-3.5078,-3.4385,-3.4385,-3.4581,-3.4775,-3.4775,-3.5763,-3.6358,-3.6358,-3.6358,-3.6358,-3.6358,-3.6358,-3.6358,-3.6358,-3.6358,-3.6935,-3.8002,-3.8002,-3.8379,-3.9032,-3.9496,-3.9697,-3.9697,-3.9697,-3.9697,-3.9697,-3.9697,-4.0036,-4.0576,-4.1128,-4.1681,-4.2233,-4.2785,-4.2974,-4.2974,-4.2974,-4.2974,-4.2974,-4.2974,-4.2974,-4.2974,-4.2974,-4.2974,-4.2974,-4.2974,-4.3049,-4.3237,-4.3689,-4.3953,-4.4091,-4.4091,-4.4832,-4.551,-4.561,-4.5999,-4.6313,-4.6313,-4.6313,-4.6313,-4.6313,-4.6313,-4.6313,-4.6313,-4.6313,-4.6313,-4.6313,-4.6313,-4.6313,-4.6313,-4.6313,-4.6313,-4.6313,-4.6313,-4.6313,-4.6313,-4.6313,-4.6313,-4.6313,-4.6313,-4.6313,-4.6313,-4.6313,-4.6313,-4.6313,-4.6313,-4.6313,-3.1777,0.0,-3.2915,0.0,-3.5449,-3.6358,0.0,0.0,-3.6358,-3.6358,-3.6358,-3.6358,-3.6358,-3.6358,-3.6358,-3.6358,-3.6358,-3.6358,-3.6358,-3.6048,-3.5953,-3.6358,-3.5066,-3.4276,-3.4678,-3.4483,-3.4385,-3.4385,-3.5475,-3.6156,-3.6156,-3.6263,-3.6358,-3.6358,-3.6358,-3.6358,-3.6358,-3.6358,-3.6358,-3.6358,-3.6358,-3.6935,-3.8002,-3.8002,-3.858,-3.9584,-3.9659,-3.9697,-3.9697,-3.9697,-3.9697,-3.9697,-3.9697,-4.0036,-4.0576,-4.1128,-4.1681,-4.2233,-4.2785,-4.2974,-4.2974,-4.2974,-4.2974,-4.2974,-4.2974,-4.2974,-4.2974,-4.2974,-4.2974,-4.2974,-4.2974,-4.3325,-4.3714,-4.3777,-4.4543,-4.5259,-4.5259,-4.5384,-4.5635,-4.61,-4.6263,-4.6313,-4.6313,-4.6313,-4.6313,-4.6313,-4.6313,-4.6313,-4.6313,-4.6313,-4.6313,-4.6313,-4.6313,-4.6313,-4.6313,-4.6313,-4.6313,-4.6313,-4.6313,-4.6313,-4.6313,-4.6313,-4.6313,-4.6313,-4.6313,-4.6313,-4.6313,-4.6313,-4.6313,-4.6313,-4.6313,-4.6313,-3.1589,-3.2563,-3.387,0.0,-3.5065,-3.6358,-3.6358,-3.6358,-3.6358,-3.6358,-3.6358,-3.6358,-3.6358,-3.6358,-3.6156,-3.5367,-3.587,-3.6168,-3.5367,-3.5271,-3.5571,-3.6263,-3.5174,-3.4678,-3.5463,-3.5571,-3.5571,-3.5571,-3.6061,-3.6358,-3.6358,-3.6358,-3.6358,-3.6358,-3.6358,-3.6358,-3.6358,-3.6358,-3.6358,-3.6358,-3.6671,-3.7236,-3.8015,-3.8341,-3.8931,-3.9697,-3.9697,-3.9697,-3.9697,-3.9697,-3.9697,-3.9697,-3.9697,-4.0224,-4.1015,-4.1254,-4.1882,-4.2647,-4.2898,-4.2974,-4.2974,-4.2974,-4.2974,-4.2974,-4.2974,-4.2974,-4.2974,-4.2974,-4.2974,-4.3049,-4.3363,-4.3614,-4.3966,-4.4593,-4.5133,-4.5573,-4.5886,-4.5949,-4.6024,-4.6263,-4.6313,-4.6313,-4.6313,-4.6313,-4.6313,-4.6313,-4.6313,-4.6313,-4.6313,-4.6313,-4.6313,-4.6313,-4.6313,-4.6313,-4.6313,-4.6313,-4.6313,-4.6313,-4.6313,-4.6313,-4.6313,-4.6313,-4.6313,-4.6313,-4.6313,-4.6313,-4.6313,-4.6313,-4.6313,-4.6313,-4.6313,-4.6313,0.0,0.0,-3.3491,-3.2966,-3.4275,-3.5792,0.0,0.0,-3.6263,-3.5966,-3.6156,-3.6358,-3.6358,-3.6358,-3.6061,-3.5078,-3.5763,-3.6061,-3.5078,-3.4884,-3.5271,-3.6263,-3.5571,-3.5271,-3.6263,-3.6358,-3.6358,-3.6358,-3.6358,-3.6358,-3.6358,-3.6358,-3.6358,-3.6358,-3.6358,-3.6358,-3.6358,-3.6358,-3.6358,-3.637,-3.6923,-3.7475,-3.8027,-3.8605,-3.917,-3.9697,-3.9697,-3.9697,-3.9697,-3.9697,-3.9697,-3.971,-3.9848,-4.0488,-4.1354,-4.1492,-4.2158,-4.2974,-4.2974,-4.2974,-4.2974,-4.2974,-4.2974,-4.2974,-4.2974,-4.2974,-4.2974,-4.2974,-4.2974,-4.3099,-4.3664,-4.3903,-4.4267,-4.5246,-4.5598,-4.5811,-4.6225,-4.6313,-4.6313,-4.6313,-4.6313,-4.6313,-4.6313,-4.6313,-4.6313,-4.6313,-4.6313,-4.6313,-4.6313,-4.6313,-4.6313,-4.6313,-4.6313,-4.6313,-4.6313,-4.6313,-4.6313,-4.6313,-4.6313,-4.6313,-4.6313,-4.6313,-4.6313,-4.6313,-4.6313,-4.6313,-4.6313,-4.6313,-4.6313,-4.6313,-4.6313,-4.6313,0.0,-3.0788,0.0,-3.2499,-3.3409,-3.3959,0.0,0.0,-3.6061,-3.4787,-3.5571,-3.6358,-3.6358,-3.6358,-3.6358,-3.6263,-3.6358,-3.6358,-3.6263,-3.6263,-3.6358,-3.6358,-3.6358,-3.6358,-3.6358,-3.6358,-3.6358,-3.6358,-3.6358,-3.6358,-3.6358,-3.6358,-3.6358,-3.6358,-3.6358,-3.6358,-3.6358,-3.6358,-3.6358,-3.637,-3.6923,-3.7475,-3.8027,-3.8605,-3.917,-3.9697,-3.9697,-3.9697,-3.9697,-3.9697,-3.9697,-3.9747,-4.0275,-4.0827,-4.1404,-4.1919,-4.2484,-4.2974,-4.2974,-4.2974,-4.2974,-4.2974,-4.2974,-4.2974,-4.2974,-4.2974,-4.2974,-4.2974,-4.2974,-4.3099,-4.3664,-4.4192,-4.4731,-4.5347,-4.5886,-4.6276,-4.6301,-4.6313,-4.6313,-4.6313,-4.6313,-4.6313,-4.6313,-4.6313,-4.6313,-4.6313,-4.6313,-4.6313,-4.6313,-4.6313,-4.6313,-4.6313,-4.6313,-4.6313,-4.6313,-4.6313,-4.6313,-4.6313,-4.6313,-4.6313,-4.6313,-4.6313,-4.6313,-4.6313,-4.6313,-4.6313,-4.6313,-4.6313,-4.6313,-4.6313,-4.6313,-4.6313,0.0,0.0,0.0,-3.1216,-3.2465,-3.3744,-3.3923,-3.5218,-3.6263,-3.5763,-3.5367,-3.5379,-3.6263,-3.6358,-3.6156,-3.5271,-3.5858,-3.6061,-3.5271,-3.587,-3.6358,-3.6358,-3.6358,-3.6358,-3.6358,-3.6358,-3.6358,-3.6358,-3.6358,-3.6358,-3.6358,-3.6358,-3.6358,-3.6358,-3.6358,-3.6358,-3.6358,-3.6358,-3.6358,-3.637,-3.7274,-3.7814,-3.804,-3.8969,-3.9982,-4.0932,-4.0932,-4.0932,-4.0932,-4.0932,-4.0932,-4.0896,-4.0588,-4.0852,-4.1404,-4.1957,-4.2497,-4.2974,-4.2974,-4.2974,-4.2974,-4.2974,-4.2974,-4.2974,-4.2974,-4.2974,-4.2974,-4.2974,-4.3237,-4.3639,-4.4179,-4.4744,-4.5321,-4.5886,-4.6175,-4.6313,-4.6313,-4.6313,-4.6313,-4.6313,-4.6313,-4.6313,-4.6313,-4.6313,-4.6313,-4.6313,-4.6313,-4.6313,-4.6313,-4.6313,-4.6313,-4.6313,-4.6313,-4.6313,-4.6313,-4.6313,-4.6313,-4.6313,-4.6313,-4.6313,-4.6313,-4.6313,-4.6313,-4.6313,-4.6313,-4.6313,-4.6313,-4.6313,-4.6313,-4.6313,-4.6313,-4.6313,-3.0406,-3.057,-3.0962,0.0,-3.1536,-3.3375,-3.3062,-3.4773,-3.6263,-3.5858,-3.5379,-3.5367,-3.6263,-3.6358,-3.6061,-3.5174,-3.587,-3.6061,-3.5174,-3.5858,-3.6358,-3.6358,-3.6358,-3.6358,-3.6358,-3.6358,-3.6358,-3.6358,-3.6358,-3.6358,-3.6358,-3.6358,-3.6358,-3.6358,-3.6358,-3.6358,-3.6358,-3.6358,-3.6358,-3.637,-3.7934,-3.8651,-3.8677,-4.0214,-4.1406,-4.2266,-4.2641,-4.2641,-4.2266,-4.2266,-4.2387,-4.2529,-4.175,-4.1715,-4.2276,-4.244,-4.266,-4.2974,-4.2974,-4.2974,-4.2974,-4.2974,-4.2974,-4.2974,-4.2974,-4.2974,-4.3024,-4.32,-4.3526,-4.3978,-4.4719,-4.5334,-4.5861,-4.6225,-4.6313,-4.6313,-4.6313,-4.6313,-4.6313,-4.6313,-4.6313,-4.6313,-4.6313,-4.6313,-4.6313,-4.6313,-4.6313,-4.6313,-4.6313,-4.6313,-4.6313,-4.6313,-4.6313,-4.6313,-4.6313,-4.6313,-4.6313,-4.6313,-4.6313,-4.6313,-4.6313,-4.6313,-4.6313,-4.6313,-4.6313,-4.6313,-4.6313,-4.6313,-4.6313,-4.6313,-4.6313,-4.6313,0.0,0.0,0.0,-2.8519,-3.0706,-3.2653,-3.1882,-3.4162,-3.6061,-3.4775,-3.5463,-3.6358,-3.6358,-3.6358,-3.6358,-3.6358,-3.6358,-3.6358,-3.6358,-3.6358,-3.6358,-3.6358,-3.6358,-3.6358,-3.6358,-3.6358,-3.6358,-3.6358,-3.6358,-3.6358,-3.6358,-3.6358,-3.6358,-3.6358,-3.6358,-3.6358,-3.6358,-3.6358,-3.6358,-3.6465,-3.8743,-3.9918,-3.9957,-4.2372,-4.3504,-4.3598,-4.4826,-4.4734,-4.3598,-4.3598,-4.3944,-4.4456,-4.3592,-4.3572,-4.4151,-4.3288,-4.2974,-4.2974,-4.2974,-4.2974,-4.2974,-4.2974,-4.2974,-4.2974,-4.2974,-4.2974,-4.3087,-4.3639,-4.3815,-4.4091,-4.5221,-4.5912,-4.6313,-4.6313,-4.6313,-4.6313,-4.6313,-4.6313,-4.6313,-4.6313,-4.6313,-4.6313,-4.6313,-4.6313,-4.6313,-4.6313,-4.6313,-4.6313,-4.6313,-4.6313,-4.6313,-4.6313,-4.6313,-4.6313,-4.6313,-4.6313,-4.6313,-4.6313,-4.6313,-4.6313,-4.6313,-4.6313,-4.6313,-4.6313,-4.6313,-4.6313,-4.6313,-4.6313,-4.6313,-4.6313,-4.6313,-4.6313,-2.959,0.0,0.0,0.0,0.0,0.0,-3.2606,-3.46,-3.6263,-3.5966,-3.5367,-3.5271,-3.625,-3.5571,-3.5271,-3.6263,-3.6358,-3.6358,-3.6358,-3.6358,-3.6358,-3.6358,-3.6358,-3.6358,-3.6358,-3.6358,-3.6358,-3.6358,-3.6358,-3.6358,-3.6358,-3.6358,-3.6358,-3.6358,-3.6358,-3.6358,-3.6358,-3.6358,-3.6358,-3.6465,-3.8743,-3.9918,-3.9957,-4.2372,-4.3975,-4.4918,-4.5207,-4.5689,-4.6166,-4.5207,-4.5289,-4.5713,-4.3883,-4.3572,-4.4151,-4.3288,-4.2974,-4.2974,-4.2974,-4.2974,-4.2974,-4.2974,-4.2974,-4.2974,-4.2974,-4.2974,-4.3087,-4.3639,-4.4091,-4.4656,-4.5786,-4.62,-4.6313,-4.6313,-4.6313,-4.6313,-4.6313,-4.6313,-4.6313,-4.6313,-4.6313,-4.6313,-4.6313,-4.6313,-4.6313,-4.6313,-4.6313,-4.6313,-4.6313,-4.6313,-4.6313,-4.6313,-4.6313,-4.6313,-4.6313,-4.6313,-4.6313,-4.6313,-4.6313,-4.6313,-4.6313,-4.6313,-4.6313,-4.6313,-4.6313,-4.6313,-4.6313,-4.6313,-4.6313,-4.6313,-4.6313,-4.6313,-3.0582,-3.0951,-3.1422,-2.9459,0.0,0.0,-3.3325,-3.485,-3.6358,-3.6358,-3.5775,-3.5475,-3.6263,-3.5763,-3.5463,-3.6263,-3.6358,-3.6358,-3.6358,-3.6358,-3.6358,-3.6358,-3.6358,-3.6358,-3.6358,-3.6358,-3.6358,-3.6358,-3.6358,-3.6358,-3.6358,-3.6358,-3.6358,-3.6358,-3.6358,-3.6358,-3.6358,-3.6896,-3.715,-3.7163,-4.0011,-4.1393,-4.154,-4.3969,-4.5494,-4.6166,-4.6166,-4.6638,-4.7222,-4.683,-4.7032,-4.7449,-4.5553,-4.5422,-4.6113,-4.4405,-4.381,-4.37,-4.3184,-4.2974,-4.2974,-4.2974,-4.2974,-4.2974,-4.2974,-4.3137,-4.3438,-4.3991,-4.4719,-4.5472,-4.6137,-4.6313,-4.6313,-4.6313,-4.6313,-4.6313,-4.6313,-4.6313,-4.6313,-4.6313,-4.6313,-4.6313,-4.6313,-4.6313,-4.6313,-4.6313,-4.6313,-4.6313,-4.6313,-4.6313,-4.6313,-4.6313,-4.6313,-4.6313,-4.6313,-4.6313,-4.6313,-4.6313,-4.6313,-4.6313,-4.6313,-4.6313,-4.6313,-4.6313,-4.6313,-4.6313,-4.6313,-4.6313,-4.6313,-4.6313,-4.6313,-4.6313,-3.1556,-3.2136,-3.2804,-3.1556,-3.3385,0.0,-3.4171,-3.5178,-3.6358,-3.6358,-3.6358,-3.6358,-3.6358,-3.6358,-3.6358,-3.6358,-3.6358,-3.6358,-3.6358,-3.6358,-3.6358,-3.6358,-3.6358,-3.6358,-3.6358,-3.6358,-3.6358,-3.6358,-3.6358,-3.6358,-3.6358,-3.6358,-3.6358,-3.6358,-3.6546,-3.6628,-3.6628,-3.7769,-3.8315,-3.8485,-4.1942,-4.3647,-4.3748,-4.6179,-4.7309,-4.7309,-4.7309,-4.7309,-4.7354,-4.8012,-4.8686,-4.9179,-4.7846,-4.7999,-4.8638,-4.5964,-4.4941,-4.463,-4.3394,-4.2974,-4.2974,-4.2974,-4.2974,-4.2986,-4.3049,-4.3413,-4.3928,-4.4543,-4.5485,-4.6313,-4.6313,-4.6313,-4.6313,-4.6313,-4.6313,-4.6313,-4.6313,-4.6313,-4.6313,-4.6313,-4.6313,-4.6313,-4.6313,-4.6313,-4.6313,-4.6313,-4.6313,-4.6313,-4.6313,-4.6313,-4.6313,-4.6313,-4.6313,-4.6313,-4.6313,-4.6313,-4.6313,-4.6313,-4.6313,-4.6313,-4.6313,-4.6313,-4.6313,-4.6313,-4.6313,-4.6313,-4.6313,-4.6313,-4.6313,-4.6313,-4.6313,-4.6313,-3.2897,-3.3385,-3.4053,-3.2804,-3.4064,0.0,-3.5158,-3.5769,-3.6358,-3.6358,-3.6358,-3.6358,-3.6358,-3.6358,-3.6358,-3.6358,-3.6358,-3.6358,-3.6358,-3.6358,-3.6358,-3.6358,-3.6358,-3.6358,-3.6358,-3.6358,-3.6358,-3.6358,-3.6358,-3.6358,-3.6358,-3.6358,-3.6358,-3.6358,-3.7322,-3.7756,-3.7756,-3.8917,-3.9768,-4.0323,-4.2505,-4.3878,-4.4485,-4.6386,-4.7309,-4.7309,-4.7309,-4.7309,-4.7354,-4.8012,-4.8686,-4.9209,-4.8341,-4.7786,-4.7299,-4.5661,-4.4318,-4.3394,-4.3085,-4.2974,-4.2974,-4.2974,-4.2974,-4.3062,-4.3501,-4.3714,-4.4016,-4.5033,-4.5799,-4.6313,-4.6313,-4.6313,-4.6313,-4.6313,-4.6313,-4.6313,-4.6313,-4.6313,-4.6313,-4.6313,-4.6313,-4.6313,-4.6313,-4.6313,-4.6313,-4.6313,-4.6313,-4.6313,-4.6313,-4.6313,-4.6313,-4.6313,-4.6313,-4.6313,-4.6313,-4.6313,-4.6313,-4.6313,-4.6313,-4.6313,-4.6313,-4.6313,-4.6313,-4.6313,-4.6313,-4.6313,-4.6313,-4.6313,-4.6313,-4.6313,-4.6313,-4.6313,-3.3982,-3.4572,-3.5239,-3.3982,-3.4768,0.0,0.0,-3.6157,-3.6358,-3.6358,-3.6358,-3.6358,-3.6358,-3.6358,-3.6358,-3.6358,-3.6358,-3.6358,-3.6358,-3.6358,-3.6358,-3.6358,-3.6358,-3.6358,-3.6358,-3.6358,-3.6358,-3.6358,-3.6358,-3.6358,-3.6358,-3.6358,-3.6628,-3.7243,-3.7756,-3.8379,-3.9006,-4.0131,-4.1042,-4.1736,-4.3544,-4.4843,-4.5505,-4.6721,-4.7309,-4.7309,-4.7309,-4.7309,-4.7384,-4.8371,-4.897,-4.9329,-4.9174,-4.8808,-4.8024,-4.6591,-4.5142,-4.3907,-4.3184,-4.2974,-4.2974,-4.2974,-4.2974,-4.3087,-4.3639,-4.4192,-4.4819,-4.566,-4.61,-4.6313,-4.6313,-4.6313,-4.6313,-4.6313,-4.6313,-4.6313,-4.6313,-4.6313,-4.6313,-4.6313,-4.6313,-4.6313,-4.6313,-4.6313,-4.6313,-4.6313,-4.6313,-4.6313,-4.6313,-4.6313,-4.6313,-4.6313,-4.6313,-4.6313,-4.6313,-4.6313,-4.6313,-4.6313,-4.6313,-4.6313,-4.6313,-4.6313,-4.6313,-4.6313,-4.6313,-4.6313,-4.6313,-4.6313,-4.6313,-4.6313,-4.6313,-4.6313,-3.5078,-3.5571,-3.6156,-3.5078,-3.5571,-3.6358,0.0,0.0,0.0,-3.6358,-3.6358,-3.6358,0.0,0.0,-3.632,-3.6219,-3.6282,-3.632,-3.6219,-3.6295,-3.6358,-3.6358,-3.6358,-3.6358,-3.6358,-3.6358,-3.6358,-3.6358,-3.6358,-3.6358,-3.6358,-3.6628,-3.715,-3.8107,-3.8545,-3.9258,-4.0232,-4.1351,-4.2324,-4.3164,-4.459,-4.5723,-4.6531,-4.7055,-4.7309,-4.7309,-4.7309,-4.7309,-4.7399,-4.873,-4.9269,-4.9344,-5.0122,-4.9926,-4.9049,-4.7923,-4.6487,-4.4833,-4.381,-4.3184,-4.2974,-4.2974,-4.3124,-4.3401,-4.3953,-4.4832,-4.5736,-4.6188,-4.6313,-4.6313,-4.6313,-4.6313,-4.6313,-4.6313,-4.6313,-4.6313,-4.6313,-4.6313,-4.6313,-4.6313,-4.6313,-4.6313,-4.6313,-4.6313,-4.6313,-4.6313,-4.6313,-4.6313,-4.6313,-4.6313,-4.6313,-4.6313,-4.6313,-4.6313,-4.6313,-4.6313,-4.6313,-4.6313,-4.6313,-4.6313,-4.6313,-4.6313,-4.6313,-4.6313,-4.6313,-4.6313,-4.6313,-4.6313,-4.6313,-4.6313,-4.6313,-4.6313,-3.625,-3.6263,-3.6358,-3.625,-3.6263,-3.6358,-3.6358,0.0,-3.6358,-3.6358,0.0,-3.6358,-3.6358,0.0,0.0,-3.5717,-3.6044,-3.6194,-3.5705,-3.6056,-3.6358,-3.6358,-3.6358,-3.6358,-3.6358,-3.6358,-3.6358,-3.6358,-3.6358,-3.6358,-3.6358,-3.7322,-3.7939,-3.8107,-4.0118,-4.1253,-4.142,-4.2548,-4.3781,-4.5004,-4.5161,-4.5963,-4.7189,-4.7279,-4.7309,-4.7309,-4.7309,-4.7309,-4.7399,-4.873,-4.9269,-4.9389,-5.0631,-5.0324,-4.9161,-4.9049,-4.7299,-4.4941,-4.4833,-4.4016,-4.2974,-4.2974,-4.3639,-4.4543,-4.5121,-4.5723,-4.6225,-4.6288,-4.6313,-4.6313,-4.6313,-4.6313,-4.6313,-4.6313,-4.6313,-4.6313,-4.6313,-4.6313,-4.6313,-4.6313,-4.6313,-4.6313,-4.6313,-4.6313,-4.6313,-4.6313,-4.6313,-4.6313,-4.6313,-4.6313,-4.6313,-4.6313,-4.6313,-4.6313,-4.6313,-4.6313,-4.6313,-4.6313,-4.6313,-4.6313,-4.6313,-4.6313,-4.6313,-4.6313,-4.6313,-4.6313,-4.6313,-4.6313,-4.6313,-4.6313,-4.6313,-4.6313,-3.5463,-3.5763,-3.625,-3.5463,-3.5858,-3.6358,-3.6358,-3.6358,-3.6358,-3.6358,0.0,0.0,0.0,0.0,0.0,0.0,-3.6207,-3.6282,-3.6056,-3.6219,-3.6358,-3.6358,-3.6358,-3.6358,-3.6358,-3.6358,-3.6358,-3.6358,-3.6358,-3.6358,-3.6358,-3.7507,-3.8379,-3.9094,-4.0732,-4.1932,-4.2548,-4.3076,-4.3988,-4.5289,-4.5289,-4.6007,-4.7309,-4.7309,-4.7309,-4.7309,-4.7309,-4.7519,-4.7938,-4.888,-4.9494,-4.9927,-5.0855,-5.0397,-4.9049,-4.8225,-4.6695,-4.4941,-4.4113,-4.3504,-4.3024,-4.335,-4.3978,-4.4731,-4.5309,-4.5874,-4.6313,-4.6313,-4.6313,-4.6313,-4.6313,-4.6313,-4.6313,-4.6313,-4.6313,-4.6313,-4.6313,-4.6313,-4.6313,-4.6313,-4.6313,-4.6313,-4.6313,-4.6313,-4.6313,-4.6313,-4.6313,-4.6313,-4.6313,-4.6313,-4.6313,-4.6313,-4.6313,-4.6313,-4.6313,-4.6313,-4.6313,-4.6313,-4.6313,-4.6313,-4.6313,-4.6313,-4.6313,-4.6313,-4.6313,-4.6313,-4.6313,-4.6313,-4.6313,-4.6313,-4.6313,-4.6313,-3.5174,-3.5667,-3.6168,-3.5174,-3.5667,-3.6358,-3.6358,-3.6358,-3.6358,-3.6358,-3.6358,0.0,0.0,0.0,-3.632,-3.6157,0.0,-3.6307,-3.6157,-3.627,-3.6358,-3.6358,-3.6358,-3.6358,-3.6358,-3.6358,-3.6358,-3.6358,-3.6358,-3.6358,-3.6358,-3.7769,-3.9006,-3.9899,-4.1351,-4.2467,-4.325,-4.3329,-4.3988,-4.5289,-4.5289,-4.6007,-4.7309,-4.7309,-4.7309,-4.7309,-4.7309,-4.7683,-4.8341,-4.9,-4.9658,-5.0301,-5.096,-5.0603,-4.9664,-4.8638,-4.7299,-4.5964,-4.5048,-4.4326,-4.3835,-4.3954,-4.4405,-4.497,-4.5535,-4.5987,-4.6313,-4.6313,-4.6313,-4.6313,-4.6313,-4.6313,-4.6313,-4.6313,-4.6313,-4.6313,-4.6313,-4.6313,-4.6313,-4.6313,-4.6313,-4.6313,-4.6313,-4.6313,-4.6313,-4.6313,-4.6313,-4.6313,-4.6313,-4.6313,-4.6313,-4.6313,-4.6313,-4.6313,-4.6313,-4.6313,-4.6313,-4.6313,-4.6313,-4.6313,-4.6313,-4.6313,-4.6313,-4.6313,-4.6313,-4.6313,-4.6313,-4.6313,-4.6313,-4.6313,-4.6313,-4.6313,-3.6358,-3.6358,-3.6358,-3.6358,-3.6358,-3.6358,-3.6358,-3.6358,-3.6358,-3.6358,-3.6358,-3.6358,-3.6358,-3.6358,-3.6194,-3.5655,-3.6019,0.0,0.0,-3.6031,-3.6358,-3.6358,-3.6358,-3.6358,-3.6358,-3.6358,-3.6358,-3.6358,-3.6358,-3.6358,-3.6358,-3.8572,-3.9899,-3.9899,-4.2044,-4.325,-4.3329,-4.3329,-4.3988,-4.5289,-4.5289,-4.6007,-4.7309,-4.7309,-4.7309,-4.7309,-4.7309,-4.7683,-4.8341,-4.9,-4.9658,-5.0301,-5.096,-5.1214,-5.112,-5.112,-5.0191,-4.9049,-4.9049,-4.7612,-4.5695,-4.4852,-4.4982,-4.556,-4.6112,-4.6301,-4.6313,-4.6313,-4.6313,-4.6313,-4.6313,-4.6313,-4.6313,-4.6313,-4.6313,-4.6313,-4.6313,-4.6313,-4.6313,-4.6313,-4.6313,-4.6313,-4.6313,-4.6313,-4.6313,-4.6313,-4.6313,-4.6313,-4.6313,-4.6313,-4.6313,-4.6313,-4.6313,-4.6313,-4.6313,-4.6313,-4.6313,-4.6313,-4.6313,-4.6313,-4.6313,-4.6313,-4.6313,-4.6313,-4.6313,-4.6313,-4.6313,-4.6313,-4.6313,-4.6313,-4.6313,-4.6313,-3.6358,-3.6358,-3.6358,-3.6358,-3.6358,-3.6358,-3.6358,-3.6358,-3.6358,-3.6358,-3.6358,-3.6358,-3.6358,-3.6358,-3.6295,-3.6119,-3.6245,-3.6295,0.0,-3.6245,-3.6358,-3.6358,-3.6358,-3.6358,-3.6358,-3.6358,-3.6358,-3.6358,-3.6358,-3.6358,-3.6358,-3.8662,-3.9899,-3.9899,-4.2126,-4.3329,-4.3329,-4.3763,-4.4421,-4.5304,-4.5753,-4.6441,-4.7309,-4.7309,-4.7309,-4.7309,-4.7309,-4.7923,-4.8955,-4.9179,-4.9912,-5.0915,-5.1124,-5.1214,-5.112,-5.0191,-4.9567,-4.895,-4.7094,-4.6169,-4.5721,-4.4878,-4.502,-4.5598,-4.615,-4.6313,-4.6313,-4.6313,-4.6313,-4.6313,-4.6313,-4.6313,-4.6313,-4.6313,-4.6313,-4.6313,-4.6313,-4.6313,-4.6313,-4.6313,-4.6313,-4.6313,-4.6313,-4.6313,-4.6313,-4.6313,-4.6313,-4.6313,-4.6313,-4.6313,-4.6313,-4.6313,-4.6313,-4.6313,-4.6313,-4.6313,-4.6313,-4.6313,-4.6313,-4.6313,-4.6313,-4.6313,-4.6313,-4.6313,-4.6313,-4.6313,-4.6313,-4.6313,-4.6313,-4.6313,-4.6313,-4.6313,-3.6358,-3.6358,-3.6358,-3.6358,-3.6358,-3.6358,-3.6358,-3.6358,-3.6358,-3.6358,-3.6358,-3.6358,-3.6358,-3.6358,-3.6358,-3.6358,-3.6358,-3.6358,0.0,-3.6358,-3.6358,-3.6358,-3.6358,-3.6358,-3.6358,-3.6358,-3.6358,-3.6358,-3.6358,-3.6534,-3.6977,-3.8841,-4.0073,-4.049,-4.2304,-4.3329,-4.3329,-4.3988,-4.4646,-4.5304,-4.5992,-4.6666,-4.7309,-4.7309,-4.7309,-4.7309,-4.7309,-4.8057,-4.9269,-4.9269,-5.0032,-5.1214,-5.1214,-5.1214,-5.112,-5.0191,-4.9567,-4.888,-4.6719,-4.606,-4.6009,-4.5182,-4.5321,-4.5849,-4.62,-4.6313,-4.6276,-4.6075,-4.6163,-4.6276,-4.6075,-4.6163,-4.6313,-4.6313,-4.6313,-4.6313,-4.6313,-4.6313,-4.6313,-4.6313,-4.6313,-4.6313,-4.6313,-4.6313,-4.6313,-4.6313,-4.6313,-4.6313,-4.6313,-4.6313,-4.6313,-4.6313,-4.6313,-4.6313,-4.6313,-4.6313,-4.6313,-4.6313,-4.6313,-4.6313,-4.6313,-4.6313,-4.6225,-4.6024,-4.6213,-4.6213,-4.6012,-4.6213,-4.6313,-4.6313,-4.6313,-4.6313]},{"header":{"parameterUnit":"m.s-1","parameterCategory":1,"la1":30.6,"la2":29.2853,"lo1":-89.7004,"lo2":-87.6739,"dy":0.0162,"dx":0.0183,"nx":112,"ny":82,"refTime":"2024-05-14T06:00:00:Z","depth":0,"parameterNumber":3,"parameterNumberName":"V-component_of_WINDS"},"data":[0.0,0.0,0.0,0.0,0.0,0.0,0.0,0.0,0.0,0.0,0.0,0.0,0.0,0.0,0.0,0.0,0.0,0.0,0.0,0.0,0.0,0.0,0.0,0.0,0.0,0.0,0.0,0.0,0.0,0.0,0.0,0.0,0.0,0.0,0.0,0.0,0.0,0.0,0.0,0.0,0.0,0.0,0.0,0.0,0.0,0.0,0.0,0.0,0.0,0.0,0.0,0.0,0.0,0.0,0.0,0.0,0.0,0.0,0.0,0.0,0.0,0.0,0.0,0.0,0.0,0.0,0.0,0.0,0.0,0.0,0.0,0.0,0.0,0.0,0.0,0.0,0.0,0.0,0.0,0.0,0.0,0.0,0.0,0.0,0.0,0.0,0.0,0.0,0.0,0.0,-4.3329,-4.3329,-4.3329,-4.3329,-4.3329,-4.3329,-4.3329,-4.3329,0.0,0.0,0.0,0.0,0.0,0.0,0.0,0.0,0.0,0.0,0.0,0.0,0.0,0.0,0.0,0.0,0.0,0.0,0.0,0.0,0.0,0.0,0.0,0.0,0.0,0.0,0.0,0.0,0.0,0.0,0.0,0.0,0.0,0.0,0.0,0.0,0.0,0.0,0.0,0.0,0.0,0.0,0.0,0.0,0.0,0.0,0.0,0.0,0.0,0.0,0.0,0.0,0.0,0.0,0.0,0.0,0.0,0.0,0.0,0.0,0.0,0.0,0.0,0.0,0.0,0.0,0.0,0.0,0.0,0.0,0.0,0.0,0.0,0.0,0.0,0.0,0.0,0.0,0.0,0.0,0.0,0.0,0.0,0.0,0.0,0.0,0.0,0.0,0.0,0.0,0.0,0.0,0.0,0.0,0.0,0.0,0.0,0.0,0.0,0.0,0.0,0.0,0.0,0.0,-4.3329,-4.3329,-4.3329,-4.3329,-4.3329,-4.3329,-4.3329,-4.3329,0.0,0.0,0.0,0.0,0.0,0.0,0.0,0.0,0.0,0.0,0.0,0.0,0.0,0.0,0.0,0.0,0.0,0.0,0.0,0.0,0.0,0.0,0.0,0.0,0.0,0.0,0.0,0.0,0.0,0.0,0.0,0.0,0.0,0.0,0.0,0.0,0.0,0.0,0.0,0.0,0.0,0.0,0.0,0.0,0.0,0.0,0.0,0.0,0.0,0.0,0.0,0.0,0.0,0.0,0.0,0.0,0.0,0.0,0.0,0.0,0.0,0.0,0.0,0.0,0.0,0.0,0.0,0.0,0.0,0.0,0.0,0.0,0.0,0.0,0.0,0.0,0.0,0.0,0.0,0.0,0.0,0.0,0.0,0.0,0.0,0.0,0.0,0.0,0.0,0.0,0.0,0.0,0.0,0.0,0.0,0.0,0.0,0.0,0.0,0.0,0.0,0.0,0.0,-4.3329,-4.3329,-4.3329,-4.3329,-4.3329,-4.3329,-4.3329,-4.3329,-4.3329,-4.3329,0.0,0.0,0.0,0.0,0.0,0.0,0.0,0.0,0.0,0.0,0.0,0.0,0.0,0.0,0.0,0.0,0.0,0.0,0.0,0.0,0.0,0.0,0.0,0.0,0.0,0.0,0.0,0.0,0.0,0.0,0.0,0.0,0.0,0.0,0.0,0.0,0.0,0.0,0.0,0.0,0.0,0.0,0.0,0.0,0.0,0.0,0.0,0.0,0.0,0.0,0.0,0.0,0.0,0.0,0.0,0.0,0.0,0.0,0.0,0.0,0.0,0.0,0.0,0.0,0.0,0.0,0.0,0.0,0.0,0.0,0.0,0.0,0.0,0.0,0.0,0.0,0.0,0.0,0.0,0.0,0.0,0.0,0.0,0.0,0.0,0.0,0.0,0.0,0.0,0.0,0.0,0.0,0.0,0.0,0.0,0.0,0.0,0.0,0.0,0.0,0.0,0.0,-4.3329,-4.3329,-4.3329,-4.3329,-4.3329,-4.3329,-4.3329,-4.3329,-4.3329,-4.3329,0.0,0.0,0.0,0.0,0.0,0.0,0.0,0.0,0.0,0.0,0.0,0.0,0.0,0.0,0.0,0.0,0.0,0.0,0.0,0.0,0.0,0.0,0.0,0.0,0.0,0.0,0.0,0.0,0.0,0.0,0.0,0.0,0.0,0.0,0.0,0.0,0.0,0.0,0.0,0.0,0.0,0.0,0.0,0.0,0.0,0.0,0.0,0.0,0.0,0.0,0.0,0.0,0.0,0.0,0.0,0.0,0.0,0.0,0.0,0.0,0.0,0.0,0.0,0.0,0.0,0.0,0.0,0.0,0.0,0.0,0.0,0.0,0.0,0.0,0.0,0.0,0.0,0.0,0.0,0.0,0.0,0.0,0.0,0.0,0.0,0.0,0.0,0.0,0.0,0.0,0.0,0.0,0.0,0.0,0.0,0.0,0.0,0.0,0.0,0.0,0.0,0.0,-4.3329,-4.3329,-4.3329,-4.3329,-4.3329,-4.3329,-4.3329,-4.3329,-4.3329,-4.3329,0.0,0.0,0.0,0.0,0.0,0.0,0.0,0.0,0.0,0.0,0.0,0.0,0.0,0.0,0.0,0.0,0.0,0.0,0.0,0.0,0.0,0.0,0.0,0.0,0.0,0.0,0.0,0.0,0.0,0.0,0.0,0.0,0.0,0.0,0.0,0.0,0.0,0.0,0.0,0.0,0.0,0.0,0.0,0.0,0.0,0.0,0.0,0.0,0.0,0.0,0.0,0.0,0.0,0.0,0.0,0.0,0.0,0.0,0.0,0.0,0.0,0.0,0.0,0.0,0.0,0.0,0.0,0.0,0.0,0.0,0.0,0.0,0.0,0.0,0.0,0.0,0.0,0.0,0.0,0.0,0.0,0.0,0.0,0.0,0.0,0.0,0.0,0.0,0.0,0.0,0.0,0.0,0.0,0.0,0.0,0.0,0.0,0.0,0.0,0.0,0.0,0.0,-4.3329,-4.3329,-4.3329,-4.3329,-4.3329,-4.3329,-4.3329,-4.3329,-4.3329,0.0,0.0,0.0,0.0,0.0,0.0,0.0,0.0,0.0,0.0,0.0,0.0,0.0,0.0,0.0,0.0,0.0,0.0,0.0,0.0,0.0,0.0,0.0,0.0,0.0,0.0,0.0,0.0,0.0,0.0,0.0,0.0,0.0,0.0,0.0,0.0,0.0,0.0,0.0,0.0,0.0,0.0,0.0,0.0,0.0,0.0,0.0,0.0,0.0,0.0,0.0,0.0,0.0,0.0,0.0,0.0,0.0,0.0,0.0,0.0,0.0,0.0,0.0,0.0,0.0,0.0,0.0,0.0,0.0,0.0,0.0,0.0,0.0,0.0,0.0,0.0,0.0,0.0,0.0,0.0,0.0,0.0,0.0,0.0,0.0,0.0,0.0,0.0,0.0,0.0,0.0,0.0,0.0,0.0,0.0,0.0,0.0,0.0,0.0,0.0,0.0,0.0,-4.3329,-4.3329,-4.3329,-4.3329,-4.3329,-4.3329,-4.3329,-4.3329,-4.3329,-4.3329,0.0,0.0,0.0,0.0,0.0,0.0,0.0,0.0,0.0,0.0,0.0,0.0,0.0,0.0,0.0,0.0,0.0,0.0,0.0,0.0,0.0,0.0,0.0,0.0,0.0,0.0,0.0,0.0,0.0,0.0,0.0,0.0,0.0,0.0,0.0,0.0,0.0,0.0,0.0,0.0,0.0,0.0,0.0,0.0,0.0,0.0,0.0,0.0,0.0,0.0,0.0,0.0,0.0,0.0,0.0,0.0,0.0,0.0,0.0,0.0,0.0,0.0,0.0,0.0,0.0,0.0,0.0,0.0,0.0,0.0,0.0,0.0,0.0,0.0,0.0,0.0,0.0,0.0,0.0,0.0,0.0,0.0,0.0,0.0,0.0,0.0,0.0,0.0,0.0,0.0,0.0,0.0,0.0,0.0,0.0,0.0,0.0,0.0,0.0,0.0,0.0,0.0,-4.3329,-4.3329,-4.3329,-4.3329,-4.3329,-4.3329,-4.3329,-4.3329,-4.3329,0.0,0.0,0.0,0.0,0.0,0.0,0.0,0.0,0.0,0.0,0.0,0.0,0.0,0.0,0.0,0.0,0.0,0.0,0.0,0.0,0.0,0.0,0.0,0.0,0.0,0.0,0.0,0.0,0.0,0.0,0.0,0.0,0.0,0.0,0.0,0.0,0.0,0.0,0.0,0.0,0.0,0.0,0.0,0.0,0.0,0.0,0.0,0.0,0.0,0.0,0.0,0.0,0.0,0.0,0.0,0.0,0.0,0.0,0.0,0.0,0.0,0.0,0.0,0.0,0.0,0.0,0.0,0.0,0.0,0.0,0.0,0.0,0.0,0.0,0.0,0.0,0.0,0.0,0.0,0.0,0.0,0.0,0.0,0.0,0.0,0.0,0.0,0.0,0.0,0.0,0.0,0.0,0.0,0.0,0.0,0.0,0.0,0.0,0.0,0.0,0.0,0.0,0.0,-4.3329,-4.3329,-4.3329,-4.3329,-4.3329,-4.3329,-4.3329,-4.3329,-4.3329,-4.3329,0.0,0.0,0.0,0.0,0.0,0.0,0.0,0.0,0.0,0.0,0.0,0.0,0.0,0.0,0.0,0.0,0.0,0.0,0.0,0.0,0.0,0.0,0.0,0.0,0.0,0.0,0.0,0.0,0.0,0.0,0.0,0.0,0.0,0.0,0.0,0.0,0.0,0.0,0.0,0.0,0.0,0.0,0.0,0.0,0.0,0.0,0.0,0.0,0.0,0.0,0.0,0.0,0.0,0.0,0.0,0.0,0.0,0.0,0.0,0.0,0.0,0.0,0.0,0.0,0.0,0.0,0.0,0.0,0.0,0.0,0.0,0.0,0.0,0.0,0.0,0.0,0.0,0.0,0.0,0.0,0.0,0.0,0.0,0.0,0.0,0.0,0.0,0.0,0.0,0.0,0.0,0.0,0.0,0.0,0.0,0.0,0.0,0.0,0.0,0.0,0.0,0.0,-4.3329,-4.3329,-4.3329,-4.3329,-4.3329,-4.3329,-4.3329,-4.3329,-4.3329,-4.3329,0.0,0.0,0.0,0.0,0.0,0.0,0.0,0.0,0.0,0.0,0.0,0.0,0.0,0.0,0.0,0.0,0.0,0.0,0.0,0.0,0.0,0.0,0.0,0.0,0.0,0.0,0.0,0.0,0.0,0.0,0.0,0.0,0.0,0.0,0.0,0.0,0.0,0.0,0.0,0.0,0.0,0.0,0.0,0.0,0.0,0.0,0.0,0.0,0.0,0.0,0.0,0.0,0.0,0.0,0.0,0.0,0.0,0.0,0.0,0.0,0.0,0.0,0.0,0.0,0.0,0.0,0.0,0.0,0.0,0.0,0.0,0.0,0.0,0.0,0.0,0.0,0.0,0.0,0.0,0.0,0.0,0.0,0.0,0.0,0.0,0.0,0.0,0.0,0.0,0.0,0.0,0.0,0.0,0.0,0.0,0.0,0.0,0.0,0.0,0.0,0.0,0.0,-4.3329,-4.3329,-4.3329,-4.3329,-4.3329,-4.3329,-4.3329,-4.3329,-4.3329,-4.3329,0.0,0.0,0.0,0.0,0.0,0.0,0.0,0.0,0.0,0.0,0.0,0.0,0.0,0.0,0.0,0.0,0.0,0.0,0.0,0.0,0.0,0.0,0.0,0.0,0.0,0.0,0.0,0.0,0.0,0.0,0.0,0.0,0.0,0.0,0.0,0.0,0.0,0.0,0.0,0.0,0.0,0.0,0.0,0.0,0.0,0.0,0.0,0.0,0.0,0.0,0.0,0.0,0.0,0.0,0.0,0.0,0.0,0.0,0.0,0.0,-4.0187,-4.0187,0.0,0.0,0.0,0.0,0.0,0.0,0.0,0.0,0.0,0.0,0.0,0.0,0.0,0.0,0.0,0.0,0.0,0.0,0.0,0.0,0.0,0.0,0.0,0.0,0.0,0.0,0.0,0.0,0.0,0.0,0.0,0.0,0.0,0.0,0.0,0.0,0.0,0.0,0.0,0.0,-4.3329,-4.3329,-4.3329,-4.3329,-4.3329,-4.3329,-4.3329,-4.3329,-4.3329,-4.3329,-4.3329,0.0,0.0,0.0,0.0,0.0,0.0,0.0,0.0,0.0,0.0,0.0,0.0,0.0,0.0,0.0,0.0,0.0,0.0,0.0,0.0,0.0,0.0,0.0,0.0,0.0,0.0,0.0,0.0,0.0,0.0,0.0,0.0,0.0,0.0,0.0,0.0,0.0,0.0,0.0,0.0,0.0,0.0,0.0,0.0,0.0,0.0,0.0,0.0,0.0,0.0,0.0,0.0,0.0,0.0,0.0,0.0,0.0,0.0,0.0,-4.0876,-4.0876,0.0,0.0,0.0,0.0,0.0,0.0,0.0,0.0,0.0,0.0,0.0,0.0,0.0,0.0,0.0,0.0,0.0,0.0,0.0,0.0,0.0,0.0,0.0,0.0,0.0,0.0,0.0,0.0,0.0,0.0,0.0,0.0,0.0,0.0,0.0,0.0,0.0,0.0,0.0,0.0,-4.3329,-4.3329,-4.3329,-4.3329,-4.3329,-4.3329,-4.3329,-4.3329,-4.3329,-4.3329,-4.3329,0.0,0.0,0.0,0.0,0.0,0.0,0.0,0.0,0.0,0.0,0.0,0.0,0.0,0.0,0.0,0.0,0.0,0.0,0.0,0.0,0.0,0.0,0.0,0.0,0.0,0.0,0.0,0.0,0.0,0.0,0.0,0.0,0.0,0.0,0.0,0.0,0.0,0.0,0.0,0.0,0.0,0.0,0.0,0.0,0.0,0.0,0.0,0.0,0.0,0.0,0.0,0.0,0.0,-4.0142,-4.0457,-4.0591,-4.125,-4.1549,-4.1564,-4.1669,-4.1654,-4.1609,-4.2267,0.0,0.0,0.0,0.0,0.0,0.0,0.0,0.0,0.0,0.0,0.0,0.0,0.0,0.0,0.0,0.0,0.0,0.0,0.0,0.0,0.0,0.0,-4.3329,-4.3329,-4.3329,-4.3329,-4.3329,0.0,0.0,0.0,0.0,0.0,0.0,0.0,0.0,0.0,0.0,0.0,-4.3329,-4.3329,-4.3374,-4.3494,-4.3509,-4.3554,-4.3658,-4.3673,-4.3673,-4.3673,-4.3569,-4.3509,0.0,0.0,0.0,0.0,0.0,0.0,0.0,0.0,0.0,0.0,0.0,0.0,0.0,0.0,0.0,0.0,0.0,0.0,0.0,0.0,0.0,0.0,0.0,0.0,0.0,0.0,0.0,0.0,0.0,0.0,0.0,0.0,-3.5714,-3.6297,0.0,0.0,0.0,0.0,0.0,0.0,0.0,0.0,0.0,0.0,0.0,0.0,0.0,-3.9424,-3.9424,-3.9424,-3.9709,-4.0277,-4.0367,-4.0696,-4.1265,-4.1938,-4.2314,-4.2267,-4.2836,0.0,-4.2282,-4.294,0.0,0.0,0.0,0.0,0.0,0.0,0.0,0.0,0.0,0.0,0.0,0.0,0.0,0.0,0.0,0.0,0.0,0.0,0.0,0.0,0.0,0.0,-4.3329,-4.3329,-4.3329,-4.3329,-4.3329,-4.3329,-4.3329,-4.3329,-4.3329,-4.3329,0.0,0.0,0.0,0.0,0.0,0.0,-4.3329,-4.3329,-4.3554,-4.4122,-4.4182,-4.4407,-4.499,-4.5035,-4.5035,-4.5035,-4.4496,-4.4182,-4.4182,-4.3643,0.0,0.0,0.0,0.0,0.0,0.0,0.0,0.0,0.0,0.0,0.0,0.0,0.0,0.0,0.0,0.0,0.0,0.0,0.0,0.0,0.0,0.0,0.0,0.0,0.0,0.0,0.0,0.0,0.0,-3.5821,-3.6157,-3.6485,-3.6821,-3.7255,0.0,0.0,0.0,0.0,0.0,0.0,0.0,0.0,0.0,-3.8546,-3.9104,-3.9589,-3.9963,-3.9963,-4.0307,-4.095,-4.1324,-4.1654,-4.1953,-4.2611,-4.291,-4.2925,-4.321,-4.3165,-4.294,-4.321,-4.3329,-4.3329,0.0,0.0,0.0,0.0,-4.3329,-4.3329,-4.3329,-4.3329,-4.3329,-4.3329,0.0,0.0,0.0,0.0,0.0,0.0,0.0,-4.3329,-4.3329,-4.3329,-4.3329,-4.3329,-4.3329,-4.3329,-4.3329,-4.3329,-4.3329,-4.3329,-4.3329,-4.3329,-4.3329,-4.3329,0.0,0.0,0.0,-4.3883,-4.3883,-4.4212,-4.4541,-4.4825,-4.487,-4.4975,-4.5274,-4.5289,-4.5289,-4.5289,-4.502,-4.487,-4.487,-4.4586,-4.4436,0.0,0.0,0.0,0.0,0.0,0.0,0.0,0.0,0.0,0.0,0.0,0.0,0.0,0.0,0.0,0.0,0.0,0.0,0.0,0.0,0.0,0.0,0.0,0.0,0.0,0.0,0.0,0.0,-3.6179,-3.6585,-3.6939,-3.7351,-3.7913,0.0,0.0,0.0,0.0,0.0,0.0,-3.8234,-3.8708,-3.8782,-3.8234,-3.918,-3.9903,-4.0397,-4.0561,-4.098,-4.1639,-4.2132,-4.2447,-4.2626,-4.312,-4.3329,-4.3329,-4.3329,-4.3329,-4.3329,-4.3329,-4.3329,-4.3329,-4.3329,-4.3329,-4.3329,-4.3329,-4.3329,-4.3329,-4.3329,-4.3329,-4.3329,-4.3329,-4.3329,-4.3329,-4.3329,0.0,0.0,0.0,0.0,-4.3329,-4.3329,-4.3329,-4.3329,-4.3329,-4.3329,-4.3329,-4.3329,-4.3329,-4.3329,-4.3329,-4.3329,-4.3329,-4.3329,-4.3464,0.0,-4.3584,-4.4152,-4.4571,-4.4571,-4.499,-4.5364,-4.5544,-4.5559,-4.5633,-4.5798,-4.5798,-4.5798,-4.5798,-4.5648,-4.5559,-4.5559,-4.5394,-4.5289,-4.5289,0.0,0.0,0.0,0.0,0.0,0.0,0.0,0.0,0.0,0.0,0.0,0.0,0.0,0.0,0.0,0.0,0.0,0.0,0.0,0.0,0.0,0.0,0.0,0.0,0.0,0.0,0.0,0.0,0.0,-3.8182,-3.8317,0.0,0.0,0.0,0.0,-3.9424,-3.8472,-3.8308,-3.9265,-3.8383,-3.8308,-3.9265,-4.0023,-4.0367,-4.0397,-4.1025,-4.1669,-4.2312,-4.2342,-4.2686,-4.3284,-4.3329,-4.3329,-4.3329,-4.3329,-4.3329,-4.3329,-4.3329,-4.3329,-4.3329,-4.3329,-4.3329,-4.3329,-4.3329,-4.3329,-4.3329,-4.3329,-4.3329,-4.3329,-4.3329,-4.3329,-4.3329,-4.3329,-4.3329,0.0,0.0,-4.3329,-4.3329,-4.3329,-4.3329,-4.3329,-4.3329,-4.3329,-4.3329,-4.3329,-4.3329,-4.3329,-4.3329,-4.3329,-4.3329,-4.3329,0.0,-4.4272,-4.4272,-4.4825,-4.5244,-4.5244,-4.5274,-4.5544,-4.6202,-4.6277,-4.6531,-4.716,-4.7204,-4.7204,-4.7204,-4.6621,-4.6277,-4.6277,-4.5648,-4.5289,-4.5289,-4.5259,0.0,0.0,0.0,0.0,0.0,0.0,0.0,0.0,0.0,0.0,0.0,0.0,0.0,0.0,0.0,0.0,0.0,0.0,0.0,0.0,0.0,0.0,0.0,0.0,0.0,0.0,0.0,0.0,-3.8347,-3.8758,0.0,-3.9394,-3.9424,-3.9424,-3.9424,-3.9031,-3.8383,-3.7405,-3.8294,-3.8573,-3.8018,-3.9547,-4.0801,-4.1654,-4.1893,-4.2342,-4.2985,-4.2985,-4.3105,-4.3329,-4.3329,-4.3329,-4.3329,-4.3329,-4.3329,-4.3329,-4.3329,-4.3329,-4.3329,-4.3329,-4.3329,-4.3329,-4.3329,-4.3329,-4.3329,-4.3329,-4.3329,-4.3329,-4.3329,-4.3329,-4.3329,-4.3329,-4.3329,-4.3329,-4.3329,-4.3329,-4.3329,-4.3329,-4.3329,-4.3329,-4.3329,-4.3329,-4.3329,-4.3329,-4.3329,-4.3464,-4.3883,-4.3958,-4.3958,-4.3958,-4.4511,-4.4945,-4.4945,-4.5514,-4.5963,-4.5963,-4.6322,-4.6681,-4.6935,-4.695,-4.7055,-4.7279,-4.7309,-4.7309,-4.7309,-4.7085,-4.695,-4.695,-4.6711,-4.6591,-4.6591,-4.6172,-4.5963,0.0,0.0,0.0,0.0,0.0,0.0,0.0,0.0,0.0,0.0,0.0,0.0,0.0,0.0,0.0,0.0,0.0,0.0,0.0,0.0,0.0,0.0,0.0,0.0,0.0,-3.7863,-3.8455,-3.8733,-3.9116,-3.9424,-3.9424,-3.9424,-3.9424,-3.9424,-3.9031,-3.847,-3.7628,-3.8614,-3.8996,-3.866,-4.0209,-4.1474,-4.2434,-4.2581,-4.2895,-4.3329,-4.3329,-4.3329,-4.3329,-4.3329,-4.3329,-4.3329,-4.3329,-4.3329,-4.3329,-4.3329,-4.3329,-4.3329,-4.3329,-4.3329,-4.3329,-4.3329,-4.3329,-4.3329,-4.3329,-4.3329,-4.3329,-4.3329,-4.3329,-4.3329,-4.3329,-4.3329,-4.3329,-4.3329,-4.3329,-4.3329,-4.3329,-4.3329,-4.3329,-4.3329,-4.3329,-4.3389,-4.3614,-4.3658,-4.3868,-4.4526,-4.4466,-4.4392,-4.4601,-4.52,-4.5648,-4.5648,-4.6217,-4.6651,-4.6651,-4.704,-4.7309,-4.7309,-4.7309,-4.7309,-4.7309,-4.7309,-4.7309,-4.7309,-4.7309,-4.7309,-4.7309,-4.7309,-4.7309,-4.7309,-4.6875,-4.6546,-4.6322,0.0,0.0,0.0,0.0,0.0,0.0,0.0,0.0,0.0,0.0,0.0,0.0,0.0,0.0,0.0,0.0,0.0,0.0,0.0,0.0,0.0,0.0,0.0,-3.8396,-3.8411,-3.8703,-3.9307,-3.9424,-3.9424,-3.9424,-3.9424,-3.9424,-3.9424,-3.8486,-3.86,-4.0278,-3.9437,-3.9667,-4.1308,-4.2028,-4.2372,-4.2387,-4.3015,-4.3329,-4.3329,-4.3329,-4.3329,-4.3329,-4.3329,-4.3329,-4.3329,-4.3329,-4.3329,-4.3329,-4.3329,-4.3329,-4.3329,-4.3329,-4.3329,-4.3329,-4.3329,-4.3329,-4.3329,-4.3329,-4.3329,-4.3329,-4.3329,-4.3329,-4.3329,-4.3329,-4.3329,-4.3329,-4.3329,-4.3329,-4.3329,-4.3329,-4.3329,-4.3344,-4.3359,-4.3359,-4.3539,-4.4212,-4.4347,-4.4541,-4.52,-4.4811,-4.4586,-4.5214,-4.5903,-4.6352,-4.6352,-4.689,0.0,-4.7309,-4.7309,-4.7309,-4.7309,-4.7309,-4.7309,-4.7309,-4.7309,-4.7309,-4.7309,-4.7309,-4.7309,-4.7309,-4.7309,-4.7309,-4.7309,-4.7309,-4.6995,-4.6352,0.0,0.0,0.0,0.0,0.0,0.0,0.0,0.0,0.0,0.0,0.0,0.0,0.0,0.0,0.0,0.0,0.0,0.0,0.0,0.0,0.0,-3.8731,-3.8937,-3.8445,-3.8803,-3.9218,-3.9409,-3.9424,-3.9424,-3.9424,-3.9424,-3.9424,-3.9424,-3.955,-3.9563,-3.9255,-4.0182,-4.0742,-4.0967,-4.1926,-4.2581,-4.306,-4.324,-4.3329,-4.3329,-4.3329,-4.3329,-4.3329,-4.3329,-4.3329,-4.3329,-4.3329,-4.3329,-4.3329,-4.3329,-4.3329,-4.3329,-4.3329,-4.3329,-4.3329,-4.3329,-4.3329,-4.3329,-4.3329,-4.3329,-4.3329,-4.3329,-4.3329,-4.3329,-4.3329,-4.3329,-4.3329,-4.3329,-4.3329,-4.3329,-4.3329,-4.3329,-4.3449,-4.3928,-4.4047,-4.4227,-4.4885,-4.5035,-4.5229,-4.5903,-4.5903,-4.5828,-4.6007,-4.6591,-4.704,-4.704,-4.7189,-4.7309,-4.7309,-4.7309,-4.7309,-4.7309,-4.7309,-4.7309,-4.7309,-4.7309,-4.7309,-4.7309,-4.7309,-4.7309,-4.7309,-4.7309,-4.7309,-4.7309,-4.7309,-4.7219,0.0,0.0,0.0,0.0,0.0,0.0,0.0,0.0,0.0,0.0,0.0,0.0,0.0,0.0,0.0,0.0,0.0,0.0,0.0,0.0,0.0,0.0,-3.913,-3.9275,-3.8871,-3.917,-3.9424,-3.9424,-3.9424,-3.9424,-3.9424,-3.9424,-3.9529,-3.9813,-4.0187,-4.0397,-4.0275,-4.1243,-4.1841,-4.188,-4.2416,-4.2955,-4.3329,-4.3329,-4.3329,-4.3329,-4.3329,-4.3329,-4.3329,-4.3329,-4.3329,-4.3329,-4.3329,-4.3329,-4.3329,-4.3329,-4.3329,-4.3329,0.0,0.0,0.0,0.0,-4.3329,-4.3329,-4.3329,-4.3329,-4.3329,-4.3329,-4.3329,-4.3329,-4.3329,-4.3329,-4.3329,-4.3329,-4.3329,-4.3329,-4.3329,-4.3539,-4.3838,-4.4227,-4.4526,-4.49,-4.5574,-4.5723,-4.5933,-4.6606,-4.6741,0.0,-4.6741,-4.7055,-4.7309,-4.7309,-4.7309,-4.7309,-4.7309,-4.7309,-4.7309,-4.7309,-4.7309,-4.7309,-4.7309,-4.7309,0.0,0.0,0.0,-4.7309,-4.7309,-4.7309,0.0,0.0,0.0,-4.7309,-4.7309,-4.7309,0.0,0.0,-4.5986,-4.5957,0.0,0.0,0.0,0.0,0.0,0.0,0.0,0.0,0.0,0.0,0.0,0.0,0.0,0.0,0.0,0.0,-3.9424,-3.9424,-3.9424,-3.9424,-3.9424,-3.9424,-3.9424,-3.9454,-3.9529,-3.9529,-3.9798,-4.0457,-4.0576,-4.113,-4.2297,-4.2432,0.0,0.0,0.0,-4.3329,-4.3329,-4.3329,-4.3329,-4.3329,-4.3329,-4.3329,-4.3329,-4.3329,-4.3329,-4.3329,-4.3329,-4.3329,-4.3329,-4.3329,-4.3329,-4.3329,-4.3329,-4.3329,-4.3329,-4.3329,-4.3329,-4.3329,-4.3329,0.0,0.0,-4.3329,-4.3329,-4.3329,-4.3329,-4.3329,-4.3329,-4.3329,-4.3389,-4.3449,-4.3449,-4.3928,-4.4451,-4.4526,-4.499,-4.5603,-4.6292,-4.6426,-4.6606,-4.7189,-4.7309,-4.7309,-4.7309,-4.7309,-4.7309,-4.7309,-4.7309,-4.7309,-4.7309,-4.7309,-4.7309,-4.7309,-4.7309,0.0,-4.7309,-4.7309,-4.7309,-4.7309,-4.7309,-4.7309,-4.7309,-4.7309,-4.7309,-4.7309,-4.7309,-4.7309,-4.7309,-4.7309,-4.7309,-4.7309,-4.6166,-4.6255,0.0,0.0,0.0,0.0,0.0,0.0,0.0,0.0,0.0,0.0,0.0,0.0,0.0,0.0,0.0,-3.9409,-3.9424,-3.9424,-3.9424,-3.9424,-3.9424,-3.9424,-3.9424,-3.9634,-4.0157,-4.0217,-4.0487,-4.1145,-4.1683,-4.2087,-4.2434,-4.2865,-4.321,-4.3329,-4.3329,-4.3329,-4.3329,-4.3329,-4.3329,-4.3329,-4.3329,0.0,-4.3329,-4.3329,-4.3329,-4.3329,-4.3329,-4.3329,-4.3329,-4.3329,-4.3329,-4.3329,-4.3329,-4.3329,-4.3329,-4.3329,-4.3329,-4.3329,-4.3329,-4.3329,-4.3329,-4.3329,-4.3329,-4.3329,-4.3329,-4.3329,0.0,-4.3329,-4.3718,-4.4122,-4.4122,-4.4601,-4.5244,-4.5798,-4.6037,-4.6307,-4.698,-4.7115,-4.716,-4.7279,-4.7309,-4.7309,-4.7309,-4.7309,-4.7309,-4.7309,-4.7309,-4.7309,-4.7309,-4.7309,-4.7309,-4.7309,-4.7309,-4.7309,-4.7309,-4.7309,-4.7309,-4.7309,-4.7309,-4.7309,-4.7309,-4.7309,-4.7309,-4.7309,-4.7309,-4.7309,-4.7309,-4.7309,-4.7309,-4.7309,-4.7019,-4.7019,0.0,0.0,0.0,0.0,0.0,0.0,0.0,0.0,0.0,0.0,0.0,-3.8969,-3.9307,0.0,-3.9424,-3.9424,-3.9424,-3.9424,-3.9424,-3.9424,-3.9424,-3.9424,-3.9709,-4.0038,-4.0367,-4.0696,-4.116,-4.1818,-4.2177,-4.2506,-4.2821,-4.3165,-4.3329,-4.3329,-4.3329,-4.3329,-4.3329,-4.3329,-4.3329,-4.3329,-4.3329,-4.3329,-4.3329,-4.3329,-4.3329,-4.3329,-4.3329,-4.3329,-4.3329,-4.3329,-4.3329,-4.3329,-4.3329,-4.3329,-4.3329,-4.3329,-4.3329,-4.3329,-4.3329,-4.3329,-4.3329,-4.3329,-4.3329,-4.3329,-4.3329,-4.3569,-4.3823,-4.3823,-4.4302,-4.4811,-4.4811,-4.5304,-4.5903,-4.6247,-4.6576,-4.6905,-4.7234,-4.7309,-4.7309,-4.7309,-4.7309,-4.7309,-4.7309,-4.7309,-4.7309,-4.7309,-4.7309,-4.7309,-4.7309,-4.7309,-4.7309,-4.7309,-4.7593,-4.7803,-4.7803,-4.8102,-4.8282,-4.8282,-4.8282,-4.8282,-4.8282,-4.8282,-4.8282,-4.8282,-4.8282,-4.8282,-4.8282,-4.8282,-4.8282,-4.8282,-4.7598,-4.7046,0.0,0.0,0.0,0.0,0.0,0.0,0.0,-3.8587,-3.8748,-3.9277,-3.9424,-3.9424,-3.9424,-3.9424,-3.9424,-3.9424,-3.9424,-3.9424,-3.9424,-3.9529,-3.9604,-3.9604,-4.0083,-4.0502,-4.0756,-4.1265,-4.1848,-4.2506,-4.2551,-4.2776,-4.3299,-4.3329,-4.3329,-4.3329,-4.3329,-4.3329,-4.3329,-4.3329,-4.3329,-4.3329,-4.3329,-4.3329,-4.3329,-4.3329,-4.3329,-4.3329,-4.3329,-4.3329,-4.3329,-4.3329,-4.3329,-4.3329,-4.3329,-4.3329,-4.3329,-4.3329,-4.3329,-4.3329,-4.3329,-4.3329,-4.3329,-4.3329,-4.3419,-4.3524,-4.3524,-4.3988,-4.4511,-4.4511,-4.499,-4.5484,-4.5484,-4.5992,-4.6516,-4.6516,-4.692,-4.7309,-4.7309,-4.7309,-4.7309,-4.7309,-4.7309,-4.7309,-4.7309,-4.7309,-4.7309,-4.7309,-4.7309,-4.7309,-4.7309,-4.7414,-4.7489,-4.7489,-4.8087,-4.8476,-4.8476,-4.8955,-4.9269,-4.9269,-4.9269,-4.9269,-4.9269,-4.9269,-4.9269,-4.9269,-4.9269,-4.9269,-4.9269,-4.9269,-4.9269,-4.9269,-4.8175,-4.7203,-3.9902,-3.857,-3.7539,-3.8165,-3.832,-3.844,0.0,-3.9277,-3.9292,-3.9409,-3.9424,-3.9424,-3.9424,-3.9424,-3.9424,-3.9424,-3.9424,-3.9424,-3.9424,-3.9918,-4.0292,-4.0292,-4.0352,-4.0861,-4.2028,-4.2207,-4.2521,-4.3165,-4.3225,-4.3254,-4.3329,-4.3329,-4.3329,-4.3329,-4.3329,-4.3329,-4.3329,-4.3329,-4.3329,-4.3329,-4.3329,-4.3329,-4.3329,-4.3329,-4.3329,-4.3329,-4.3329,-4.3329,-4.3329,-4.3329,-4.3329,-4.3329,-4.3329,-4.3329,-4.3329,-4.3329,-4.3329,-4.3329,-4.3329,-4.3329,-4.3329,-4.3329,-4.3718,-4.4212,-4.4212,-4.4661,-4.5185,-4.5185,-4.5678,-4.6217,-4.6217,-4.6696,-4.7189,-4.7189,-4.7249,-4.7309,-4.7309,-4.7309,-4.7309,-4.7309,-4.7309,-4.7309,-4.7309,-4.7309,-4.7309,-4.7309,-4.7309,-4.7309,-4.7309,-4.7818,-4.8177,-4.8177,-4.876,-4.9164,-4.9164,-4.9224,-4.9269,-4.9269,-4.9269,-4.9269,-4.9269,-4.9269,-4.9269,-4.9269,-4.9269,-4.9269,-4.9269,-4.9269,-4.9269,-4.9269,-4.9164,-4.833,-3.9959,-3.9204,-3.8697,-3.8912,-3.8954,-3.9071,-3.9307,-3.9424,-3.9424,-3.9424,-3.9424,-3.9424,-3.9424,-3.9424,-3.9424,-3.9424,-3.9738,-3.9993,-3.9993,-4.0561,-4.1115,-4.1489,-4.1534,-4.1758,-4.2312,-4.2701,-4.3045,-4.3314,-4.3329,-4.3329,-4.3329,-4.3329,-4.3329,-4.3329,-4.3329,-4.3329,-4.3329,-4.3329,-4.3329,-4.3329,-4.3329,-4.3329,-4.3329,-4.3329,-4.3329,-4.3329,-4.3329,-4.3329,-4.3329,-4.3329,-4.3329,-4.3329,-4.3329,-4.3329,-4.3329,-4.3329,-4.3329,-4.3329,-4.3329,-4.3329,-4.3389,-4.3778,-4.4092,-4.4392,-4.4766,-4.5364,-4.5888,-4.5888,-4.6381,-4.689,-4.689,-4.71,-4.7309,-4.7309,-4.7309,-4.7309,-4.7309,-4.7309,-4.7309,-4.7309,-4.7309,-4.7309,-4.7309,-4.7309,-4.7429,-4.7818,-4.7878,-4.7878,-4.7878,-4.8446,-4.9,-4.9389,-4.9673,-4.9987,-5.0361,-5.0406,-5.0406,-5.0406,-5.0406,-5.0406,-5.0406,-5.0406,-5.0406,-5.0406,-5.0406,-5.0406,-5.0406,-5.0406,-5.0406,-5.0406,-4.9587,-4.848,-4.0107,-3.9721,-3.952,-3.941,-3.9601,-3.9661,-3.9454,-3.9601,-3.9661,-3.9454,-3.9424,-3.9424,-3.9424,-3.9424,-3.9484,-3.9664,-4.0083,-4.0457,-4.0651,-4.1235,-4.1833,-4.2297,-4.2521,-4.2626,-4.2626,-4.3045,-4.3329,-4.3329,-4.3329,-4.3329,-4.3329,-4.3329,-4.3329,-4.3329,-4.3329,-4.3329,-4.3329,-4.3329,-4.3329,-4.3329,-4.3329,-4.3329,-4.3329,-4.3329,-4.3329,-4.3329,-4.3329,-4.3329,-4.3329,-4.3329,-4.3329,-4.3329,-4.3329,-4.3329,-4.3329,-4.3329,-4.3329,-4.3359,-4.3539,-4.3599,-4.3718,-4.4377,-4.4706,-4.496,-4.5439,-4.6052,-4.6591,-4.6591,-4.6935,-4.7309,-4.7309,-4.7309,-4.7309,-4.7309,-4.7309,-4.7309,-4.7309,-4.7309,-4.7309,-4.7309,-4.7309,-4.7309,-4.7309,-4.7459,-4.7743,-4.8222,-4.8596,-4.876,-4.8581,-4.9134,-4.9793,-5.0436,-5.0511,-5.0705,-5.1184,-5.1214,-5.1214,-5.1214,-5.1214,-5.1214,-5.1214,-5.1214,-5.1214,-5.1214,-5.1214,-5.1214,-5.1214,-5.1214,-5.1214,-5.1214,-5.0191,-4.8851,-4.0655,-4.0071,-3.9436,-3.9409,-4.0016,-4.0474,-3.9601,-4.0016,-4.0387,-3.9586,-3.9424,-3.9424,-3.9424,-3.9424,-3.9634,-4.0262,-4.0382,-4.0621,-4.1265,-4.1923,-4.2419,-4.2357,-4.2925,-4.3299,-4.3299,-4.3329,-4.3329,-4.3329,-4.3329,-4.3329,-4.3329,-4.3329,-4.3329,-4.3329,-4.3329,-4.3329,-4.3329,-4.3329,-4.3329,-4.3329,-4.3329,-4.3329,-4.3329,-4.3329,-4.3329,-4.3329,-4.3329,-4.3329,-4.3329,-4.3329,-4.3329,-4.3329,-4.3329,-4.3329,-4.3329,-4.3329,-4.3329,-4.3419,-4.4062,-4.4287,-4.4392,-4.505,-4.5723,-4.6262,-4.6292,-4.6756,-4.7279,-4.7279,-4.7294,-4.7309,-4.7309,-4.7309,-4.7309,-4.7309,-4.7309,-4.7309,-4.7309,-4.7309,-4.7309,-4.7309,-4.7309,-4.7309,-4.7309,-4.7833,-4.8267,-4.8282,-4.9359,-4.9957,-4.9314,-4.9808,-5.0466,-5.1124,-5.1184,-5.1199,-5.1214,-5.1214,-5.1214,-5.1214,-5.1214,-5.1214,-5.1214,-5.1214,-5.1214,-5.1214,-5.1214,-5.1214,-5.1214,-5.1214,-5.1214,-5.1214,-5.112,-4.9679,-4.051,-4.0047,-3.9571,-4.0133,-4.0016,-3.9778,-3.9454,-3.9631,-3.9763,-3.9454,-3.9424,-3.9424,-3.9424,-3.9768,-4.0142,-4.0367,-4.113,-4.1773,-4.1998,-4.2596,-4.3015,-4.3015,-4.321,-4.3329,-4.3329,-4.3329,-4.3329,-4.3329,-4.3329,-4.3329,-4.3329,-4.3329,-4.3329,-4.3329,-4.3329,-4.3329,-4.3329,-4.3329,-4.3329,-4.3329,-4.3329,-4.3329,-4.3329,-4.3329,-4.3329,-4.3329,-4.3329,-4.3329,-4.3329,-4.3329,-4.3329,-4.3329,-4.3329,-4.3329,-4.3389,-4.3823,-4.3988,-4.4018,-4.4242,-4.4601,-4.508,-4.5753,-4.6142,-4.6411,-4.6845,-4.713,-4.7309,-4.7309,-4.7309,-4.7309,-4.7309,-4.7309,-4.7309,-4.7309,-4.7309,-4.7309,-4.7309,-4.7309,-4.7309,-4.7309,-4.7653,-4.7952,-4.7952,-4.8506,-4.909,-4.9523,-4.9957,-5.0316,-5.0541,-5.075,-5.0975,-5.1199,-5.1214,-5.1214,-5.1214,-5.1214,-5.1214,-5.1214,-5.1214,-5.1214,-5.1214,-5.1214,-5.1214,-5.1214,-5.1214,-5.1214,-5.1214,-5.1214,-5.1214,-5.1214,-5.1214,-4.9776,-4.0906,-4.0739,-4.0446,-4.1006,-4.0724,-4.0281,-3.9956,-3.9839,-3.9793,-3.9454,-3.9424,-3.9484,-3.9723,-4.0113,-4.0561,-4.1025,-4.1818,-4.2447,-4.2671,-4.3075,-4.3329,-4.3329,-4.3329,-4.3329,-4.3329,-4.3329,-4.3329,-4.3329,-4.3329,-4.3329,-4.3329,-4.3329,-4.3329,-4.3329,-4.3329,-4.3329,-4.3329,-4.3329,-4.3329,-4.3329,-4.3329,-4.3329,-4.3329,-4.3329,-4.3329,-4.3329,-4.3329,-4.3329,-4.3329,-4.3329,-4.3329,-4.3329,-4.3329,-4.3479,-4.3733,-4.4152,-4.4616,-4.5035,-4.5035,-4.5304,-4.5783,-4.6456,-4.6681,-4.6756,-4.7174,-4.7309,-4.7309,-4.7309,-4.7309,-4.7309,-4.7309,-4.7309,-4.7309,-4.7309,-4.7309,-4.7309,-4.7309,-4.7309,-4.7369,-4.7608,-4.7997,-4.8356,-4.8596,-4.9179,-4.9838,-5.0496,-5.0586,-5.0735,-5.1169,-5.1214,-5.1214,-5.1214,-5.1214,-5.1214,-5.1214,-5.1214,-5.1214,-5.1214,-5.1214,-5.1214,-5.1214,-5.1214,-5.1214,-5.1214,-5.1214,-5.1214,-5.1214,-5.1214,-5.1214,-5.1214,-5.1214,-4.9776,-4.1848,-4.1997,-4.1966,-4.2003,-4.1917,-4.1637,-4.0902,-4.0652,-4.0444,-3.9658,-3.9409,-3.9619,-4.0277,-4.0427,-4.0876,-4.2147,-4.2387,-4.2626,-4.324,-4.3329,-4.3329,-4.3329,-4.3329,-4.3329,-4.3329,-4.3329,-4.3329,-4.3329,-4.3329,-4.3329,-4.3329,-4.3329,-4.3329,-4.3329,-4.3329,-4.3329,-4.3329,-4.3329,-4.3329,-4.3329,-4.3329,-4.3329,-4.3329,-4.3329,-4.3329,-4.3329,-4.3329,-4.3329,-4.3409,-4.3329,-4.3329,-4.3409,-4.3374,-4.3763,-4.4332,-4.4392,-4.5229,-4.6322,-4.6367,-4.6367,-4.6471,-4.71,-4.7309,-4.7309,-4.7309,-4.7309,-4.7309,-4.7309,-4.7309,-4.7309,-4.7309,-4.7309,-4.7309,-4.7309,-4.7309,-4.7309,-4.7309,-4.7339,-4.7534,-4.8162,-4.8341,-4.8596,-4.9254,-4.9883,-5.0496,-5.1124,-5.1214,-5.1214,-5.1214,-5.1214,-5.1214,-5.1214,-5.1214,-5.1214,-5.1214,-5.1214,-5.1214,-5.1214,-5.1214,-5.1214,-5.1214,-5.1214,-5.1214,-5.1214,-5.1214,-5.1214,-5.1214,-5.1214,-5.1214,-5.1214,-5.1214,-4.9776,-4.2714,-4.203,-4.1173,-4.186,-4.1008,-4.0141,-4.0578,-4.0167,-3.9847,-4.027,-3.9864,-3.9619,-4.0277,-4.0801,-4.1399,-4.2222,-4.2776,-4.3135,-4.3314,-4.3329,-4.3329,-4.3329,-4.3329,-4.3329,-4.3329,-4.3329,-4.3329,-4.3329,-4.3329,-4.3329,-4.3329,-4.3329,-4.3329,-4.3329,-4.3329,-4.3329,-4.3329,-4.3329,-4.3329,-4.3329,-4.3329,-4.3329,-4.3329,-4.3329,-4.3329,-4.3329,-4.3329,-4.3708,-4.4373,-4.363,-4.3771,-4.4419,-4.4172,-4.4167,-4.4436,-4.5439,-4.6037,-4.6396,-4.689,-4.7055,-4.7085,-4.7249,-4.7309,-4.7309,-4.7309,-4.7309,-4.7309,-4.7309,-4.7309,-4.7309,-4.7309,-4.7309,-4.7309,-4.7309,-4.7309,-4.7309,-4.7309,-4.7683,-4.8087,-4.8252,-4.9075,-4.9957,-5.0601,-5.0855,-5.102,-5.1184,-5.1214,-5.1214,-5.1214,-5.1214,-5.1214,-5.1214,-5.1214,-5.1214,-5.1214,-5.1214,-5.1214,-5.1214,-5.1214,-5.1214,-5.1214,-5.1214,-5.1214,-5.1214,-5.1214,-5.1214,-5.1214,-5.1214,-5.1214,-5.1214,-5.1214,-4.9776,-4.3637,-4.3172,-4.2551,-4.3024,-4.21,-4.1147,-4.1286,-4.0628,-3.999,-4.0115,-3.9964,-4.0053,-4.0711,-4.1369,-4.2028,-4.2686,-4.309,-4.3329,-4.3329,-4.3329,-4.3329,-4.3329,-4.3329,-4.3329,-4.3329,-4.3329,-4.3329,-4.3329,-4.3329,-4.3329,-4.3329,-4.3329,-4.3329,-4.3329,-4.3329,-4.3329,-4.3329,-4.3329,-4.3329,-4.3329,-4.3329,-4.3329,-4.3329,-4.3771,-4.3927,-4.3989,-4.4403,-4.4899,-4.5358,-4.484,-4.5086,-4.5845,-4.5202,-4.5327,-4.587,-4.619,-4.6516,-4.68,-4.7174,-4.7309,-4.7309,-4.7309,-4.7309,-4.7309,-4.7309,-4.7309,-4.7309,-4.7309,-4.7309,-4.7309,-4.7309,-4.7309,-4.7309,-4.7309,-4.7309,-4.7384,-4.7683,-4.8027,-4.8461,-4.903,-4.9972,-5.0795,-5.1154,-5.1214,-5.1214,-5.1214,-5.1214,-5.1214,-5.1214,-5.1214,-5.1214,-5.1214,-5.1214,-5.1214,-5.1214,-5.1214,-5.1214,-5.1214,-5.1214,-5.1214,-5.1214,-5.1214,-5.1214,-5.1214,-5.1214,-5.1214,-5.1214,-5.1214,-5.1364,-5.1648,-5.1648,-5.0652,-4.4361,-4.4519,-4.4412,-4.44,-4.368,-4.2814,-4.2125,-4.1213,-4.0393,-3.9787,-4.0066,-4.0621,-4.1369,-4.1983,-4.2581,-4.3225,-4.3329,-4.3329,-4.3329,-4.3329,-4.3329,-4.3329,-4.3329,-4.3329,-4.3329,-4.3329,-4.3329,-4.3329,-4.3329,-4.3329,-4.3329,-4.3329,-4.3329,-4.3329,-4.3329,-4.3329,-4.3329,-4.3329,-4.3329,-4.3329,-4.3329,-4.3329,-4.3329,-4.4373,-4.4812,-4.4887,-4.5762,-4.6244,-4.6384,-4.6244,-4.6747,-4.7405,-4.6307,-4.6609,-4.7673,-4.6803,-4.6815,-4.7309,-4.7309,-4.7309,-4.7309,-4.7309,-4.7309,-4.7309,-4.7309,-4.7309,-4.7309,-4.7309,-4.7309,-4.7309,-4.7309,-4.7309,-4.7309,-4.7309,-4.7369,-4.7593,-4.8162,-4.8416,-4.891,-5.0137,-5.0825,-5.1214,-5.1214,-5.1214,-5.1214,-5.1214,-5.1214,-5.1214,-5.1214,-5.1214,-5.1214,-5.1214,-5.1214,-5.1214,-5.1214,-5.1214,-5.1214,-5.1214,-5.1214,-5.1214,-5.1214,-5.1304,-5.1349,-5.1349,-5.1439,-5.1483,-5.1483,-5.1483,-5.1768,-5.2336,-5.2336,-5.1896,-4.4553,-4.4069,-4.3535,-4.3509,-4.2316,-4.1272,-4.1885,-4.0774,-3.996,-4.1045,-4.0788,-4.0771,-4.1968,-4.2282,-4.2581,-4.3225,-4.3329,-4.3329,-4.3329,-4.3329,-4.3329,-4.3329,-4.3329,-4.3329,-4.3329,-4.3329,-4.3329,-4.3329,-4.3329,-4.3329,-4.3329,-4.3329,-4.3329,-4.3329,-4.3329,-4.3329,-4.3329,-4.3329,-4.3329,-4.3329,-4.3329,-4.3329,-4.3329,-4.4373,-4.4812,-4.4887,-4.5762,-4.6662,-4.7306,-4.6523,-4.7098,-4.8315,-4.7051,-4.7011,-4.7735,-4.7317,-4.7204,-4.7309,-4.7309,-4.7309,-4.7309,-4.7309,-4.7309,-4.7309,-4.7309,-4.7309,-4.7309,-4.7309,-4.7309,-4.7309,-4.7309,-4.7309,-4.7309,-4.7309,-4.7713,-4.8147,-4.8252,-4.9134,-5.0122,-5.09,-5.1139,-5.1214,-5.1214,-5.1214,-5.1214,-5.1214,-5.1214,-5.1214,-5.1214,-5.1214,-5.1214,-5.1214,-5.1214,-5.1214,-5.1214,-5.1214,-5.1214,-5.1214,-5.1214,-5.1214,-5.1214,-5.1738,-5.2037,-5.2037,-5.2561,-5.283,-5.283,-5.283,-5.289,-5.301,-5.301,-5.2324,-4.4587,-4.4294,-4.3973,-4.3981,-4.335,-4.2577,-4.2093,-4.1346,-4.077,-4.1,-4.0947,-4.1205,-4.2177,-4.2641,-4.297,-4.3284,-4.3329,-4.3329,-4.3329,-4.3329,-4.3329,-4.3329,-4.3329,-4.3329,-4.3329,-4.3329,-4.3329,-4.3329,-4.3329,-4.3329,-4.3329,-4.3329,-4.3329,-4.3329,-4.3329,-4.3329,-4.3329,-4.3329,-4.3329,-4.3329,-4.3329,-4.3329,-4.3329,-4.484,-4.5488,-4.5634,-4.7036,-4.7933,-4.8322,-4.8266,-4.8645,-4.9165,-4.8318,-4.8185,-4.8229,-4.7573,-4.7309,-4.7309,-4.7309,-4.7309,-4.7381,-4.7919,-4.7764,-4.7309,-4.7309,-4.7309,-4.7309,-4.7309,-4.7309,-4.7309,-4.7309,-4.7309,-4.7399,-4.7743,-4.8581,-4.9299,-4.9299,-5.0062,-5.084,-5.1154,-5.1214,-5.1214,-5.1214,-5.1214,-5.1214,-5.1214,-5.1214,-5.1214,-5.1214,-5.1214,-5.1214,-5.1214,-5.1214,-5.1214,-5.1214,-5.1214,-5.1214,-5.1214,-5.1543,-5.1738,-5.1738,-5.2351,-5.271,-5.271,-5.3025,-5.3174,-5.3174,-5.3174,-5.3369,-5.3713,-5.3713,-5.3565,-4.4587,-4.4587,-4.4587,-4.4587,-4.4457,-4.3931,-4.2379,-4.198,-4.1704,-4.0809,-4.113,-4.1788,-4.2447,-4.2985,-4.3329,-4.3329,-4.3329,-4.3329,-4.3329,-4.3329,-4.3329,-4.3329,-4.3329,-4.3329,-4.3329,-4.3329,-4.3329,-4.3329,-4.3329,-4.3329,-4.3329,-4.3329,-4.3329,-4.3329,-4.3329,-4.3329,-4.3329,-4.3329,-4.3329,-4.3329,-4.3551,-4.363,-4.3708,-4.5602,-4.6523,-4.6592,-4.8289,-4.9001,-4.9052,-4.9573,-4.9742,-4.962,-4.9128,-4.8922,-4.8677,-4.7694,-4.7309,-4.7309,-4.7309,-4.7452,-4.7679,-4.8293,-4.8057,-4.7609,-4.7609,-4.7609,-4.7609,-4.7381,-4.7309,-4.7309,-4.7309,-4.7414,-4.7713,-4.8521,-4.9494,-5.0272,-5.0421,-5.0855,-5.1214,-5.1214,-5.1214,-5.1214,-5.1214,-5.1214,-5.1214,-5.1214,-5.1214,-5.1214,-5.1214,-5.1214,-5.1214,-5.1214,-5.1214,-5.1214,-5.1214,-5.1349,-5.1424,-5.1424,-5.2037,-5.2411,-5.2411,-5.3054,-5.3399,-5.3399,-5.3548,-5.3608,-5.3608,-5.3608,-5.3892,-5.4416,-5.4416,-5.47,-4.4587,-4.4587,-4.4587,-4.4587,-4.4006,-4.3169,-4.2189,-4.185,-4.1641,-4.137,-4.1818,-4.2462,-4.312,-4.3284,-4.3329,-4.3329,-4.3329,-4.3329,-4.3329,-4.3329,-4.3329,-4.3329,-4.3329,-4.3329,-4.3329,-4.3329,-4.3329,-4.3329,-4.3329,-4.3329,-4.3329,-4.3329,-4.3329,-4.3329,-4.3329,-4.3329,-4.3329,-4.3329,-4.3329,-4.3329,-4.422,-4.4662,-4.4737,-4.6609,-4.744,-4.7523,-4.8576,-4.9001,-4.899,-4.8795,-4.9104,-4.962,-4.8353,-4.8221,-4.8677,-4.7694,-4.7309,-4.7309,-4.7309,-4.7919,-4.8527,-4.7679,-4.7988,-4.8677,-4.8677,-4.8677,-4.8444,-4.7538,-4.7309,-4.7309,-4.7309,-4.7743,-4.8506,-4.9763,-5.0152,-5.0406,-5.1005,-5.1184,-5.1214,-5.1214,-5.1214,-5.1214,-5.1214,-5.1214,-5.1214,-5.1214,-5.1214,-5.1214,-5.1214,-5.1214,-5.1214,-5.1214,-5.1214,-5.1214,-5.1214,-5.1768,-5.2112,-5.2112,-5.2725,-5.3099,-5.3099,-5.3743,-5.4117,-5.4117,-5.47,-5.4999,-5.4999,-5.4999,-5.5044,-5.5104,-5.5104,-5.5134,-4.4587,-4.4587,-4.4587,-4.4587,-4.3931,-4.3047,-4.2189,-4.183,-4.1663,-4.146,-4.1908,-4.2551,-4.321,-4.3329,-4.3329,-4.3329,-4.3329,-4.3329,-4.3329,-4.3329,-4.3329,-4.3329,-4.3329,-4.3329,-4.3329,-4.3329,-4.3329,-4.3329,-4.3329,-4.3329,-4.3329,-4.3329,-4.3329,-4.3329,-4.3329,-4.3329,-4.3329,-4.3329,-4.3329,-4.3329,-4.4297,-4.4812,-4.4887,-4.6747,-4.7589,-4.7655,-4.8576,-4.9001,-4.9024,-4.921,-4.905,-4.8675,-4.8435,-4.8511,-4.8677,-4.7694,-4.7679,-4.8141,-4.7538,-4.7538,-4.7904,-4.8141,-4.8444,-4.8677,-4.8057,-4.7919,-4.7834,-4.7366,-4.7309,-4.7399,-4.7803,-4.8671,-4.9598,-5.0107,-5.0541,-5.09,-5.1154,-5.1214,-5.1214,-5.1214,-5.1214,-5.1214,-5.1214,-5.1214,-5.1214,-5.1214,-5.1214,-5.1214,-5.1214,-5.1214,-5.1214,-5.1214,-5.1214,-5.1379,-5.1768,-5.2052,-5.2366,-5.277,-5.3428,-5.3803,-5.3803,-5.4446,-5.4805,-5.4805,-5.5059,-5.5194,-5.5194,-5.5194,-5.5194,-5.5194,-5.5194,-5.5194,-4.4196,-4.4384,-4.4587,-4.4587,-4.3931,-4.3047,-4.2189,-4.1987,-4.1909,-4.149,-4.2058,-4.2791,-4.324,-4.3329,-4.3329,-4.3329,-4.3329,-4.3329,-4.3329,-4.3329,-4.3329,-4.3329,-4.3329,-4.3329,-4.3329,-4.3329,-4.3329,-4.3329,-4.3329,-4.3329,-4.3329,-4.3329,-4.3329,-4.3329,-4.3329,-4.3329,-4.3329,-4.3329,-4.3329,-4.3329,-4.4571,-4.5227,-4.53,-4.7172,-4.8015,-4.8015,-4.8433,-4.8711,-4.8868,-4.8805,-4.8455,-4.8022,-4.8602,-4.8594,-4.8293,-4.7919,-4.8225,-4.8677,-4.7694,-4.7694,-4.824,-4.8293,-4.8527,-4.8594,-4.7609,-4.7538,-4.7679,-4.7381,-4.7444,-4.7788,-4.8641,-4.9553,-5.0287,-5.0481,-5.0885,-5.1214,-5.1214,-5.1214,-5.1214,-5.1214,-5.1214,-5.1214,-5.1214,-5.1214,-5.1214,-5.1214,-5.1214,-5.1214,-5.1214,-5.1214,-5.1289,-5.1483,-5.1513,-5.1693,-5.2157,-5.2561,-5.2995,-5.3458,-5.4117,-5.4506,-5.4506,-5.494,-5.5194,-5.5194,-5.5194,-5.5194,-5.5194,-5.5194,-5.5194,-5.5194,-5.5194,-5.5194,-4.3306,-4.3931,-4.4587,-4.4587,-4.3931,-4.3047,-4.2189,-4.2365,-4.2406,-4.1596,-4.2417,-4.3329,-4.3329,-4.3329,-4.3329,-4.3329,-4.3329,-4.3329,-4.3329,-4.3329,-4.3329,-4.3329,-4.3329,-4.3329,-4.3329,-4.3329,-4.3329,-4.3329,-4.3329,-4.3329,-4.3329,-4.3329,-4.3329,-4.3329,-4.3329,-4.3329,-4.3329,-4.3329,-4.3329,-4.3329,-4.5253,-4.6173,-4.6244,-4.8144,-4.9001,-4.8923,-4.8015,-4.8001,-4.8488,-4.7237,-4.7104,-4.7769,-4.8465,-4.8225,-4.7452,-4.8444,-4.8825,-4.8677,-4.7694,-4.8625,-5.0009,-4.8003,-4.7988,-4.8594,-4.7609,-4.7988,-4.8594,-4.7609,-4.7773,-4.8566,-4.9883,-5.0227,-5.0406,-5.105,-5.1214,-5.1214,-5.1214,-5.1214,-5.1214,-5.1214,-5.1214,-5.1214,-5.1214,-5.1214,-5.1214,-5.1214,-5.1214,-5.1214,-5.1214,-5.1214,-5.1468,-5.2112,-5.2187,-5.2187,-5.2202,-5.3428,-5.4192,-5.4206,-5.482,-5.5179,-5.5179,-5.5194,-5.5194,-5.5194,-5.5194,-5.5194,-5.5194,-5.5194,-5.5194,-5.5194,-5.5194,-5.5194,-4.2395,-4.2583,-4.2831,-4.2831,-4.2189,-4.1478,-4.1147,-4.1494,-4.173,-4.1445,-4.2417,-4.3329,-4.3329,-4.3329,-4.3329,-4.3329,-4.3329,-4.3329,-4.3329,-4.3329,-4.3329,-4.3329,-4.3329,-4.3329,-4.3329,-4.3329,-4.3329,-4.3329,-4.3329,-4.3329,-4.3329,-4.3329,-4.3329,-4.3329,-4.3329,-4.363,-4.4297,-4.4297,-4.4646,-4.5327,-4.6539,-4.7172,-4.7239,-4.845,-4.9001,-4.9001,-4.8719,-4.856,-4.8573,-4.7892,-4.7699,-4.7704,-4.773,-4.7988,-4.8293,-4.7919,-4.8225,-4.8677,-4.7694,-4.7694,-4.8157,-4.7538,-4.7538,-4.7679,-4.7381,-4.7538,-4.777,-4.792,-4.876,-4.9718,-5.0137,-5.0571,-5.096,-5.1169,-5.1214,-5.1214,-5.1214,-5.1214,-5.1214,-5.1214,-5.1214,-5.1214,-5.1214,-5.1214,-5.1214,-5.1214,-5.1214,-5.1214,-5.1214,-5.1618,-5.1962,-5.2172,-5.3025,-5.3578,-5.3578,-5.3967,-5.4401,-5.485,-5.5074,-5.5194,-5.5194,-5.5194,-5.5194,-5.5194,-5.5194,-5.5194,-5.5194,-5.5194,-5.5194,-5.5194,-5.5194,-5.5194,-4.1412,-4.1739,-4.1997,-4.1997,-4.1346,-4.069,-4.069,-4.1096,-4.1384,-4.1384,-4.2417,-4.3329,-4.3329,-4.3329,-4.3329,-4.3329,-4.3329,-4.3329,-4.3329,-4.3329,-4.3329,-4.3329,-4.3329,-4.3329,-4.3329,-4.3329,-4.3329,-4.3329,-4.3329,-4.3329,-4.3329,-4.3329,-4.3472,-4.3849,-4.3849,-4.4143,-4.4812,-4.5153,-4.5634,-4.6244,-4.7155,-4.7589,-4.7655,-4.8576,-4.9001,-4.894,-4.8225,-4.8149,0.0,-4.7872,-4.7653,-4.7629,-4.8223,-4.861,-4.8743,-4.8543,-4.8856,-4.9231,-4.8225,-4.7834,-4.7834,-4.7467,-4.7309,-4.7354,-4.7593,-4.7683,-4.7818,-4.8476,-4.9419,-5.0301,-5.0541,-5.0915,-5.1214,-5.1214,-5.1214,-5.1214,-5.1214,-5.1214,-5.1214,-5.1214,-5.1214,-5.1214,-5.1214,-5.1214,-5.1214,-5.1214,-5.1214,-5.1304,-5.1558,-5.1947,-5.2396,-5.2905,-5.3713,-5.4311,-5.4566,-5.4581,-5.476,-5.5164,-5.5194,-5.5194,-5.5194,-5.5194,-5.5194,-5.5194,-5.5194,-5.5194,-5.5194,-5.5194,-5.5194,-5.5194,-5.5194,-5.5194,0.0,-4.1213,-4.1804,-4.1804,-4.1213,-4.0622,-4.0622,-4.1024,0.0,-4.1384,-4.2417,-4.3329,-4.3329,-4.3329,-4.3329,-4.3329,-4.3329,-4.3329,-4.3329,-4.3329,-4.3329,-4.3329,-4.3329,-4.3329,-4.3329,-4.3329,-4.3329,-4.3329,-4.3329,-4.3329,-4.3329,-4.3409,-4.3849,-4.4737,-4.4946,-4.502,-4.502,-4.5834,-4.6314,-4.6384,-4.7306,-4.7721,-4.7737,-4.8513,-4.8923,-4.8798,-4.6952,-4.6885,-4.7956,-4.7169,-4.7018,-4.7452,-4.9472,-4.9694,-4.8907,-4.9931,-5.0258,-5.0165,-4.9054,-4.8677,-4.8512,-4.7609,-4.7339,-4.7489,-4.8102,-4.8312,-4.8491,-4.9149,-4.9808,-5.0451,-5.1065,-5.1214,-5.1214,-5.1214,-5.1214,-5.1214,-5.1214,-5.1214,-5.1214,-5.1214,-5.1214,-5.1214,-5.1214,-5.1214,-5.1214,-5.1214,-5.1259,-5.1513,-5.2127,-5.2276,-5.283,-5.4087,-5.4251,-5.4521,-5.5149,-5.5194,-5.5194,-5.5194,-5.5194,-5.5194,-5.5194,-5.5194,-5.5194,-5.5194,-5.5194,-5.5194,-5.5194,-5.5194,-5.5194,-5.5194,-5.5194,-5.5194,-3.9666,0.0,-3.999,-3.999,-3.9864,-3.9737,0.0,-4.0559,-4.1384,-4.1384,-4.2417,-4.3329,-4.3329,-4.3329,-4.3329,-4.3329,-4.3329,-4.3329,-4.3329,-4.3329,-4.3329,-4.3329,-4.3329,-4.3329,-4.3329,-4.3329,-4.3329,-4.3329,-4.3329,-4.3329,-4.3329,-4.4004,-4.4601,-4.4812,-4.6205,-4.6952,-4.6952,-4.7172,-4.7655,-4.837,-4.8576,-4.8656,-4.8639,-4.8161,-4.7933,-4.7868,-4.6662,-4.6539,-4.6998,-4.6858,-4.7002,-4.7467,-4.8677,-4.9054,-4.8825,-4.9054,-4.9135,-4.9069,-4.7988,-4.7694,-4.7609,-4.7381,-4.7653,-4.8087,-4.8237,-4.8641,-4.9164,-4.9823,-5.0481,-5.102,-5.1184,-5.1214,-5.1214,-5.1214,-5.1214,-5.1214,-5.1214,-5.1214,-5.1214,-5.1214,-5.1214,-5.1214,-5.1214,-5.1214,-5.1214,-5.1214,-5.1648,-5.2022,-5.2172,-5.3099,-5.3862,-5.4177,-5.4655,-5.5029,-5.5179,-5.5194,-5.5194,-5.5194,-5.5194,-5.5194,-5.5194,-5.5194,-5.5194,-5.5194,-5.5194,-5.5194,-5.5194,-5.5194,-5.5194,-5.5194,-5.5194,-5.5194,-3.9424,-3.9424,-3.9424,-3.9424,-3.9424,-3.9499,-3.9798,-4.0651,-4.1474,-4.1773,-4.2641,-4.3329,-4.3329,-4.3329,-4.3329,-4.3329,-4.3329,-4.3329,-4.3329,-4.3329,-4.3329,-4.3329,-4.3329,-4.3329,-4.3329,-4.3329,-4.3329,-4.3329,-4.3329,-4.3472,-4.3927,-4.451,-4.5227,-4.6064,-4.7104,-4.7589,-4.7589,-4.8015,-4.8513,-4.9001,-4.8576,-4.837,-4.8306,-4.7389,-4.6952,-4.69,-4.6223,-4.6244,-4.6732,-4.7042,-4.7277,-4.7381,-4.8377,-4.8825,-4.8825,-4.8825,-4.8825,-4.8743,-4.8225,-4.7679,-4.7354,-4.7653,-4.7997,-4.8401,-4.9,-4.9434,-4.9778,-5.0137,-5.0705,-5.1214,-5.1214,-5.1214,-5.1214,-5.1214,-5.1214,-5.1214,-5.1214,-5.1214,-5.1214,-5.1214,-5.1214,-5.1214,-5.1214,-5.1214,-5.1214,-5.1214,-5.1783,-5.2306,-5.2621,-5.3563,-5.4326,-5.4625,-5.4985,-5.5194,-5.5194,-5.5194,-5.5194,-5.5194,-5.5194,-5.5194,-5.5194,-5.5194,-5.5194,-5.5194,-5.5194,-5.5194,-5.5194,-5.5194,-5.5194,-5.5194,-5.5194,-5.5194,-3.9424,-3.9424,-3.9424,-3.9424,-3.9424,-3.9589,-4.0247,-4.0905,-4.1564,-4.2222,-4.288,-4.3329,-4.3329,-4.3329,-4.3329,-4.3329,-4.3329,-4.3329,-4.3329,-4.3329,-4.3329,-4.3329,-4.3329,-4.3329,-4.3329,-4.3394,-4.3551,-4.3551,-4.3693,-4.4128,-4.4946,-4.5153,-4.5921,-4.7523,-4.7737,-4.7803,-4.7803,-4.8576,-4.894,-4.8798,-4.8015,-4.7523,-4.7373,-4.6384,-4.5977,-4.5937,-4.5615,-4.5849,-4.6526,-4.7299,-4.7463,-4.7381,-4.8377,-4.8825,-4.8825,-4.8825,-4.8825,-4.8743,-4.8594,-4.7988,-4.7414,-4.8072,-4.8356,-4.8656,-4.9868,-5.0301,-5.0391,-5.0391,-5.0795,-5.1214,-5.1214,-5.1214,-5.1214,-5.1214,-5.1214,-5.1214,-5.1214,-5.1214,-5.1214,-5.1214,-5.1214,-5.1214,-5.1214,-5.1214,-5.1244,-5.1349,-5.1932,-5.2591,-5.3249,-5.3937,-5.4581,-5.5134,-5.5194,-5.5194,-5.5194,-5.5194,-5.5194,-5.5194,-5.5194,-5.5194,-5.5194,-5.5194,-5.5194,-5.5194,-5.5194,-5.5194,-5.5194,-5.5194,-5.5194,-5.5194,-5.5194,-5.5194,-3.9424,-3.9424,-3.9424,-3.9424,-3.9424,-3.9589,-4.0247,-4.0905,-4.1564,-4.2222,-4.288,-4.3329,-4.3329,-4.3329,-4.3329,-4.3329,-4.3329,-4.3329,-4.3329,-4.3329,-4.3329,-4.3329,-4.3329,-4.3329,-4.3329,-4.4066,-4.4586,-4.4586,-4.5342,-4.5818,-4.5977,-4.6747,-4.7306,-4.7589,-4.837,-4.8798,-4.8798,-4.894,-4.8576,-4.7803,-4.7655,-4.7155,-4.6384,-4.5431,-4.502,-4.4977,-4.4689,-4.4905,-4.5567,-4.6259,-4.6866,-4.7381,-4.8377,-4.8825,-4.8825,-4.8825,-4.8825,-4.8677,-4.7849,-4.7467,-4.7414,-4.8072,-4.8656,-4.9254,-5.0017,-5.0631,-5.1065,-5.1065,-5.1139,-5.1214,-5.1214,-5.1214,-5.1214,-5.1214,-5.1214,-5.1214,-5.1214,-5.1214,-5.1214,-5.1214,-5.1214,-5.1214,-5.1214,-5.1214,-5.1409,-5.1962,-5.2606,-5.3279,-5.3967,-5.4625,-5.5089,-5.5179,-5.5194,-5.5194,-5.5194,-5.5194,-5.5194,-5.5194,-5.5194,-5.5194,-5.5194,-5.5194,-5.5194,-5.5194,-5.5194,-5.5194,-5.5194,-5.5194,-5.5194,-5.5194,-5.5194,-5.5194,-3.9424,-3.9424,-3.9424,-3.9424,-3.9694,-4.0127,-4.0786,-4.1444,-4.2087,-4.2761,-4.3135,-4.3329,-4.3329,-4.3329,-4.3329,-4.3329,-4.3329,-4.3329,-4.3329,-4.3329,-4.3329,-4.3329,-4.3771,-4.4143,-4.4143,-4.4989,-4.5561,-4.5561,-4.5977,-4.6384,-4.6952,-4.7373,-4.7803,-4.837,-4.8289,-4.8225,-4.8225,-4.7737,-4.7523,-4.7589,-4.6555,-4.585,-4.5431,-4.4419,-4.4004,-4.405,-4.4554,-4.502,-4.5379,-4.6411,-4.704,-4.7381,-4.7834,-4.7988,-4.7988,-4.7988,-4.7988,-4.7919,-4.7452,-4.7534,-4.7938,-4.8596,-4.9254,-4.9912,-5.0571,-5.0975,-5.1214,-5.1214,-5.1214,-5.1214,-5.1214,-5.1214,-5.1214,-5.1214,-5.1214,-5.1214,-5.1214,-5.1214,-5.1214,-5.1214,-5.1214,-5.1214,-5.1214,-5.1513,-5.1858,-5.2157,-5.3069,-5.3847,-5.4162,-5.479,-5.5194,-5.5194,-5.5194,-5.5194,-5.5194,-5.5194,-5.5194,-5.5194,-5.5194,-5.5194,-5.5194,-5.5194,-5.5194,-5.5194,-5.5194,-5.5194,-5.5194,-5.5194,-5.5194,-5.5194,-5.5194,-5.5194,-3.9424,-3.9424,-3.9424,-3.9424,-3.9798,-4.0382,-4.119,-4.1773,-4.2357,-4.3165,-4.3329,-4.3329,-4.3329,-4.3329,-4.3329,-4.3329,-4.3329,-4.3329,-4.3329,-4.3472,-4.363,-4.363,-4.4495,-4.5153,-4.5153,-4.5977,-4.6523,-4.6523,-4.6747,-4.7172,-4.7868,-4.7933,-4.8161,-4.8656,-4.8161,-4.7803,-4.7589,-4.6884,-4.6678,-4.69,-4.5504,-4.4662,-4.4434,-4.363,-4.3329,-4.3404,-4.4721,-4.5289,-4.5394,-4.6756,-4.7309,-4.7309,-4.7309,-4.7309,-4.7309,-4.7309,-4.7309,-4.7309,-4.7309,-4.7743,-4.8401,-4.906,-4.9703,-5.0361,-5.102,-5.1214,-5.1214,-5.1214,-5.1214,-5.1214,-5.1214,-5.1214,-5.1214,-5.1214,-5.1214,-5.1214,-5.1214,-5.1214,-5.1214,-5.1214,-5.1214,-5.1214,-5.1214,-5.1768,-5.2247,-5.2411,-5.3443,-5.4266,-5.4416,-5.488,-5.5194,-5.5194,-5.5194,-5.5194,-5.5194,-5.5194,-5.5194,-5.5194,-5.5194,-5.5194,-5.5194,-5.5194,-5.5194,-5.5194,-5.5194,-5.5194,-5.5194,-5.5194,-5.5194,-5.5194,-5.5194,-5.5194,-3.9424,-3.9424,-3.9424,-3.9424,-3.9454,-3.9828,-4.1085,-4.1414,-4.1803,-4.3075,-4.3329,-4.3329,-4.3329,-4.3329,-4.3329,-4.3329,-4.3329,-4.3329,-4.3329,-4.4066,-4.4662,-4.4662,-4.5488,-4.6103,-4.6103,-4.6952,-4.7523,-4.7523,-4.8306,-4.8798,-4.8877,-4.8923,-4.8513,-4.7737,-4.8497,-4.8497,-4.7589,-4.7523,-4.6694,-4.502,-4.4887,-4.4297,-4.3409,-4.3329,-4.3329,-4.3404,-4.4721,-4.5289,-4.5394,-4.6756,-4.7309,-4.7309,-4.7309,-4.7309,-4.7309,-4.7309,-4.7309,-4.7309,-4.7309,-4.7743,-4.8401,-4.906,-4.9703,-5.0361,-5.102,-5.1214,-5.1214,-5.1214,-5.1214,-5.1214,-5.1214,-5.1214,-5.1214,-5.1214,-5.1214,-5.1214,-5.1214,-5.1214,-5.1214,-5.1214,-5.1214,-5.1214,-5.1214,-5.1768,-5.2411,-5.301,-5.3743,-5.4431,-5.5044,-5.5164,-5.5194,-5.5194,-5.5194,-5.5194,-5.5194,-5.5194,-5.5194,-5.5194,-5.5194,-5.5194,-5.5194,-5.5194,-5.5194,-5.5194,-5.5194,-5.5194,-5.5194,-5.5194,-5.5194,-5.5194,-5.5194,-5.5194,-3.9424,-3.9424,-3.9424,-3.9424,-3.9723,-4.0262,-4.1175,-4.2013,-4.2731,-4.3225,-4.3329,-4.3329,-4.3329,-4.3329,-4.3329,-4.3329,-4.3849,-4.422,-4.422,-4.4586,-4.4812,-4.4812,-4.5634,-4.5977,-4.5358,-4.7239,-4.8015,-4.6815,-4.8161,-4.8513,-4.7306,-4.837,-4.8576,-4.7655,-4.7933,-4.7655,-4.6747,-4.6119,-4.5211,-4.3849,-4.451,-4.4297,-4.3329,-4.3329,-4.3554,-4.3988,-4.49,-4.5544,-4.6007,-4.692,-4.7309,-4.7309,-4.7309,-4.7309,-4.7309,-4.7309,-4.7309,-4.7369,-4.7773,-4.8341,-4.9,-4.9658,-5.0316,-5.09,-5.1139,-5.1214,-5.1214,-5.1214,-5.1214,-5.1214,-5.1214,-5.1214,-5.1214,-5.1214,-5.1214,-5.1214,-5.1214,-5.1214,-5.1214,-5.1214,-5.1214,-5.1349,-5.1753,-5.2381,-5.3039,-5.3713,-5.4386,-5.491,-5.5164,-5.5194,-5.5194,-5.5194,-5.5194,-5.5194,-5.5194,-5.5194,-5.5194,-5.5194,-5.5194,-5.5194,-5.5194,-5.5194,-5.5194,-5.5194,-5.5194,-5.5194,-5.5194,-5.5194,-5.5194,-5.5194,-5.5194,-5.5194,-3.9424,-3.9424,-3.9469,-3.9679,-4.0232,-4.0876,-4.1534,-4.2387,-4.309,-4.3284,-4.3551,-4.3708,-4.3329,-4.3551,-4.3708,-4.3329,-4.3849,-4.4297,-4.4297,-4.4586,-4.4812,-4.4812,-4.5634,-4.6048,-4.5706,-4.7456,-4.8161,-4.7172,-4.8289,-4.8433,-4.7155,-4.8015,-4.8161,-4.7172,-4.7172,-4.6678,-4.5778,-4.5431,-4.4721,-4.3771,-4.4434,-4.4297,-4.3329,-4.3329,-4.3688,-4.4347,-4.5005,-4.5678,-4.6367,-4.704,-4.7309,-4.7309,-4.7309,-4.7309,-4.7309,-4.7309,-4.7429,-4.7683,-4.8132,-4.885,-4.9643,-5.0092,-5.0676,-5.1214,-5.1214,-5.1214,-5.1214,-5.1214,-5.1214,-5.1214,-5.1214,-5.1214,-5.1214,-5.1214,-5.1214,-5.1214,-5.1214,-5.1214,-5.1214,-5.1214,-5.1394,-5.1678,-5.2127,-5.292,-5.3668,-5.4147,-5.4775,-5.5194,-5.5194,-5.5194,-5.5194,-5.5194,-5.5194,-5.5194,-5.5194,-5.5194,-5.5194,-5.5194,-5.5194,-5.5194,-5.5194,-5.5194,-5.5194,-5.5194,-5.5194,-5.5194,-5.5194,-5.5194,-5.5194,-5.5194,-5.5194,-5.5194,-3.9424,-3.9424,-3.9574,-4.0232,-4.0891,-4.1549,-4.2207,-4.2357,-4.2551,-4.321,-4.4066,-4.451,-4.3472,-4.4143,-4.4434,-4.3472,-4.3329,-4.3329,-4.3329,-4.4143,-4.4812,-4.4812,-4.5634,-4.6523,-4.7456,-4.7589,-4.8015,-4.8923,-4.9001,-4.9001,-4.894,-4.808,-4.7172,-4.6244,-4.6173,-4.5762,-4.4812,-4.5706,-4.5706,-4.4812,-4.4812,-4.4297,-4.3329,-4.3329,-4.3703,-4.4362,-4.5005,-4.5693,-4.6381,-4.704,-4.7309,-4.7309,-4.7309,-4.7309,-4.7309,-4.7309,-4.7713,-4.8282,-4.8297,-4.9149,-5.0242,-5.0242,-5.069,-5.1214,-5.1214,-5.1214,-5.1214,-5.1214,-5.1214,-5.1214,-5.1214,-5.1214,-5.1214,-5.1214,-5.1214,-5.1214,-5.1214,-5.1214,-5.1214,-5.1229,-5.1753,-5.2202,-5.2217,-5.3324,-5.4206,-5.4221,-5.4775,-5.5194,-5.5194,-5.5194,-5.5194,-5.5194,-5.5194,-5.5194,-5.5194,-5.5194,-5.5194,-5.5194,-5.5194,-5.5194,-5.5194,-5.5194,-5.5194,-5.5194,-5.5194,-5.5194,-5.5194,-5.5194,-5.5194,-5.5194,-5.5194,-5.5194,-3.9424,-3.9424,-3.9574,-4.0232,-4.0891,-4.1549,-4.2207,-4.2716,-4.309,-4.3284,-4.3551,-4.363,-4.3329,-4.3551,-4.363,-4.3329,-4.3927,-4.4373,-4.4373,-4.4586,-4.4812,-4.4812,-4.5634,-4.6048,-4.5649,-4.7389,-4.8144,-4.7088,-4.7655,-4.7456,-4.6134,-4.7036,-4.69,-4.53,-4.647,-4.64,-4.4812,-4.5095,-4.4721,-4.3771,-4.3771,-4.3551,-4.3329,-4.3329,-4.3943,-4.5005,-4.5214,-4.5948,-4.704,-4.7219,-4.7309,-4.7309,-4.7309,-4.7309,-4.7309,-4.7309,-4.7713,-4.8356,-4.882,-4.9523,-5.0316,-5.078,-5.1065,-5.1214,-5.1214,-5.1214,-5.1214,-5.1214,-5.1214,-5.1214,-5.1214,-5.1214,-5.1214,-5.1214,-5.1214,-5.1214,-5.1214,-5.1214,-5.1349,-5.1813,-5.2067,-5.2501,-5.3443,-5.3952,-5.4371,-5.4835,-5.5059,-5.5194,-5.5194,-5.5194,-5.5194,-5.5194,-5.5194,-5.5194,-5.5194,-5.5194,-5.5194,-5.5194,-5.5194,-5.5194,-5.5194,-5.5194,-5.5194,-5.5194,-5.5194,-5.5194,-5.5194,-5.5194,-5.5194,-5.5194,-5.5194,-5.5194,-3.9424,-3.9424,-3.9634,-4.0561,-4.1085,-4.1624,-4.2536,-4.3045,-4.3329,-4.3329,-4.363,-4.3771,-4.3409,-4.363,-4.3786,-4.3329,-4.3771,-4.422,-4.422,-4.451,-4.4662,-4.422,-4.5079,-4.5431,-4.4887,-4.6678,-4.7589,-4.6815,-4.7306,-4.7104,-4.5992,-4.6276,-4.5992,-4.4812,-4.5488,-4.5327,-4.422,-4.422,-4.3927,-4.3329,-4.3329,-4.3329,-4.3329,-4.3329,-4.4047,-4.5334,-4.5858,-4.6561,-4.7309,-4.7309,-4.7309,-4.7309,-4.7309,-4.7309,-4.7339,-4.7593,-4.8117,-4.8775,-4.9419,-5.0077,-5.069,-5.1094,-5.1214,-5.1214,-5.1214,-5.1214,-5.1214,-5.1214,-5.1214,-5.1214,-5.1214,-5.1214,-5.1214,-5.1214,-5.1214,-5.1214,-5.1214,-5.1424,-5.1723,-5.2127,-5.2636,-5.3249,-5.4072,-5.4431,-5.473,-5.5134,-5.5194,-5.5194,-5.5194,-5.5194,-5.5194,-5.5194,-5.5194,-5.5194,-5.5194,-5.5194,-5.5194,-5.5194,-5.5194,-5.5194,-5.5194,-5.5194,-5.5194,-5.5194,-5.5194,-5.5194,-5.5194,-5.5194,-5.5194,-5.5194,-5.5194,-5.5194,-3.9424,-3.9424,-3.9738,-4.1055,-4.1474,-4.1878,-4.306,-4.3329,-4.3329,-4.3329,-4.4004,-4.4358,-4.3488,-4.4066,-4.4358,-4.3488,-4.3329,-4.3329,-4.3329,-4.4066,-4.4282,-4.3409,-4.4282,-4.4946,-4.4946,-4.5778,-4.6662,-4.7523,-4.744,-4.7306,-4.7306,-4.5722,-4.4737,-4.4662,-4.3849,-4.3409,-4.3329,-4.3329,-4.3329,-4.3329,-4.3329,-4.3329,-4.3329,-4.3389,-4.4137,-4.5454,-4.6741,-4.7309,-4.7309,-4.7309,-4.7309,-4.7309,-4.7309,-4.7309,-4.7384,-4.8042,-4.8701,-4.9359,-5.0017,-5.0676,-5.1214,-5.1214,-5.1214,-5.1214,-5.1214,-5.1214,-5.1214,-5.1214,-5.1214,-5.1214,-5.1214,-5.1214,-5.1214,-5.1214,-5.1214,-5.1229,-5.1289,-5.1783,-5.2232,-5.2351,-5.3369,-5.4236,-5.4281,-5.4805,-5.5194,-5.5194,-5.5194,-5.5194,-5.5194,-5.5194,-5.5194,-5.5194,-5.5194,-5.5194,-5.5194,-5.5194,-5.5194,-5.5194,-5.5194,-5.5194,-5.5194,-5.5194,-5.5194,-5.5194,-5.5194,-5.5194,-5.5194,-5.5194,-5.5194,-5.5194,-5.5194,-5.5194,-3.9424,-3.9424,0.0,-4.1055,-4.2147,-4.2985,-4.3269,-4.3329,-4.3329,-4.3329,-4.3472,-4.3551,-4.3329,-4.3472,-4.3551,-4.3329,-4.3329,-4.3329,-4.3329,-4.3472,-4.3551,-4.3329,-4.484,-4.5905,-4.5905,-4.6747,-4.7373,-4.7589,-4.6189,-4.5358,-4.5358,-4.502,-4.4434,-4.363,-4.4143,-4.4066,-4.3329,-4.3329,-4.3329,-4.3329,-4.3329,-4.3329,-4.3344,-4.3868,-4.484,-4.6142,-4.695,-4.7309,-4.7309,-4.7309,-4.7309,-4.7309,-4.7309,-4.7309,-4.7384,-4.8042,-4.8701,-4.9359,-5.0017,-5.0676,-5.1214,-5.1214,-5.1214,-5.1214,-5.1214,-5.1214,-5.1214,-5.1214,-5.1214,-5.1214,-5.1214,-5.1214,-5.1214,-5.1214,-5.1214,-5.1364,-5.1872,-5.2097,-5.2516,-5.3578,-5.4012,-5.4371,-5.4895,-5.5089,-5.5194,-5.5194,-5.5194,-5.5194,-5.5194,-5.5194,-5.5194,-5.5194,-5.5194,-5.5194,-5.5194,-5.5194,-5.5194,-5.5194,-5.5194,-5.5194,-5.5194,-5.5194,-5.5194,-5.5194,-5.5194,-5.5194,-5.5194,-5.5194,-5.5194,-5.5194,-5.5194,-5.5194,-3.9424,0.0,0.0,-4.1663,0.0,-4.3329,-4.3329,-4.3329,-4.3329,-4.3329,-4.3329,-4.3329,-4.3329,-4.3329,-4.3329,-4.3329,-4.3329,-4.3329,-4.3329,-4.4113,-4.4327,-4.3394,-4.5048,-4.5818,-4.4899,-4.569,-4.6276,-4.6276,-4.5358,-4.4812,-4.4812,-4.4373,-4.3849,-4.3329,-4.3771,-4.3849,-4.3329,-4.3329,-4.3329,-4.3329,-4.3329,-4.3658,-4.4287,-4.4631,-4.5349,-4.6367,-4.7025,-4.7309,-4.7309,-4.7309,-4.7309,-4.7309,-4.7309,-4.7504,-4.7863,-4.8521,-4.9164,-4.9823,-5.0481,-5.093,-5.1214,-5.1214,-5.1214,-5.1214,-5.1214,-5.1214,-5.1214,-5.1214,-5.1214,-5.1214,-5.1214,-5.1214,-5.1289,-5.1618,-5.1693,-5.1783,-5.2127,-5.271,-5.3369,-5.4072,-5.4461,-5.479,-5.5134,-5.5194,-5.5194,-5.5194,-5.5194,-5.5194,-5.5194,-5.5194,-5.5194,-5.5194,-5.5194,-5.5194,-5.5194,-5.5194,-5.5194,-5.5194,-5.5194,-5.5194,-5.5194,-5.5194,-5.5194,-5.5194,-5.5194,-5.5194,-5.5194,-5.5194,-5.5194,-5.5194,-5.5194,-5.5194,-3.961,0.0,-4.1256,-4.2273,-4.2864,0.0,-4.3329,-4.3329,-4.3329,-4.3329,-4.3329,-4.3329,-4.3329,-4.3329,-4.3329,-4.3329,-4.3329,-4.3329,-4.3329,-4.469,-4.5106,-4.3472,-4.4899,-4.5342,-4.3693,-4.4297,-4.4812,-4.4812,-4.4662,-4.451,-4.451,-4.3771,-4.3329,-4.3329,-4.3329,-4.3329,-4.3329,-4.3329,-4.3329,-4.3329,-4.3329,-4.4018,-4.5289,-4.5289,-4.5738,-4.6516,-4.707,-4.7309,-4.7309,-4.7309,-4.7309,-4.7309,-4.7309,-4.7713,-4.8356,-4.9015,-4.9673,-5.0331,-5.099,-5.1214,-5.1214,-5.1214,-5.1214,-5.1214,-5.1214,-5.1214,-5.1214,-5.1214,-5.1214,-5.1214,-5.1214,-5.1304,-5.1528,-5.2067,-5.2381,-5.2546,-5.2546,-5.3428,-5.4236,-5.4356,-5.482,-5.5194,-5.5194,-5.5194,-5.5194,-5.5194,-5.5194,-5.5194,-5.5194,-5.5194,-5.5194,-5.5194,-5.5194,-5.5194,-5.5194,-5.5194,-5.5194,-5.5194,-5.5194,-5.5194,-5.5194,-5.5194,-5.5194,-5.5194,-5.5194,-5.5194,-5.5194,-5.5194,-5.5194,-5.5194,-5.5194,-5.5194,-4.0309,0.0,-4.232,0.0,-4.2434,-4.3329,0.0,0.0,-4.3329,-4.3329,-4.3329,-4.3329,-4.3329,-4.3329,-4.3329,-4.3329,-4.3329,-4.3329,-4.3329,-4.3536,-4.3615,-4.3329,-4.4282,-4.4871,-4.4586,-4.4737,-4.4812,-4.4812,-4.4004,-4.3472,-4.3472,-4.3409,-4.3329,-4.3329,-4.3329,-4.3329,-4.3329,-4.3329,-4.3329,-4.3329,-4.3329,-4.4018,-4.5289,-4.5289,-4.5978,-4.7174,-4.7264,-4.7309,-4.7309,-4.7309,-4.7309,-4.7309,-4.7309,-4.7713,-4.8356,-4.9015,-4.9673,-5.0331,-5.099,-5.1214,-5.1214,-5.1214,-5.1214,-5.1214,-5.1214,-5.1214,-5.1214,-5.1214,-5.1214,-5.1214,-5.1214,-5.1633,-5.2097,-5.2172,-5.3084,-5.3937,-5.3937,-5.4087,-5.4386,-5.494,-5.5134,-5.5194,-5.5194,-5.5194,-5.5194,-5.5194,-5.5194,-5.5194,-5.5194,-5.5194,-5.5194,-5.5194,-5.5194,-5.5194,-5.5194,-5.5194,-5.5194,-5.5194,-5.5194,-5.5194,-5.5194,-5.5194,-5.5194,-5.5194,-5.5194,-5.5194,-5.5194,-5.5194,-5.5194,-5.5194,-5.5194,-5.5194,-4.0432,-4.1306,-4.2012,0.0,-4.2727,-4.3329,-4.3329,-4.3329,-4.3329,-4.3329,-4.3329,-4.3329,-4.3329,-4.3329,-4.3472,-4.4066,-4.3708,-4.3488,-4.4066,-4.4143,-4.3927,-4.3409,-4.422,-4.4586,-4.3989,-4.3927,-4.3927,-4.3927,-4.3551,-4.3329,-4.3329,-4.3329,-4.3329,-4.3329,-4.3329,-4.3329,-4.3329,-4.3329,-4.3329,-4.3329,-4.3703,-4.4377,-4.5304,-4.5693,-4.6396,-4.7309,-4.7309,-4.7309,-4.7309,-4.7309,-4.7309,-4.7309,-4.7309,-4.7938,-4.888,-4.9164,-4.9912,-5.0825,-5.1124,-5.1214,-5.1214,-5.1214,-5.1214,-5.1214,-5.1214,-5.1214,-5.1214,-5.1214,-5.1214,-5.1304,-5.1678,-5.1977,-5.2396,-5.3144,-5.3788,-5.4311,-5.4685,-5.476,-5.485,-5.5134,-5.5194,-5.5194,-5.5194,-5.5194,-5.5194,-5.5194,-5.5194,-5.5194,-5.5194,-5.5194,-5.5194,-5.5194,-5.5194,-5.5194,-5.5194,-5.5194,-5.5194,-5.5194,-5.5194,-5.5194,-5.5194,-5.5194,-5.5194,-5.5194,-5.5194,-5.5194,-5.5194,-5.5194,-5.5194,-5.5194,-5.5194,-5.5194,0.0,0.0,-4.1916,-4.2577,-4.3089,-4.3419,0.0,0.0,-4.3409,-4.363,-4.3472,-4.3329,-4.3329,-4.3329,-4.3551,-4.4297,-4.3771,-4.3551,-4.4297,-4.445,-4.4143,-4.3409,-4.3927,-4.4143,-4.3409,-4.3329,-4.3329,-4.3329,-4.3329,-4.3329,-4.3329,-4.3329,-4.3329,-4.3329,-4.3329,-4.3329,-4.3329,-4.3329,-4.3329,-4.3344,-4.4003,-4.4661,-4.5319,-4.6007,-4.6681,-4.7309,-4.7309,-4.7309,-4.7309,-4.7309,-4.7309,-4.7324,-4.7489,-4.8252,-4.9284,-4.9449,-5.0242,-5.1214,-5.1214,-5.1214,-5.1214,-5.1214,-5.1214,-5.1214,-5.1214,-5.1214,-5.1214,-5.1214,-5.1214,-5.1364,-5.2037,-5.2321,-5.2755,-5.3922,-5.4341,-5.4596,-5.5089,-5.5194,-5.5194,-5.5194,-5.5194,-5.5194,-5.5194,-5.5194,-5.5194,-5.5194,-5.5194,-5.5194,-5.5194,-5.5194,-5.5194,-5.5194,-5.5194,-5.5194,-5.5194,-5.5194,-5.5194,-5.5194,-5.5194,-5.5194,-5.5194,-5.5194,-5.5194,-5.5194,-5.5194,-5.5194,-5.5194,-5.5194,-5.5194,-5.5194,-5.5194,-5.5194,0.0,-4.1799,0.0,-4.2738,-4.3148,-4.3858,0.0,0.0,-4.3551,-4.4526,-4.3927,-4.3329,-4.3329,-4.3329,-4.3329,-4.3409,-4.3329,-4.3329,-4.3409,-4.3409,-4.3329,-4.3329,-4.3329,-4.3329,-4.3329,-4.3329,-4.3329,-4.3329,-4.3329,-4.3329,-4.3329,-4.3329,-4.3329,-4.3329,-4.3329,-4.3329,-4.3329,-4.3329,-4.3329,-4.3344,-4.4003,-4.4661,-4.5319,-4.6007,-4.6681,-4.7309,-4.7309,-4.7309,-4.7309,-4.7309,-4.7309,-4.7369,-4.7997,-4.8656,-4.9344,-4.9957,-5.0631,-5.1214,-5.1214,-5.1214,-5.1214,-5.1214,-5.1214,-5.1214,-5.1214,-5.1214,-5.1214,-5.1214,-5.1214,-5.1364,-5.2037,-5.2665,-5.3309,-5.4042,-5.4685,-5.5149,-5.5179,-5.5194,-5.5194,-5.5194,-5.5194,-5.5194,-5.5194,-5.5194,-5.5194,-5.5194,-5.5194,-5.5194,-5.5194,-5.5194,-5.5194,-5.5194,-5.5194,-5.5194,-5.5194,-5.5194,-5.5194,-5.5194,-5.5194,-5.5194,-5.5194,-5.5194,-5.5194,-5.5194,-5.5194,-5.5194,-5.5194,-5.5194,-5.5194,-5.5194,-5.5194,-5.5194,0.0,0.0,0.0,-4.2769,-4.3278,-4.3778,-4.401,-4.3685,-4.3409,-4.3771,-4.4066,-4.4082,-4.3409,-4.3329,-4.3472,-4.4143,-4.3693,-4.3551,-4.4143,-4.3708,-4.3329,-4.3329,-4.3329,-4.3329,-4.3329,-4.3329,-4.3329,-4.3329,-4.3329,-4.3329,-4.3329,-4.3329,-4.3329,-4.3329,-4.3329,-4.3329,-4.3329,-4.3329,-4.3329,-4.3344,-4.4421,-4.5065,-4.5334,-4.6441,-4.6606,-4.6062,-4.6062,-4.6062,-4.6062,-4.6062,-4.6062,-4.6225,-4.7733,-4.8686,-4.9344,-5.0002,-5.0646,-5.1214,-5.1214,-5.1214,-5.1214,-5.1214,-5.1214,-5.1214,-5.1214,-5.1214,-5.1214,-5.1214,-5.1528,-5.2007,-5.265,-5.3324,-5.4012,-5.4685,-5.5029,-5.5194,-5.5194,-5.5194,-5.5194,-5.5194,-5.5194,-5.5194,-5.5194,-5.5194,-5.5194,-5.5194,-5.5194,-5.5194,-5.5194,-5.5194,-5.5194,-5.5194,-5.5194,-5.5194,-5.5194,-5.5194,-5.5194,-5.5194,-5.5194,-5.5194,-5.5194,-5.5194,-5.5194,-5.5194,-5.5194,-5.5194,-5.5194,-5.5194,-5.5194,-5.5194,-5.5194,-5.5194,-4.128,-4.1692,-4.2035,0.0,-4.3406,-4.3495,-4.4075,-4.3716,-4.3409,-4.3693,-4.4082,-4.4066,-4.3409,-4.3329,-4.3551,-4.422,-4.3708,-4.3551,-4.422,-4.3693,-4.3329,-4.3329,-4.3329,-4.3329,-4.3329,-4.3329,-4.3329,-4.3329,-4.3329,-4.3329,-4.3329,-4.3329,-4.3329,-4.3329,-4.3329,-4.3329,-4.3329,-4.3329,-4.3329,-4.3344,-4.422,-4.4659,-4.4689,-4.5654,-4.5584,-4.4734,-4.4349,-4.4349,-4.4734,-4.4734,-4.4862,-4.521,-4.719,-4.8413,-4.9064,-5.0132,-5.084,-5.1214,-5.1214,-5.1214,-5.1214,-5.1214,-5.1214,-5.1214,-5.1214,-5.1214,-5.1274,-5.1483,-5.1872,-5.2411,-5.3294,-5.4027,-5.4655,-5.5089,-5.5194,-5.5194,-5.5194,-5.5194,-5.5194,-5.5194,-5.5194,-5.5194,-5.5194,-5.5194,-5.5194,-5.5194,-5.5194,-5.5194,-5.5194,-5.5194,-5.5194,-5.5194,-5.5194,-5.5194,-5.5194,-5.5194,-5.5194,-5.5194,-5.5194,-5.5194,-5.5194,-5.5194,-5.5194,-5.5194,-5.5194,-5.5194,-5.5194,-5.5194,-5.5194,-5.5194,-5.5194,-5.5194,0.0,0.0,0.0,-4.3915,-4.3448,-4.3136,-4.4697,-4.4121,-4.3551,-4.451,-4.3989,-4.3329,-4.3329,-4.3329,-4.3329,-4.3329,-4.3329,-4.3329,-4.3329,-4.3329,-4.3329,-4.3329,-4.3329,-4.3329,-4.3329,-4.3329,-4.3329,-4.3329,-4.3329,-4.3329,-4.3329,-4.3329,-4.3329,-4.3329,-4.3329,-4.3329,-4.3329,-4.3329,-4.3329,-4.3265,-4.3408,-4.3372,-4.3415,-4.3496,-4.3504,-4.3409,-4.2168,-4.2266,-4.3409,-4.3409,-4.3753,-4.4456,-4.6543,-4.7759,-4.8394,-5.0461,-5.1214,-5.1214,-5.1214,-5.1214,-5.1214,-5.1214,-5.1214,-5.1214,-5.1214,-5.1214,-5.1349,-5.2007,-5.2217,-5.2546,-5.3892,-5.4715,-5.5194,-5.5194,-5.5194,-5.5194,-5.5194,-5.5194,-5.5194,-5.5194,-5.5194,-5.5194,-5.5194,-5.5194,-5.5194,-5.5194,-5.5194,-5.5194,-5.5194,-5.5194,-5.5194,-5.5194,-5.5194,-5.5194,-5.5194,-5.5194,-5.5194,-5.5194,-5.5194,-5.5194,-5.5194,-5.5194,-5.5194,-5.5194,-5.5194,-5.5194,-5.5194,-5.5194,-5.5194,-5.5194,-5.5194,-5.5194,-4.1869,0.0,0.0,0.0,0.0,0.0,-4.327,-4.3304,-4.3409,-4.363,-4.4066,-4.4143,-4.3394,-4.3927,-4.4143,-4.3409,-4.3329,-4.3329,-4.3329,-4.3329,-4.3329,-4.3329,-4.3329,-4.3329,-4.3329,-4.3329,-4.3329,-4.3329,-4.3329,-4.3329,-4.3329,-4.3329,-4.3329,-4.3329,-4.3329,-4.3329,-4.3329,-4.3329,-4.3329,-4.3265,-4.3408,-4.3372,-4.3415,-4.3496,-4.3026,-4.207,-4.1789,-4.1319,-4.0844,-4.1789,-4.2417,-4.3191,-4.6243,-4.7759,-4.8394,-5.0461,-5.1214,-5.1214,-5.1214,-5.1214,-5.1214,-5.1214,-5.1214,-5.1214,-5.1214,-5.1214,-5.1349,-5.2007,-5.2546,-5.3219,-5.4566,-5.5059,-5.5194,-5.5194,-5.5194,-5.5194,-5.5194,-5.5194,-5.5194,-5.5194,-5.5194,-5.5194,-5.5194,-5.5194,-5.5194,-5.5194,-5.5194,-5.5194,-5.5194,-5.5194,-5.5194,-5.5194,-5.5194,-5.5194,-5.5194,-5.5194,-5.5194,-5.5194,-5.5194,-5.5194,-5.5194,-5.5194,-5.5194,-5.5194,-5.5194,-5.5194,-5.5194,-5.5194,-5.5194,-5.5194,-5.5194,-5.5194,-4.2481,-4.2212,-4.1888,-4.3267,0.0,0.0,-4.304,-4.3229,-4.3329,-4.3329,-4.3786,-4.4004,-4.3409,-4.3771,-4.3989,-4.3409,-4.3329,-4.3329,-4.3329,-4.3329,-4.3329,-4.3329,-4.3329,-4.3329,-4.3329,-4.3329,-4.3329,-4.3329,-4.3329,-4.3329,-4.3329,-4.3329,-4.3329,-4.3329,-4.3329,-4.3329,-4.3329,-4.282,-4.2548,-4.2563,-4.2162,-4.1939,-4.1904,-4.1908,-4.1505,-4.0844,-4.0844,-4.0364,-3.98,-4.0709,-4.1428,-4.2164,-4.4765,-4.6222,-4.7131,-4.9533,-5.0397,-5.0493,-5.1011,-5.1214,-5.1214,-5.1214,-5.1214,-5.1214,-5.1214,-5.1409,-5.1768,-5.2426,-5.3294,-5.4192,-5.4985,-5.5194,-5.5194,-5.5194,-5.5194,-5.5194,-5.5194,-5.5194,-5.5194,-5.5194,-5.5194,-5.5194,-5.5194,-5.5194,-5.5194,-5.5194,-5.5194,-5.5194,-5.5194,-5.5194,-5.5194,-5.5194,-5.5194,-5.5194,-5.5194,-5.5194,-5.5194,-5.5194,-5.5194,-5.5194,-5.5194,-5.5194,-5.5194,-5.5194,-5.5194,-5.5194,-5.5194,-5.5194,-5.5194,-5.5194,-5.5194,-5.5194,-4.3633,-4.3231,-4.2751,-4.3633,-4.3117,0.0,-4.3346,-4.3441,-4.3329,-4.3329,-4.3329,-4.3329,-4.3329,-4.3329,-4.3329,-4.3329,-4.3329,-4.3329,-4.3329,-4.3329,-4.3329,-4.3329,-4.3329,-4.3329,-4.3329,-4.3329,-4.3329,-4.3329,-4.3329,-4.3329,-4.3329,-4.3329,-4.3329,-4.3329,-4.317,-4.3076,-4.3076,-4.1947,-4.1449,-4.1451,-4.0326,-3.982,-3.9912,-3.979,-3.9697,-3.9697,-3.9697,-3.9697,-3.9735,-4.0287,-4.0852,-4.1449,-4.2892,-4.4176,-4.5555,-4.8225,-4.9259,-4.9567,-5.0807,-5.1214,-5.1214,-5.1214,-5.1214,-5.1229,-5.1304,-5.1738,-5.2351,-5.3084,-5.4206,-5.5194,-5.5194,-5.5194,-5.5194,-5.5194,-5.5194,-5.5194,-5.5194,-5.5194,-5.5194,-5.5194,-5.5194,-5.5194,-5.5194,-5.5194,-5.5194,-5.5194,-5.5194,-5.5194,-5.5194,-5.5194,-5.5194,-5.5194,-5.5194,-5.5194,-5.5194,-5.5194,-5.5194,-5.5194,-5.5194,-5.5194,-5.5194,-5.5194,-5.5194,-5.5194,-5.5194,-5.5194,-5.5194,-5.5194,-5.5194,-5.5194,-5.5194,-5.5194,-4.2679,-4.2349,-4.1864,-4.2751,-4.2633,0.0,-4.265,-4.3007,-4.3329,-4.3329,-4.3329,-4.3329,-4.3329,-4.3329,-4.3329,-4.3329,-4.3329,-4.3329,-4.3329,-4.3329,-4.3329,-4.3329,-4.3329,-4.3329,-4.3329,-4.3329,-4.3329,-4.3329,-4.3329,-4.3329,-4.3329,-4.3329,-4.3329,-4.3329,-4.2371,-4.1932,-4.1932,-4.0831,-4.0469,-4.0854,-4.016,-4.0031,-4.0408,-3.9969,-3.9697,-3.9697,-3.9697,-3.9697,-3.9735,-4.0287,-4.0852,-4.1474,-4.3336,-4.515,-4.6888,-4.8539,-4.9873,-5.0807,-5.112,-5.1214,-5.1214,-5.1214,-5.1214,-5.1319,-5.1843,-5.2097,-5.2456,-5.3668,-5.4581,-5.5194,-5.5194,-5.5194,-5.5194,-5.5194,-5.5194,-5.5194,-5.5194,-5.5194,-5.5194,-5.5194,-5.5194,-5.5194,-5.5194,-5.5194,-5.5194,-5.5194,-5.5194,-5.5194,-5.5194,-5.5194,-5.5194,-5.5194,-5.5194,-5.5194,-5.5194,-5.5194,-5.5194,-5.5194,-5.5194,-5.5194,-5.5194,-5.5194,-5.5194,-5.5194,-5.5194,-5.5194,-5.5194,-5.5194,-5.5194,-5.5194,-5.5194,-5.5194,-4.3494,-4.3076,-4.2558,-4.3494,-4.332,0.0,0.0,-4.309,-4.3329,-4.3329,-4.3329,-4.3329,-4.3329,-4.3329,-4.3329,-4.3329,-4.3329,-4.3329,-4.3329,-4.3329,-4.3329,-4.3329,-4.3329,-4.3329,-4.3329,-4.3329,-4.3329,-4.3329,-4.3329,-4.3329,-4.3329,-4.3329,-4.3076,-4.2467,-4.1932,-4.1337,-4.0746,-3.961,-3.9289,-3.9779,-3.9207,-3.9154,-3.9732,-3.9728,-3.9697,-3.9697,-3.9697,-3.9697,-3.976,-4.0588,-4.1091,-4.1392,-4.2746,-4.4334,-4.6174,-4.7619,-4.9049,-5.0287,-5.1011,-5.1214,-5.1214,-5.1214,-5.1214,-5.1349,-5.2007,-5.2665,-5.3414,-5.4416,-5.494,-5.5194,-5.5194,-5.5194,-5.5194,-5.5194,-5.5194,-5.5194,-5.5194,-5.5194,-5.5194,-5.5194,-5.5194,-5.5194,-5.5194,-5.5194,-5.5194,-5.5194,-5.5194,-5.5194,-5.5194,-5.5194,-5.5194,-5.5194,-5.5194,-5.5194,-5.5194,-5.5194,-5.5194,-5.5194,-5.5194,-5.5194,-5.5194,-5.5194,-5.5194,-5.5194,-5.5194,-5.5194,-5.5194,-5.5194,-5.5194,-5.5194,-5.5194,-5.5194,-4.4297,-4.3927,-4.3472,-4.4297,-4.3927,-4.3329,0.0,0.0,0.0,-4.3329,-4.3329,-4.3329,0.0,0.0,-4.3284,-4.3165,-4.324,-4.3284,-4.3165,-4.3254,-4.3329,-4.3329,-4.3329,-4.3329,-4.3329,-4.3329,-4.3329,-4.3329,-4.3329,-4.3329,-4.3329,-4.3076,-4.2548,-4.1587,-4.1155,-4.0476,-3.9536,-3.8392,-3.8109,-3.8694,-3.8252,-3.8366,-3.9044,-3.9484,-3.9697,-3.9697,-3.9697,-3.9697,-3.9772,-4.089,-4.1342,-4.1404,-4.2057,-4.34,-4.5142,-4.6279,-4.7721,-4.9357,-5.0397,-5.1011,-5.1214,-5.1214,-5.1394,-5.1723,-5.2381,-5.3428,-5.4506,-5.5044,-5.5194,-5.5194,-5.5194,-5.5194,-5.5194,-5.5194,-5.5194,-5.5194,-5.5194,-5.5194,-5.5194,-5.5194,-5.5194,-5.5194,-5.5194,-5.5194,-5.5194,-5.5194,-5.5194,-5.5194,-5.5194,-5.5194,-5.5194,-5.5194,-5.5194,-5.5194,-5.5194,-5.5194,-5.5194,-5.5194,-5.5194,-5.5194,-5.5194,-5.5194,-5.5194,-5.5194,-5.5194,-5.5194,-5.5194,-5.5194,-5.5194,-5.5194,-5.5194,-5.5194,-4.3394,-4.3409,-4.3329,-4.3394,-4.3409,-4.3329,-4.3329,0.0,-4.3329,-4.3329,0.0,-4.3329,-4.3329,0.0,0.0,-4.2566,-4.2955,-4.3135,-4.2551,-4.297,-4.3329,-4.3329,-4.3329,-4.3329,-4.3329,-4.3329,-4.3329,-4.3329,-4.3329,-4.3329,-4.3329,-4.2371,-4.1767,-4.1587,-3.9596,-3.8469,-3.8289,-3.715,-3.7064,-3.8099,-3.8063,-3.8567,-3.9597,-3.9672,-3.9697,-3.9697,-3.9697,-3.9697,-3.9772,-4.089,-4.1342,-4.1442,-4.2484,-4.3746,-4.5048,-4.5142,-4.6888,-4.9259,-4.9357,-5.0191,-5.1214,-5.1214,-5.2007,-5.3084,-5.3773,-5.4491,-5.5089,-5.5164,-5.5194,-5.5194,-5.5194,-5.5194,-5.5194,-5.5194,-5.5194,-5.5194,-5.5194,-5.5194,-5.5194,-5.5194,-5.5194,-5.5194,-5.5194,-5.5194,-5.5194,-5.5194,-5.5194,-5.5194,-5.5194,-5.5194,-5.5194,-5.5194,-5.5194,-5.5194,-5.5194,-5.5194,-5.5194,-5.5194,-5.5194,-5.5194,-5.5194,-5.5194,-5.5194,-5.5194,-5.5194,-5.5194,-5.5194,-5.5194,-5.5194,-5.5194,-5.5194,-5.5194,-4.3989,-4.3771,-4.3394,-4.3989,-4.3693,-4.3329,-4.3329,-4.3329,-4.3329,-4.3329,0.0,0.0,0.0,0.0,0.0,0.0,-4.315,-4.324,-4.297,-4.3165,-4.3329,-4.3329,-4.3329,-4.3329,-4.3329,-4.3329,-4.3329,-4.3329,-4.3329,-4.3329,-4.3329,-4.2208,-4.1337,-4.0661,-3.8992,-3.7756,-3.715,-3.6628,-3.691,-3.8002,-3.8002,-3.8605,-3.9697,-3.9697,-3.9697,-3.9697,-3.9697,-3.9873,-4.0224,-4.1015,-4.153,-4.1894,-4.2672,-4.381,-4.5142,-4.5964,-4.7517,-4.9259,-5.008,-5.0713,-5.1274,-5.1663,-5.2411,-5.3309,-5.3997,-5.467,-5.5194,-5.5194,-5.5194,-5.5194,-5.5194,-5.5194,-5.5194,-5.5194,-5.5194,-5.5194,-5.5194,-5.5194,-5.5194,-5.5194,-5.5194,-5.5194,-5.5194,-5.5194,-5.5194,-5.5194,-5.5194,-5.5194,-5.5194,-5.5194,-5.5194,-5.5194,-5.5194,-5.5194,-5.5194,-5.5194,-5.5194,-5.5194,-5.5194,-5.5194,-5.5194,-5.5194,-5.5194,-5.5194,-5.5194,-5.5194,-5.5194,-5.5194,-5.5194,-5.5194,-5.5194,-5.5194,-4.422,-4.3849,-4.3488,-4.422,-4.3849,-4.3329,-4.3329,-4.3329,-4.3329,-4.3329,-4.3329,0.0,0.0,0.0,-4.3284,-4.309,0.0,-4.3269,-4.309,-4.3225,-4.3329,-4.3329,-4.3329,-4.3329,-4.3329,-4.3329,-4.3329,-4.3329,-4.3329,-4.3329,-4.3329,-4.1947,-4.0746,-3.9899,-3.8392,-3.7243,-3.6452,-3.6358,-3.691,-3.8002,-3.8002,-3.8605,-3.9697,-3.9697,-3.9697,-3.9697,-3.9697,-4.0011,-4.0563,-4.1116,-4.1668,-4.2208,-4.276,-4.3602,-4.4522,-4.5555,-4.6888,-4.8225,-4.9161,-5.0101,-5.1098,-5.2151,-5.292,-5.3593,-5.4266,-5.4805,-5.5194,-5.5194,-5.5194,-5.5194,-5.5194,-5.5194,-5.5194,-5.5194,-5.5194,-5.5194,-5.5194,-5.5194,-5.5194,-5.5194,-5.5194,-5.5194,-5.5194,-5.5194,-5.5194,-5.5194,-5.5194,-5.5194,-5.5194,-5.5194,-5.5194,-5.5194,-5.5194,-5.5194,-5.5194,-5.5194,-5.5194,-5.5194,-5.5194,-5.5194,-5.5194,-5.5194,-5.5194,-5.5194,-5.5194,-5.5194,-5.5194,-5.5194,-5.5194,-5.5194,-5.5194,-5.5194,-4.3329,-4.3329,-4.3329,-4.3329,-4.3329,-4.3329,-4.3329,-4.3329,-4.3329,-4.3329,-4.3329,-4.3329,-4.3329,-4.3329,-4.3135,-4.2491,-4.2925,0.0,0.0,-4.294,-4.3329,-4.3329,-4.3329,-4.3329,-4.3329,-4.3329,-4.3329,-4.3329,-4.3329,-4.3329,-4.3329,-4.1183,-3.9899,-3.9899,-3.7691,-3.6452,-3.6358,-3.6358,-3.691,-3.8002,-3.8002,-3.8605,-3.9697,-3.9697,-3.9697,-3.9697,-3.9697,-4.0011,-4.0563,-4.1116,-4.1668,-4.2208,-4.276,-4.2974,-4.3085,-4.3085,-4.4016,-4.5142,-4.5142,-4.7405,-5.0527,-5.2515,-5.3608,-5.4296,-5.4955,-5.5179,-5.5194,-5.5194,-5.5194,-5.5194,-5.5194,-5.5194,-5.5194,-5.5194,-5.5194,-5.5194,-5.5194,-5.5194,-5.5194,-5.5194,-5.5194,-5.5194,-5.5194,-5.5194,-5.5194,-5.5194,-5.5194,-5.5194,-5.5194,-5.5194,-5.5194,-5.5194,-5.5194,-5.5194,-5.5194,-5.5194,-5.5194,-5.5194,-5.5194,-5.5194,-5.5194,-5.5194,-5.5194,-5.5194,-5.5194,-5.5194,-5.5194,-5.5194,-5.5194,-5.5194,-5.5194,-5.5194,-4.3329,-4.3329,-4.3329,-4.3329,-4.3329,-4.3329,-4.3329,-4.3329,-4.3329,-4.3329,-4.3329,-4.3329,-4.3329,-4.3329,-4.3254,-4.3045,-4.3195,-4.3254,0.0,-4.3195,-4.3329,-4.3329,-4.3329,-4.3329,-4.3329,-4.3329,-4.3329,-4.3329,-4.3329,-4.3329,-4.3329,-4.1099,-3.9899,-3.9899,-3.7599,-3.6358,-3.6358,-3.6722,-3.7274,-3.8015,-3.8391,-3.8969,-3.9697,-3.9697,-3.9697,-3.9697,-3.9697,-4.0212,-4.1078,-4.1266,-4.1882,-4.2723,-4.2898,-4.2974,-4.3085,-4.4016,-4.463,-4.5249,-4.7094,-4.8865,-5.0556,-5.2545,-5.3653,-5.4341,-5.4999,-5.5194,-5.5194,-5.5194,-5.5194,-5.5194,-5.5194,-5.5194,-5.5194,-5.5194,-5.5194,-5.5194,-5.5194,-5.5194,-5.5194,-5.5194,-5.5194,-5.5194,-5.5194,-5.5194,-5.5194,-5.5194,-5.5194,-5.5194,-5.5194,-5.5194,-5.5194,-5.5194,-5.5194,-5.5194,-5.5194,-5.5194,-5.5194,-5.5194,-5.5194,-5.5194,-5.5194,-5.5194,-5.5194,-5.5194,-5.5194,-5.5194,-5.5194,-5.5194,-5.5194,-5.5194,-5.5194,-5.5194,-4.3329,-4.3329,-4.3329,-4.3329,-4.3329,-4.3329,-4.3329,-4.3329,-4.3329,-4.3329,-4.3329,-4.3329,-4.3329,-4.3329,-4.3329,-4.3329,-4.3329,-4.3329,0.0,-4.3329,-4.3329,-4.3329,-4.3329,-4.3329,-4.3329,-4.3329,-4.3329,-4.3329,-4.3329,-4.3155,-4.2725,-4.093,-3.9724,-3.9271,-3.7428,-3.6358,-3.6358,-3.691,-3.7462,-3.8015,-3.8592,-3.9157,-3.9697,-3.9697,-3.9697,-3.9697,-3.9697,-4.0325,-4.1342,-4.1342,-4.1982,-4.2974,-4.2974,-4.2974,-4.3085,-4.4016,-4.463,-4.5382,-4.7959,-4.961,-5.0875,-5.2902,-5.4012,-5.464,-5.5059,-5.5194,-5.5149,-5.491,-5.5014,-5.5149,-5.491,-5.5014,-5.5194,-5.5194,-5.5194,-5.5194,-5.5194,-5.5194,-5.5194,-5.5194,-5.5194,-5.5194,-5.5194,-5.5194,-5.5194,-5.5194,-5.5194,-5.5194,-5.5194,-5.5194,-5.5194,-5.5194,-5.5194,-5.5194,-5.5194,-5.5194,-5.5194,-5.5194,-5.5194,-5.5194,-5.5194,-5.5194,-5.5089,-5.485,-5.5074,-5.5074,-5.4835,-5.5074,-5.5194,-5.5194,-5.5194,-5.5194]}]]